[[{"header":{"parameterUnit":"m.s-1","parameterCategory":1,"la1":30.6,"la2":28.766,"lo1":-90.7593,"lo2":-88.6598,"dy":0.0162,"dx":0.0183,"nx":116,"ny":114,"refTime":"2023-10-01T06:00:00:Z","depth":0,"parameterNumber":2,"parameterNumberName":"U-component_of_WINDS"},"data":[0.0,0.0,0.0,0.0,0.0,0.0,0.0,0.0,0.0,0.0,0.0,0.0,0.0,0.0,0.0,0.0,0.0,0.0,0.0,0.0,0.0,0.0,0.0,0.0,0.0,0.0,0.0,0.0,0.0,0.0,0.0,0.0,0.0,0.0,0.0,0.0,0.0,0.0,0.0,0.0,0.0,0.0,0.0,0.0,0.0,0.0,0.0,0.0,0.0,0.0,0.0,0.0,0.0,0.0,0.0,0.0,0.0,0.0,0.0,0.0,0.0,0.0,0.0,0.0,0.0,0.0,0.0,0.0,0.0,0.0,0.0,0.0,0.0,0.0,0.0,0.0,0.0,0.0,0.0,0.0,0.0,0.0,0.0,0.0,0.0,0.0,0.0,0.0,0.0,0.0,0.0,0.0,0.0,0.0,0.0,0.0,0.0,0.0,0.0,0.0,0.0,0.0,0.0,0.0,0.0,0.0,0.0,0.0,0.0,0.0,0.0,0.0,0.0,0.0,0.0,0.0,0.0,0.0,0.0,0.0,0.0,0.0,0.0,0.0,0.0,0.0,0.0,0.0,0.0,0.0,0.0,0.0,0.0,0.0,0.0,0.0,0.0,0.0,0.0,0.0,0.0,0.0,0.0,0.0,0.0,0.0,0.0,0.0,0.0,0.0,0.0,0.0,0.0,0.0,0.0,0.0,0.0,0.0,0.0,0.0,0.0,0.0,0.0,0.0,0.0,0.0,0.0,0.0,0.0,0.0,0.0,0.0,0.0,0.0,0.0,0.0,0.0,0.0,0.0,0.0,0.0,0.0,0.0,0.0,0.0,0.0,0.0,0.0,0.0,0.0,0.0,0.0,0.0,0.0,0.0,0.0,0.0,0.0,0.0,0.0,0.0,0.0,0.0,0.0,0.0,0.0,0.0,0.0,0.0,0.0,0.0,0.0,0.0,0.0,0.0,0.0,0.0,0.0,0.0,0.0,0.0,0.0,0.0,0.0,0.0,0.0,0.0,0.0,0.0,0.0,0.0,0.0,0.0,0.0,0.0,0.0,0.0,0.0,0.0,0.0,0.0,0.0,0.0,0.0,0.0,0.0,0.0,0.0,0.0,0.0,0.0,0.0,0.0,0.0,0.0,0.0,0.0,0.0,0.0,0.0,0.0,0.0,0.0,0.0,0.0,0.0,0.0,0.0,0.0,0.0,0.0,0.0,0.0,0.0,0.0,0.0,0.0,0.0,0.0,0.0,0.0,0.0,0.0,0.0,0.0,0.0,0.0,0.0,0.0,0.0,0.0,0.0,0.0,0.0,0.0,0.0,0.0,0.0,0.0,0.0,0.0,0.0,0.0,0.0,0.0,0.0,0.0,0.0,0.0,0.0,0.0,0.0,0.0,0.0,0.0,0.0,0.0,0.0,0.0,0.0,0.0,0.0,0.0,0.0,0.0,0.0,0.0,0.0,0.0,0.0,0.0,0.0,0.0,0.0,0.0,0.0,0.0,0.0,0.0,0.0,0.0,0.0,0.0,0.0,0.0,0.0,0.0,0.0,0.0,0.0,0.0,0.0,0.0,0.0,0.0,0.0,0.0,0.0,0.0,0.0,0.0,0.0,0.0,0.0,0.0,0.0,0.0,0.0,0.0,0.0,0.0,0.0,0.0,0.0,0.0,0.0,0.0,0.0,0.0,0.0,0.0,0.0,0.0,0.0,0.0,0.0,0.0,0.0,0.0,0.0,0.0,0.0,0.0,0.0,0.0,0.0,0.0,0.0,0.0,0.0,0.0,0.0,0.0,0.0,0.0,0.0,0.0,0.0,0.0,0.0,0.0,0.0,0.0,0.0,0.0,0.0,0.0,0.0,0.0,0.0,0.0,0.0,0.0,0.0,0.0,0.0,0.0,0.0,0.0,0.0,0.0,0.0,0.0,0.0,0.0,0.0,0.0,0.0,0.0,0.0,0.0,0.0,0.0,0.0,0.0,0.0,0.0,0.0,0.0,0.0,0.0,0.0,0.0,0.0,0.0,0.0,0.0,0.0,0.0,0.0,0.0,0.0,0.0,0.0,0.0,0.0,0.0,0.0,0.0,0.0,0.0,0.0,0.0,0.0,0.0,0.0,0.0,0.0,0.0,0.0,0.0,0.0,0.0,0.0,0.0,0.0,0.0,0.0,0.0,0.0,0.0,0.0,0.0,0.0,0.0,0.0,0.0,0.0,0.0,0.0,0.0,0.0,0.0,0.0,0.0,0.0,0.0,0.0,0.0,0.0,0.0,0.0,0.0,0.0,0.0,0.0,0.0,0.0,0.0,0.0,0.0,0.0,0.0,0.0,0.0,0.0,0.0,0.0,0.0,0.0,0.0,0.0,0.0,0.0,0.0,0.0,0.0,0.0,0.0,0.0,0.0,0.0,0.0,0.0,0.0,0.0,0.0,0.0,0.0,0.0,0.0,0.0,0.0,0.0,0.0,0.0,0.0,0.0,0.0,0.0,0.0,0.0,0.0,0.0,0.0,0.0,0.0,0.0,0.0,0.0,0.0,0.0,0.0,0.0,0.0,0.0,0.0,0.0,0.0,0.0,0.0,0.0,0.0,0.0,0.0,0.0,0.0,0.0,0.0,0.0,0.0,0.0,0.0,0.0,0.0,0.0,0.0,0.0,0.0,0.0,0.0,0.0,0.0,0.0,0.0,0.0,0.0,0.0,0.0,0.0,0.0,0.0,0.0,0.0,0.0,0.0,0.0,0.0,0.0,0.0,0.0,0.0,0.0,0.0,0.0,0.0,0.0,0.0,0.0,0.0,0.0,0.0,0.0,0.0,0.0,0.0,0.0,0.0,0.0,0.0,0.0,0.0,0.0,0.0,0.0,0.0,0.0,0.0,0.0,0.0,0.0,0.0,0.0,0.0,0.0,0.0,0.0,0.0,0.0,0.0,0.0,0.0,0.0,0.0,0.0,0.0,0.0,0.0,0.0,0.0,0.0,0.0,0.0,0.0,0.0,0.0,0.0,0.0,0.0,0.0,0.0,0.0,0.0,0.0,0.0,0.0,0.0,0.0,0.0,0.0,0.0,0.0,0.0,0.0,0.0,0.0,0.0,0.0,0.0,0.0,0.0,0.0,0.0,0.0,0.0,0.0,0.0,0.0,0.0,0.0,0.0,0.0,0.0,0.0,0.0,0.0,0.0,0.0,0.0,0.0,0.0,0.0,0.0,0.0,0.0,0.0,0.0,0.0,0.0,0.0,0.0,0.0,0.0,0.0,0.0,0.0,0.0,0.0,0.0,0.0,0.0,0.0,0.0,0.0,0.0,0.0,0.0,0.0,0.0,0.0,0.0,0.0,0.0,0.0,0.0,0.0,0.0,0.0,0.0,0.0,0.0,0.0,0.0,0.0,0.0,0.0,0.0,0.0,0.0,0.0,0.0,0.0,0.0,0.0,0.0,0.0,0.0,0.0,0.0,0.0,0.0,0.0,0.0,0.0,0.0,0.0,0.0,0.0,0.0,0.0,0.0,0.0,0.0,0.0,0.0,0.0,0.0,0.0,0.0,0.0,0.0,0.0,0.0,0.0,0.0,0.0,0.0,0.0,0.0,0.0,0.0,0.0,0.0,0.0,0.0,0.0,0.0,0.0,0.0,0.0,0.0,0.0,0.0,0.0,0.0,0.0,0.0,0.0,0.0,0.0,0.0,0.0,0.0,0.0,0.0,0.0,0.0,0.0,0.0,0.0,0.0,0.0,0.0,0.0,0.0,0.0,0.0,0.0,0.0,0.0,0.0,0.0,0.0,0.0,0.0,0.0,0.0,0.0,0.0,0.0,0.0,0.0,0.0,0.0,0.0,0.0,0.0,0.0,0.0,0.0,0.0,0.0,0.0,0.0,0.0,0.0,0.0,0.0,0.0,0.0,0.0,0.0,0.0,0.0,0.0,0.0,0.0,0.0,0.0,0.0,0.0,0.0,0.0,0.0,0.0,0.0,0.0,0.0,0.0,0.0,0.0,0.0,0.0,0.0,0.0,0.0,0.0,0.0,0.0,0.0,0.0,0.0,0.0,0.0,0.0,0.0,0.0,0.0,0.0,0.0,0.0,0.0,0.0,0.0,0.0,0.0,0.0,0.0,0.0,0.0,0.0,0.0,0.0,0.0,0.0,0.0,0.0,0.0,0.0,0.0,0.0,0.0,0.0,0.0,0.0,0.0,0.0,0.0,0.0,0.0,0.0,0.0,0.0,0.0,0.0,0.0,0.0,0.0,0.0,0.0,0.0,0.0,0.0,0.0,0.0,0.0,0.0,0.0,0.0,0.0,0.0,0.0,0.0,0.0,0.0,0.0,0.0,0.0,0.0,0.0,0.0,0.0,0.0,0.0,0.0,0.0,0.0,0.0,0.0,0.0,0.0,0.0,0.0,0.0,0.0,0.0,0.0,0.0,0.0,0.0,0.0,0.0,0.0,0.0,0.0,0.0,0.0,0.0,0.0,0.0,0.0,0.0,0.0,0.0,0.0,0.0,0.0,0.0,0.0,0.0,0.0,0.0,0.0,0.0,0.0,0.0,0.0,0.0,0.0,0.0,0.0,0.0,0.0,0.0,0.0,0.0,0.0,0.0,0.0,0.0,0.0,0.0,0.0,0.0,0.0,0.0,0.0,0.0,0.0,0.0,0.0,0.0,0.0,0.0,0.0,0.0,0.0,0.0,0.0,0.0,0.0,0.0,0.0,0.0,0.0,0.0,0.0,0.0,0.0,0.0,0.0,0.0,0.0,0.0,0.0,0.0,0.0,0.0,0.0,0.0,0.0,0.0,0.0,0.0,0.0,0.0,0.0,0.0,0.0,0.0,0.0,0.0,0.0,0.0,0.0,0.0,0.0,0.0,0.0,0.0,0.0,0.0,0.0,0.0,0.0,0.0,0.0,0.0,0.0,0.0,0.0,0.0,0.0,0.0,0.0,0.0,0.0,0.0,0.0,0.0,0.0,0.0,0.0,0.0,0.0,0.0,0.0,0.0,0.0,0.0,0.0,0.0,0.0,0.0,0.0,0.0,0.0,0.0,0.0,0.0,0.0,0.0,0.0,0.0,0.0,0.0,0.0,0.0,0.0,0.0,0.0,0.0,0.0,0.0,0.0,0.0,0.0,0.0,0.0,0.0,0.0,0.0,0.0,0.0,0.0,0.0,0.0,0.0,0.0,0.0,0.0,0.0,0.0,0.0,0.0,0.0,0.0,0.0,0.0,0.0,0.0,0.0,0.0,0.0,0.0,0.0,0.0,0.0,0.0,0.0,0.0,0.0,0.0,0.0,0.0,0.0,0.0,0.0,0.0,0.0,0.0,0.0,0.0,0.0,0.0,0.0,0.0,0.0,0.0,0.0,0.0,0.0,0.0,0.0,0.0,0.0,0.0,0.0,0.0,0.0,0.0,0.0,0.0,0.0,0.0,0.0,0.0,0.0,0.0,0.0,0.0,0.0,0.0,0.0,0.0,0.0,0.0,0.0,0.0,0.0,0.0,0.0,0.0,0.0,0.0,0.0,0.0,0.0,0.0,0.0,0.0,0.0,0.0,0.0,0.0,0.0,0.0,0.0,0.0,0.0,0.0,0.0,0.0,0.0,0.0,0.0,0.0,0.0,0.0,0.0,0.0,0.0,0.0,0.0,0.0,0.0,0.0,0.0,0.0,0.0,0.0,0.0,0.0,0.0,0.0,0.0,0.0,0.0,0.0,0.0,0.0,0.0,0.0,0.0,0.0,0.0,0.0,0.0,0.0,0.0,0.0,0.0,0.0,0.0,0.0,0.0,0.0,0.0,0.0,0.0,0.0,0.0,0.0,0.0,0.0,0.0,0.0,0.0,0.0,0.0,0.0,0.0,0.0,0.0,0.0,0.0,0.0,0.0,0.0,0.0,0.0,0.0,0.0,0.0,0.0,0.0,0.0,0.0,0.0,0.0,0.0,0.0,0.0,0.0,0.0,0.0,0.0,0.0,0.0,0.0,0.0,0.0,0.0,0.0,0.0,0.0,0.0,0.0,0.0,0.0,0.0,0.0,0.0,0.0,0.0,0.0,0.0,0.0,0.0,0.0,0.0,0.0,0.0,0.0,0.0,0.0,0.0,0.0,0.0,0.0,-1.7058,-1.6707,0.0,0.0,0.0,0.0,0.0,0.0,0.0,0.0,0.0,0.0,0.0,0.0,0.0,0.0,0.0,0.0,0.0,0.0,0.0,0.0,0.0,0.0,0.0,0.0,0.0,0.0,0.0,0.0,0.0,0.0,0.0,0.0,0.0,0.0,0.0,0.0,0.0,-2.248,-2.2693,-2.2791,-2.2791,-2.2576,-2.2383,-2.2187,0.0,0.0,0.0,0.0,0.0,0.0,0.0,0.0,0.0,0.0,0.0,0.0,0.0,0.0,0.0,0.0,0.0,0.0,0.0,0.0,0.0,0.0,0.0,0.0,0.0,0.0,0.0,0.0,0.0,0.0,0.0,0.0,0.0,0.0,0.0,0.0,0.0,0.0,0.0,0.0,0.0,0.0,0.0,0.0,0.0,0.0,0.0,0.0,0.0,0.0,0.0,0.0,0.0,0.0,0.0,0.0,0.0,0.0,0.0,0.0,0.0,0.0,0.0,0.0,0.0,0.0,0.0,0.0,0.0,0.0,-1.8596,-1.8069,0.0,0.0,0.0,0.0,0.0,0.0,0.0,0.0,0.0,0.0,0.0,0.0,0.0,0.0,0.0,0.0,0.0,0.0,0.0,0.0,0.0,0.0,0.0,-2.3101,-2.3101,-2.3101,-2.3101,-2.3101,-2.3101,0.0,0.0,0.0,0.0,0.0,-2.3101,-2.3101,-2.3101,-2.3101,-2.3237,-2.3393,-2.3549,-2.3649,-2.3532,-2.3259,-2.281,0.0,0.0,0.0,0.0,0.0,0.0,0.0,0.0,0.0,0.0,0.0,0.0,0.0,0.0,0.0,0.0,0.0,0.0,0.0,0.0,0.0,0.0,0.0,0.0,0.0,0.0,0.0,0.0,0.0,0.0,0.0,0.0,0.0,0.0,0.0,0.0,0.0,0.0,0.0,0.0,0.0,0.0,0.0,0.0,0.0,0.0,0.0,0.0,0.0,0.0,0.0,0.0,0.0,0.0,0.0,0.0,0.0,0.0,0.0,0.0,0.0,0.0,0.0,-2.2715,-2.2891,-2.3064,-2.3064,-2.2891,-2.2461,-2.0879,-2.0176,-2.004,-1.8926,0.0,0.0,0.0,0.0,0.0,0.0,0.0,0.0,0.0,0.0,0.0,0.0,0.0,0.0,0.0,0.0,0.0,0.0,0.0,-2.3256,-2.3123,-2.3101,-2.3101,-2.3101,-2.3101,-2.3101,-2.3101,-2.3101,0.0,0.0,0.0,-2.3101,-2.3101,-2.3101,-2.3101,-2.3101,-2.3864,-2.4625,-2.5386,-2.5781,-2.6133,-2.6303,-2.4017,-2.3454,-2.404,0.0,0.0,0.0,0.0,0.0,0.0,0.0,0.0,0.0,0.0,0.0,0.0,0.0,0.0,0.0,0.0,0.0,0.0,0.0,0.0,0.0,0.0,0.0,0.0,0.0,0.0,0.0,0.0,0.0,0.0,0.0,0.0,0.0,0.0,0.0,0.0,0.0,0.0,0.0,0.0,0.0,-2.2783,-2.2783,0.0,0.0,0.0,0.0,0.0,0.0,0.0,0.0,0.0,0.0,0.0,0.0,0.0,-2.3282,-2.3966,-2.4326,-2.475,-2.521,-2.5952,-2.5952,-2.5289,-2.5289,-2.5249,-2.5152,-2.4157,0.0,-2.0996,-2.0488,0.0,0.0,0.0,0.0,0.0,0.0,0.0,0.0,0.0,0.0,0.0,0.0,0.0,0.0,0.0,0.0,0.0,0.0,0.0,0.0,0.0,-2.3552,-2.3747,-2.3493,-2.4394,-2.4551,-2.3574,-2.3945,0.0,0.0,-2.3101,-2.3101,-2.3101,-2.3101,-2.3474,-2.4219,-2.5332,-2.6211,-2.6816,-2.7012,-2.7233,-2.7324,-2.5913,-2.5117,-2.4727,-2.373,0.0,0.0,0.0,0.0,0.0,0.0,0.0,0.0,0.0,0.0,0.0,0.0,0.0,0.0,0.0,0.0,0.0,0.0,0.0,0.0,0.0,0.0,0.0,0.0,0.0,0.0,0.0,0.0,0.0,0.0,0.0,0.0,0.0,0.0,0.0,0.0,0.0,0.0,0.0,-2.1948,-2.2615,-2.2696,-2.3034,-2.3182,0.0,0.0,0.0,0.0,0.0,0.0,0.0,0.0,0.0,-2.4959,-2.4979,-2.518,-2.5527,-2.5937,-2.6621,-2.7493,-2.7676,-2.7793,-2.7891,-2.7611,-2.7376,-2.7129,-2.6523,-2.5566,-2.4313,-2.2441,-2.1406,-2.0957,0.0,0.0,0.0,0.0,-2.0156,-2.041,0.0,0.0,0.0,0.0,0.0,0.0,0.0,0.0,0.0,0.0,0.0,0.0,-2.3415,-2.4118,-2.4551,-2.4453,-2.5454,-2.5547,-2.4355,-2.4496,-2.4199,-2.3318,-2.3159,-2.3101,-2.3101,-2.3435,-2.4316,-2.5791,-2.6914,-2.7832,-2.8523,-2.8621,-2.8738,-2.8816,-2.8242,-2.7168,-2.5708,-2.4785,-2.375,-2.2658,0.0,0.0,0.0,0.0,0.0,0.0,0.0,0.0,0.0,0.0,0.0,0.0,0.0,0.0,0.0,0.0,0.0,0.0,0.0,0.0,0.0,0.0,0.0,0.0,0.0,0.0,0.0,0.0,0.0,0.0,0.0,0.0,0.0,0.0,0.0,0.0,0.0,-2.2388,-2.2797,-2.2654,-2.3046,-2.331,0.0,0.0,0.0,0.0,0.0,0.0,-2.459,-2.5527,-2.625,-2.6674,-2.7031,-2.7389,-2.7695,-2.791,-2.8535,-2.9542,-2.9277,-2.9394,-2.9931,-2.9453,-2.9082,-2.875,-2.8367,-2.7878,-2.7129,-2.443,-2.3086,-2.2638,-2.1876,-2.1563,-2.1563,-2.1563,-2.1758,-2.2069,0.0,0.0,0.0,0.0,0.0,0.0,0.0,0.0,0.0,0.0,0.0,-2.3435,-2.4235,-2.4766,-2.5395,-2.6216,-2.559,-2.5273,-2.5601,-2.4118,-2.3376,-2.375,-2.3337,-2.3101,-2.3101,-2.4336,-2.5845,-2.7565,-2.8398,-2.9473,-3.0742,-3.1133,-3.1543,-3.1944,-3.1074,-2.954,-2.7428,-2.5312,-2.4609,-2.4711,-2.2225,0.0,0.0,0.0,0.0,0.0,0.0,0.0,0.0,0.0,0.0,0.0,0.0,0.0,0.0,0.0,0.0,0.0,0.0,0.0,0.0,0.0,0.0,0.0,0.0,0.0,0.0,0.0,0.0,0.0,0.0,0.0,0.0,0.0,0.0,0.0,0.0,0.0,0.0,-2.2603,-2.4297,0.0,0.0,0.0,0.0,-2.4316,-2.5859,-2.6811,-2.683,-2.802,-2.8926,-2.9383,-2.9422,-3.0028,-3.122,-3.0879,-3.0937,-3.1357,-3.1337,-3.1172,-3.082,-3.0351,-3.0117,-3.0078,-2.9676,-2.9031,-2.8086,-2.6284,-2.5289,-2.4887,-2.4394,-2.4196,-2.4196,-2.4196,-2.4215,-2.4235,0.0,0.0,0.0,0.0,0.0,0.0,0.0,0.0,-2.3101,-2.3101,-2.3591,-2.4274,-2.5152,-2.6387,-2.7266,-2.7598,-2.8093,-2.7851,-2.6615,-2.5698,-2.5039,-2.4652,-2.3926,-2.3923,-2.4762,-2.6099,-2.7604,-2.9324,-3.0723,-3.1934,-3.298,-3.3117,-3.3274,-3.3391,-3.25,-3.1543,-3.0419,-2.7682,-2.5981,-2.4965,-2.3477,-2.2383,0.0,0.0,0.0,0.0,0.0,0.0,0.0,0.0,0.0,0.0,0.0,0.0,0.0,0.0,0.0,0.0,0.0,0.0,0.0,0.0,0.0,0.0,0.0,0.0,0.0,0.0,0.0,0.0,0.0,0.0,0.0,0.0,0.0,0.0,0.0,0.0,0.0,-2.5425,-2.707,0.0,-2.6953,-2.7031,-2.7187,-2.7279,-2.8672,-2.9629,-2.9874,-3.0859,-3.1601,-3.2031,-3.1777,-3.1875,-3.2344,-3.1944,-3.1934,-3.2344,-3.207,-3.1885,-3.1729,-3.125,-3.0898,-3.0625,-3.0176,-2.9805,-2.9453,-2.8574,-2.7305,-2.5903,-2.5406,-2.5249,-2.5269,-2.5586,-2.5684,-2.5723,0.0,0.0,0.0,0.0,0.0,0.0,0.0,-2.3101,-2.3101,-2.3101,-2.3981,-2.5019,-2.603,-2.7695,-2.8875,-2.9141,-2.9531,-2.9101,-2.7539,-2.6367,-2.5469,-2.4887,-2.4476,-2.4961,-2.6537,-2.7851,-2.952,-3.1504,-3.2656,-3.375,-3.4726,-3.4622,-3.459,-3.4687,-3.3828,-3.3281,-3.2902,-3.0458,-2.8249,-2.6255,-2.4629,-2.3769,-2.3223,0.0,0.0,0.0,0.0,0.0,0.0,0.0,0.0,0.0,0.0,0.0,0.0,0.0,0.0,0.0,0.0,0.0,0.0,0.0,0.0,0.0,0.0,0.0,0.0,0.0,0.0,0.0,0.0,0.0,0.0,0.0,0.0,0.0,0.0,-2.6342,-2.8079,-2.8079,-2.9863,-3.0771,-2.9855,-2.9941,-3.0137,-3.0381,-3.1523,-3.2305,-3.2578,-3.3281,-3.3789,-3.4082,-3.3535,-3.3301,-3.3437,-3.3058,-3.2843,-3.2793,-3.2656,-3.2472,-3.2179,-3.1875,-3.1504,-3.1094,-3.0781,-3.0469,-3.0176,-2.9931,-2.8894,-2.7448,-2.6947,-2.6693,-2.6615,-2.6934,-2.7031,-2.7051,0.0,0.0,0.0,0.0,0.0,0.0,-2.3042,-2.3101,-2.3101,-2.3101,-2.4297,-2.563,-2.6914,-2.8621,-2.9989,-3.0859,-2.9707,-2.875,-2.832,-2.5879,-2.443,-2.443,-2.4945,-2.6197,-2.832,-2.9629,-3.1543,-3.4153,-3.4173,-3.4805,-3.6021,-3.5644,-3.5684,-3.6001,-3.5156,-3.4766,-3.4707,-3.3418,-3.1426,-2.882,-2.5776,-2.5312,-2.6118,0.0,0.0,0.0,0.0,0.0,0.0,0.0,0.0,0.0,0.0,0.0,0.0,0.0,0.0,0.0,0.0,0.0,0.0,0.0,0.0,0.0,0.0,0.0,0.0,0.0,0.0,0.0,0.0,0.0,0.0,0.0,0.0,0.0,-2.5913,-2.843,-3.0323,-3.0362,-3.2617,-3.3528,-3.1836,-3.2781,-3.3503,-3.3484,-3.4316,-3.4785,-3.4785,-3.5195,-3.543,-3.543,-3.4603,-3.4349,-3.4726,-3.4329,-3.3672,-3.2851,-3.323,-3.3027,-3.2237,-3.2237,-3.1983,-3.1513,-3.1513,-3.1035,-3.0234,-3.0234,-2.998,-2.9579,-2.9101,-2.8691,-2.834,-2.834,-2.834,-2.8262,0.0,0.0,0.0,0.0,0.0,0.0,-2.3081,-2.3101,-2.3101,-2.3101,-2.4824,-2.6548,-2.7793,-2.9492,-3.0879,-3.1768,-3.0361,-2.9082,-2.834,-2.6152,-2.5039,-2.5328,-2.668,-2.8281,-3.0137,-3.1719,-3.3359,-3.5039,-3.5678,-3.6289,-3.6953,-3.6836,-3.6992,-3.7328,-3.6504,-3.6289,-3.6504,-3.5215,-3.4258,-3.3301,-2.9629,-2.7637,-2.6641,0.0,0.0,0.0,0.0,0.0,0.0,0.0,0.0,0.0,0.0,0.0,0.0,0.0,0.0,0.0,0.0,0.0,0.0,0.0,0.0,0.0,0.0,0.0,0.0,0.0,0.0,0.0,0.0,0.0,0.0,0.0,-2.873,-2.9844,-2.9082,-3.1035,-3.2879,-3.3867,-3.5156,-3.5795,-3.5326,-3.584,-3.6113,-3.5801,-3.6562,-3.6914,-3.6601,-3.6426,-3.6362,-3.6362,-3.5488,-3.5098,-3.5195,-3.4746,-3.4414,-3.418,-3.4297,-3.3906,-3.3086,-3.3086,-3.2676,-3.2022,-3.2022,-3.168,-3.1152,-3.1152,-3.0703,-2.998,-2.9551,-2.9344,-2.9285,-2.957,-2.9473,-2.9149,0.0,0.0,0.0,0.0,0.0,0.0,-2.3101,-2.3101,-2.3101,-2.3101,-2.5171,-2.7012,-2.7956,-2.9746,-3.0967,-3.1103,-2.9852,-2.8516,-2.7305,-2.6236,-2.5977,-2.6752,-2.8633,-3.0449,-3.2187,-3.373,-3.5123,-3.6445,-3.6953,-3.75,-3.8086,-3.8086,-3.834,-3.8711,-3.8027,-3.7871,-3.8027,-3.7109,-3.6523,-3.5976,-3.3567,-3.1406,-2.9425,-2.7272,-2.6197,-2.5727,-2.4551,-2.4062,-2.3828,-2.2969,0.0,0.0,0.0,0.0,0.0,0.0,0.0,0.0,0.0,0.0,0.0,0.0,0.0,0.0,0.0,0.0,0.0,0.0,0.0,0.0,0.0,0.0,0.0,0.0,-3.1299,-3.2793,-3.3359,-3.4512,-3.5664,-3.6621,-3.75,-3.7949,-3.7754,-3.7949,-3.8066,-3.8027,-3.8125,-3.8086,-3.7851,-3.7422,-3.7187,-3.7187,-3.6543,-3.6113,-3.5971,-3.5664,-3.5254,-3.4707,-3.4902,-3.4531,-3.3691,-3.3691,-3.3242,-3.2452,-3.2452,-3.2187,-3.1797,-3.1797,-3.1484,-3.0967,0.0,0.0,0.0,0.0,-2.9512,-2.9199,0.0,0.0,0.0,0.0,0.0,0.0,-2.3101,-2.3101,-2.3101,-2.3101,-2.5289,-2.7012,-2.7428,-2.9324,-3.0254,-2.9579,-2.8574,-2.7363,-2.5815,-2.6191,-2.709,-2.8516,-3.0664,-3.2578,-3.429,-3.5566,-3.6782,-3.7988,-3.8011,-3.8476,-3.9277,-3.9277,-3.9531,-3.9941,-3.9492,-3.9297,-3.9316,-3.8906,-3.8281,-3.7559,-3.7105,-3.5527,-3.3113,-2.9941,-2.9129,-2.9403,-2.737,-2.6157,-2.5395,-2.4453,0.0,0.0,0.0,0.0,0.0,0.0,0.0,0.0,0.0,0.0,0.0,0.0,0.0,0.0,0.0,0.0,0.0,0.0,0.0,0.0,0.0,0.0,0.0,0.0,-3.3743,-3.5463,-3.7835,-3.8225,-3.8398,-3.8728,-3.9414,-3.9726,-3.9316,-3.9316,-3.9492,-3.9863,-3.916,-3.8767,-3.8767,-3.8223,0.0,0.0,0.0,-3.7031,-3.6636,-3.6636,-3.5976,-3.4785,-3.5195,-3.4922,-3.4114,-3.4114,-3.3665,-3.2871,-3.2871,-3.2598,-3.2198,-3.2198,-3.214,-3.1944,-3.0781,-3.0098,-2.9696,-2.9219,-2.9035,-2.9004,0.0,0.0,0.0,0.0,0.0,0.0,-2.3101,-2.3101,-2.3101,-2.3101,-2.4758,-2.5991,-2.6069,-2.7422,-2.8523,-2.9004,-2.7298,-2.6069,-2.5713,-2.644,-2.7949,-3.0293,-3.2441,-3.4238,-3.5605,-3.686,-3.7851,-3.8457,-3.8789,-3.9238,-3.9766,-3.9766,-4.0,-4.0391,-3.9961,-3.9941,-4.0196,-3.9824,-3.9551,-3.9316,-3.8571,-3.6538,-3.3801,-3.2101,-3.0888,-2.9883,-2.8437,-2.8027,-2.7988,-2.6797,-2.6562,-2.6627,-2.5445,-2.4664,0.0,0.0,0.0,0.0,0.0,0.0,0.0,0.0,0.0,0.0,0.0,0.0,0.0,0.0,0.0,0.0,0.0,0.0,0.0,-3.4844,-3.6641,-3.8242,-3.9767,-4.0312,-4.0312,-3.9707,-3.9785,-3.9863,-3.9766,-4.0078,-4.0156,-3.9922,-3.9726,-3.9648,-3.9648,-3.8555,-3.7894,-3.7894,-3.7187,-3.6582,-3.6152,-3.6152,-3.584,-3.5254,-3.5351,0.0,-3.4114,-3.4114,-3.3789,-3.3269,-3.3269,-3.2871,-3.2198,-3.2198,-3.1788,-3.1152,-3.123,-3.0996,-3.0586,-3.0117,-2.9941,-2.9883,0.0,0.0,0.0,0.0,0.0,0.0,-2.3101,-2.3101,-2.3101,-2.3101,-2.443,-2.541,-2.541,-2.6392,-2.7037,-2.6992,-2.5625,-2.5191,-2.6284,-2.7578,-2.9551,-3.2394,-3.4368,-3.5879,-3.6918,-3.7991,-3.8672,-3.8887,-3.9551,-3.998,-4.0215,-4.043,-4.0644,-4.084,-4.0625,-4.0644,-4.084,-4.0625,-4.041,-4.0156,-3.9492,-3.8102,-3.6167,-3.4466,-3.2969,-3.168,-3.0605,-2.9941,-2.9394,-2.8293,-2.7832,-2.7545,-2.666,-2.5757,-2.4976,0.0,0.0,0.0,0.0,0.0,0.0,0.0,0.0,0.0,0.0,0.0,0.0,0.0,0.0,-3.04,-3.1885,0.0,-3.515,-3.7266,-3.8535,-3.9609,-4.0703,-4.1035,-4.0937,-4.0293,-4.041,-4.0449,-4.0234,-4.0391,-4.043,-4.0234,-3.9805,-3.9551,-3.9551,-3.873,-3.8144,-3.7894,-3.7519,-3.6992,-3.6348,-3.6133,-3.5801,-3.5391,-3.5156,-3.4707,-3.4114,-3.4114,-3.3711,-3.3105,-3.3105,-3.2754,-3.2198,-3.2198,-3.1827,-3.123,-3.1416,-3.1113,-3.0488,-3.0067,-2.9746,-2.9492,0.0,0.0,0.0,0.0,0.0,0.0,-2.3101,-2.3101,-2.3101,-2.3101,-2.4121,-2.4809,-2.473,-2.5434,-2.559,-2.4789,-2.432,-2.4922,-2.7012,-2.875,-3.1064,-3.4095,-3.5893,-3.7187,-3.8027,-3.8809,-3.9277,-3.9453,-4.0176,-4.0566,-4.0664,-4.1016,-4.1211,-4.1211,-4.1211,-4.1211,-4.1211,-4.1211,-4.0976,-4.0605,-4.0195,-3.9492,-3.8513,-3.6523,-3.4941,-3.3652,-3.2589,-3.1338,-3.0078,-2.9297,-2.8476,-2.7761,-2.7461,-2.6771,-2.5971,-2.5371,-2.4613,0.0,0.0,0.0,0.0,0.0,0.0,0.0,0.0,-2.8367,-2.9109,-3.0556,-3.2101,-3.3645,-3.5059,-3.6406,-3.7809,-3.9219,-3.9844,-4.0391,-4.1113,-4.1094,-4.0879,-4.0449,-4.0781,-4.0879,-4.0449,-4.0372,-4.0372,-4.0372,-3.9648,-3.9238,-3.9336,-3.8848,-3.8379,-3.7894,-3.7816,-3.7402,-3.6577,-3.6113,-3.5684,-3.5254,-3.4785,-3.4355,-3.3945,-3.3945,-3.3574,-3.291,-3.2734,-3.2511,-3.2179,-3.2022,-3.1719,-3.1377,-3.1377,-3.0898,-3.0156,-2.9852,-2.9473,-2.9101,0.0,0.0,0.0,0.0,0.0,0.0,0.0,0.0,-2.3101,-2.3101,-2.3571,-2.3789,-2.3376,-2.3789,-2.3887,-2.3376,-2.4316,-2.5708,-2.7506,-2.9199,-3.1474,-3.4492,-3.6289,-3.7637,-3.8513,-3.8965,-3.959,-4.0333,-4.043,-4.0723,-4.1094,-4.1191,-4.1211,-4.1211,-4.1211,-4.1211,-4.1211,-4.1211,-4.1191,-4.1055,-4.0625,-3.9922,-3.8984,-3.7617,-3.6289,-3.4902,-3.2922,-3.1338,-3.0117,-2.9676,-2.8953,-2.8281,-2.8594,-2.8125,-2.7233,-2.5991,-2.5015,-2.4414,-2.4789,-2.5512,-2.6562,-2.8137,-2.8066,-2.8699,0.0,-3.2969,-3.2812,-3.4883,-3.6055,-3.6894,-3.7425,-3.8652,-3.9726,-4.0273,-4.0742,-4.1093,-4.1211,-4.084,-4.0449,-4.0019,-4.0332,-4.043,-4.0,-3.9961,-3.9961,-3.9961,-3.9492,-3.9375,-3.9805,-3.906,-3.8379,-3.7894,-3.7559,-3.6953,-3.6094,-3.5664,-3.5234,-3.4766,-3.4336,-3.3926,-3.3496,-3.3496,-3.3437,-3.3269,-3.2589,-3.2237,-3.214,-3.1348,-3.0996,-3.0957,-3.0957,-3.0644,-3.0195,-3.0137,-3.0098,-3.0,0.0,0.0,0.0,0.0,0.0,0.0,0.0,0.0,-2.3101,-2.3101,-2.3279,-2.3318,-2.312,-2.3279,-2.3318,-2.312,-2.3867,-2.5297,-2.7545,-2.9277,-3.1669,-3.4961,-3.6523,-3.7812,-3.8926,-3.9375,-3.9902,-4.0489,-4.0781,-4.0996,-4.1211,-4.1211,-4.1211,-4.1211,-4.1211,-4.1211,-4.1211,-4.1211,-4.1211,-4.1152,-4.043,-3.9766,-3.9004,-3.7226,-3.5449,-3.3672,-3.2012,-3.0566,0.0,-2.8398,-2.8034,-2.7976,-2.8151,-2.7598,-2.6783,-2.5952,-2.5445,-2.5367,-2.6353,-2.7604,-2.8906,-3.0089,-3.1094,-3.2344,-3.459,-3.5078,-3.5449,-3.6801,-3.8186,-3.9219,-3.9357,-4.0293,-4.0976,-4.0918,-4.1055,-4.1211,-4.1211,-4.0586,-3.9805,-3.8867,-3.8691,-3.8867,-3.9434,-3.9277,-3.9238,-3.9473,-3.9082,-3.8809,-3.875,-3.8398,-3.7891,-3.7226,-3.7031,-3.6641,-3.6035,-3.5605,-3.5156,-3.4687,-3.431,-3.3848,-3.3386,-3.3386,-3.325,-3.3008,-3.2168,-3.1797,-3.1738,-3.1133,-3.0898,-3.0898,-3.0898,-3.0762,-3.0566,-3.0293,-3.0039,-2.9653,0.0,0.0,0.0,0.0,0.0,0.0,0.0,0.0,0.0,0.0,-2.3101,-2.3101,-2.3101,-2.3101,-2.3101,-2.3101,-2.3535,-2.4746,-2.6992,-2.882,-3.124,-3.4375,-3.5957,-3.7422,-3.8809,-3.9297,-3.9805,-4.0313,-4.0664,-4.0859,-4.0859,-4.0859,-4.0879,-4.0996,-4.0996,-4.1055,-4.1211,-4.1211,-4.1152,-4.0937,-4.0195,-3.9414,-3.8437,-3.6172,-3.3965,-3.1953,-3.0898,-2.9453,-2.7884,-2.6947,-2.6797,-2.7018,-2.7272,-2.692,-2.6348,-2.6128,-2.6225,-2.6615,-2.7604,-2.9285,-3.0976,-3.1973,-3.375,-3.5488,-3.6426,-3.7207,-3.7969,-3.8809,-4.0,-4.0762,-4.041,-4.0957,-4.1308,-4.0937,-4.0918,-4.0957,-4.0878,-3.998,-3.8867,-3.7523,-3.6816,-3.6777,-3.7695,-3.7832,-3.8047,-3.8476,-3.8259,-3.7969,-3.7754,-3.7718,-3.7422,-3.6734,-3.6714,-3.6465,-3.5982,-3.5605,-3.5156,-3.4687,-3.431,-3.3848,-3.3386,-3.3386,-3.323,-3.293,-3.2187,-3.1797,-3.166,-3.125,-3.0996,-3.0898,-3.0898,-3.0616,-3.0158,-2.9833,-2.965,-2.9325,0.0,0.0,0.0,0.0,0.0,0.0,0.0,0.0,0.0,0.0,-2.3101,-2.3101,-2.3101,-2.3101,-2.3101,-2.3101,-2.3535,-2.4355,-2.5654,-2.7747,-2.9941,-3.2198,-3.4349,-3.623,-3.7894,-3.8398,-3.908,-3.9922,-3.9922,-3.9941,-3.9941,-3.9941,-4.0156,-4.0508,-4.0508,-4.0781,-4.1211,-4.1211,-4.0937,-4.0469,-4.0078,-3.8867,-3.707,-3.4492,-3.2157,-3.0225,-2.9785,-2.7988,-2.5771,-2.5732,-2.5488,-2.5317,-2.6152,-2.6406,-2.6465,-2.6855,-2.7559,-2.8223,-2.8262,-3.0185,-3.2433,-3.3704,-3.5346,-3.7203,-3.9277,-4.0098,-4.0606,-4.1504,-4.1719,-4.1387,-4.0137,-4.0273,-4.043,-4.0,-4.0273,-4.0391,-4.0,-3.8809,-3.7464,-3.6196,-3.4941,-3.4212,-3.4251,-3.5371,-3.6269,-3.6753,-3.6773,-3.6929,-3.7305,-3.7324,-3.7129,-3.6714,-3.6714,-3.6465,-3.5982,-3.5605,-3.5156,-3.4687,-3.431,-3.3848,-3.3386,-3.3386,-3.3386,-3.3347,-3.2949,-3.2519,-3.214,-3.168,-3.1269,-3.0898,-3.0898,-2.9903,-2.8468,-2.8468,-2.8959,-2.9325,0.0,0.0,0.0,0.0,0.0,0.0,0.0,0.0,0.0,0.0,0.0,0.0,0.0,0.0,0.0,0.0,-2.3237,-2.3906,-2.5215,-2.6777,-2.8496,-3.038,-3.2519,-3.4336,-3.5762,-3.6504,-3.7441,-3.8594,-3.8594,-3.873,-3.906,-3.906,-3.9101,-3.9238,-3.9531,-3.9726,-3.9883,-4.0195,-3.9726,-3.8694,-3.8047,-3.6875,-3.5254,-3.2383,-3.0312,-2.875,0.0,-2.584,-2.4742,-2.4176,-2.4079,-2.43,-2.457,-2.4668,-2.4922,-2.6211,-2.7598,-2.9023,-3.0497,-3.2754,-3.5039,-3.6309,-3.7734,-3.9141,-4.0487,-4.0859,-4.0879,-4.0586,-4.0078,-3.9277,-3.8024,-3.7871,-3.8105,-3.8516,-3.918,-3.9805,-4.0254,-3.9687,-3.834,-3.5898,-3.5469,-3.457,-3.2578,-3.3809,-3.5039,-3.5762,-3.6074,-3.6426,-3.689,-3.691,-3.6953,-3.709,-3.6543,-3.6309,-3.6445,-3.6016,-3.543,-3.4687,-3.431,-3.3848,-3.3406,-3.373,-3.3691,-3.3347,-3.2676,-3.2335,-3.214,-3.1406,-3.1016,-3.0791,-2.9678,-2.892,-2.8259,-2.7194,-2.6776,-2.6498,0.0,0.0,0.0,0.0,0.0,0.0,0.0,0.0,0.0,0.0,0.0,0.0,0.0,0.0,0.0,0.0,0.0,-2.3474,-2.4316,-2.5586,-2.6953,-2.8406,-3.0195,-3.1777,-3.3066,-3.3652,-3.4414,-3.541,-3.5533,-3.5781,-3.6055,-3.6245,-3.648,-3.6738,-3.7012,-3.7402,-3.7851,-3.7988,-3.7461,-3.6465,-3.5502,-3.4212,-3.2578,-2.9863,-2.8125,0.0,-2.5039,-2.4199,-2.3845,-2.3276,-2.3298,-2.3574,-2.375,-2.4316,-2.5215,-2.666,-2.8496,-3.0547,-3.2765,-3.5098,-3.7246,-3.8499,-3.9726,-4.0762,-4.1465,-4.1269,-4.0644,-3.9629,-3.8476,-3.7168,-3.5619,-3.5189,-3.5365,-3.6172,-3.6914,-3.7832,-3.918,-3.8594,-3.75,-3.6035,-3.5527,-3.4551,-3.2617,-3.3281,-3.4082,-3.4648,-3.5508,-3.6152,-3.6426,-3.6773,-3.7012,-3.7285,-3.6758,-3.6601,-3.6894,-3.6465,-3.582,-3.4941,-3.4388,-3.3926,-3.3652,-3.3789,-3.3691,-3.3347,-3.2695,-3.198,-3.1249,-3.0564,-2.9828,-2.9039,-2.7961,-2.7211,-2.6577,-2.5528,-2.4512,-2.3595,0.0,0.0,0.0,0.0,0.0,0.0,0.0,0.0,0.0,0.0,0.0,0.0,0.0,0.0,0.0,0.0,0.0,0.0,-2.3101,-2.4316,-2.5395,-2.6211,-2.748,-2.875,-2.998,-3.0039,-3.0312,-3.0801,-3.1191,-3.1377,-3.1396,-3.1866,-3.2461,-3.3191,-3.3211,-3.3945,-3.5098,-3.4687,-3.4238,-3.3743,-3.2492,-3.0986,-2.9246,-2.7115,-2.5757,-2.4832,-2.3482,-2.2994,-2.3035,-2.312,-2.3198,-2.3335,-2.3809,-2.541,-2.7285,-2.8223,-3.0322,-3.2804,-3.4961,-3.709,-3.9004,-4.0273,-4.1191,-4.1875,-4.2148,-4.125,-4.0,-3.8669,-3.6973,-3.5098,-3.2969,-3.2296,-3.2355,-3.3242,-3.3848,-3.4994,-3.7129,-3.6055,-3.5449,-3.6636,-3.5326,-3.429,-3.4192,-3.3809,-3.3542,-3.3503,-3.5006,-3.5942,-3.6021,-3.6836,-3.7324,-3.7363,-3.7324,-3.7305,-3.7305,-3.6871,-3.6226,-3.5391,-3.4583,-3.4153,-3.4095,-3.3672,-3.3425,-3.3367,-3.2969,-3.1606,-2.9656,-2.9276,-2.7891,-2.5984,-2.5924,-2.4932,-2.3605,-2.3512,-2.2312,-2.0943,0.0,0.0,0.0,0.0,0.0,0.0,0.0,0.0,0.0,0.0,0.0,0.0,0.0,0.0,0.0,0.0,0.0,0.0,-2.3101,-2.375,-2.4242,-2.4434,-2.5679,-2.6699,-2.7344,-2.8015,-2.8699,-2.9414,-2.9503,-2.9746,-3.0106,-3.0204,-3.038,-3.0595,-3.0869,-3.1201,-3.1543,-3.1758,-3.123,-3.0176,-2.9531,-2.8633,-2.7461,-2.5625,-2.4417,-2.3584,-2.2252,-2.1747,-2.1935,-2.3207,-2.4492,-2.5625,-2.6055,-2.7201,-2.8762,-3.0673,-3.257,-3.459,-3.7125,-3.9138,-4.0702,-4.1308,-4.1641,-4.1484,-4.0293,-3.9277,-3.7949,-3.5717,-3.3613,-3.1641,-2.9785,-2.9891,-3.0869,-3.2656,-3.4668,-3.6792,-3.8926,-3.9394,-3.9043,-3.7754,-3.75,-3.6832,-3.5215,-3.5527,-3.5586,-3.4941,-3.498,-3.5469,-3.6445,-3.7012,-3.7598,-3.8259,-3.7637,-3.7305,-3.7305,-3.625,-3.5605,-3.5391,-3.5156,-3.474,-3.4114,-3.4277,-3.4023,-3.3367,-3.2969,-3.1606,-2.9656,-2.9276,-2.7891,-2.5893,-2.4686,-2.3962,-2.345,-2.2184,-2.1434,-2.1065,0.0,0.0,0.0,0.0,0.0,0.0,0.0,0.0,0.0,0.0,0.0,0.0,0.0,0.0,0.0,0.0,0.0,0.0,0.0,-2.3357,-2.3474,-2.3474,-2.4176,-2.4684,-2.4961,-2.543,-2.5918,-2.6362,-2.6557,-2.6797,-2.7057,-2.7252,-2.7448,-2.7624,-2.7851,-2.8184,-2.8535,-2.8594,-2.8176,0.0,0.0,-2.5869,-2.4676,-2.3474,-2.2437,-2.152,-2.0788,-2.1235,-2.2426,-2.4119,-2.5808,-2.7402,-2.8398,-2.9844,-3.1543,-3.334,-3.5059,-3.6836,-3.8887,-4.0684,-4.2012,-4.207,-4.1797,-4.1016,-3.9082,-3.7539,-3.5664,-3.2746,-3.0732,-2.9031,-2.7461,-2.7715,-2.8836,-3.0781,-3.3125,-3.5619,-3.8125,-3.9043,-3.9375,-3.9101,-3.8945,-3.8379,-3.7187,-3.7359,-3.7262,-3.6562,-3.6269,-3.6348,-3.6914,-3.7519,-3.8066,-3.8591,-3.8141,-3.7773,-3.7578,-3.5842,-3.4909,-3.4686,-3.3342,-3.2424,-3.1935,-3.1873,-3.1581,-3.1093,-3.066,-2.9404,-2.7654,-2.7087,-2.5763,-2.3972,-2.2916,-2.2497,-2.2404,-2.1443,-2.1109,-2.1109,0.0,0.0,0.0,0.0,0.0,0.0,0.0,0.0,0.0,0.0,0.0,0.0,0.0,0.0,0.0,0.0,0.0,0.0,0.0,0.0,-2.2687,-2.284,-2.2862,-2.2862,-2.2862,-2.2862,-2.2775,-2.2621,-2.3185,-2.3467,-2.3467,-2.3971,-2.4453,-2.4828,-2.4664,-2.5019,-2.5697,-2.5305,-2.5011,-2.4833,-2.4229,-2.3068,-2.1624,0.0,-2.0296,-1.9268,-1.9268,-2.067,-2.2899,-2.5136,-2.7201,-2.9121,-3.0918,-3.2902,-3.4818,-3.6211,-3.7676,-3.9121,-4.0488,-4.1992,-4.3047,-4.2558,-4.1699,-4.041,-3.8105,-3.582,-3.3262,-2.995,-2.8288,-2.7031,-2.5776,-2.6055,-2.707,-2.8859,-3.0957,-3.3469,-3.6597,-3.7383,-3.8379,-4.0371,-3.9883,-3.9375,-3.9375,-3.8945,-3.8535,-3.8167,-3.7814,-3.7526,-3.7402,-3.818,-3.8465,-3.819,-3.7876,-3.7481,-3.706,-3.5009,-3.3768,-3.3286,-3.0631,-2.9285,-2.9169,-2.8593,-2.8296,-2.818,-2.7768,-2.6613,-2.4985,-2.4351,-2.3064,-2.1502,-2.1203,-2.1109,-2.1109,-2.1109,-2.1109,-2.1109,0.0,0.0,0.0,0.0,0.0,0.0,0.0,0.0,0.0,0.0,-1.8418,-1.9747,0.0,0.0,0.0,0.0,0.0,0.0,0.0,0.0,0.0,-2.1569,-2.1614,-2.1614,-2.1614,-2.1614,-2.1123,-2.0133,-2.1217,-2.1723,-2.1768,-2.2837,-2.3376,-2.341,-2.2393,-2.202,-2.219,-2.2094,-2.1489,-2.0646,-2.1486,-2.1081,-1.9922,-1.9832,0.0,0.0,-1.801,-1.8303,-1.9471,-2.464,-2.8672,-3.1885,-3.3977,-3.5586,-3.7129,-3.9104,-3.9923,-4.0547,-4.2187,-4.3105,-4.3418,-4.2577,-4.1269,-3.9375,-3.6484,-3.3613,-3.0781,-2.8027,-2.6693,-2.5757,-2.4801,-2.5854,-2.7715,-3.0156,-3.2051,-3.4512,-3.8242,-3.916,-3.9844,-4.0937,-4.0605,-4.0255,-4.0255,-3.957,-3.9219,-3.9531,-3.7277,-3.6476,-3.7725,-3.8301,-3.7805,-3.6072,-3.4042,-3.2827,-3.2509,-3.1825,-3.1275,-3.0906,-3.0352,-2.9814,-2.9186,-2.907,-2.8725,-2.8196,-2.8097,-2.679,-2.467,-2.4565,-2.3185,-2.1176,-2.1122,-2.1109,-2.1109,-2.1109,-2.1109,-2.1109,0.0,0.0,0.0,0.0,0.0,0.0,0.0,-1.5808,-1.5808,-1.5808,-1.6842,-1.7576,-1.7576,-1.818,-1.8572,0.0,0.0,0.0,0.0,0.0,0.0,-2.0342,-2.0364,-2.0364,-2.0364,-2.0364,-2.007,-1.9497,0.0,-2.0364,-2.0364,-2.0944,-2.123,-2.1208,-2.0629,-2.0364,-2.0364,-2.0364,-2.0042,-1.9565,-2.0116,-1.9656,-1.8572,-1.8572,0.0,0.0,-1.6716,-1.7436,-1.8938,-2.2639,-2.6724,-3.0917,-3.4854,-3.7246,-3.8906,-4.0156,-4.0957,-4.1699,-4.2793,-4.3555,-4.3848,-4.2988,-4.0976,-3.8359,-3.5098,-3.1527,-2.8299,-2.6082,-2.4259,-2.3105,-2.3313,-2.4583,-2.6229,-2.8201,-3.0537,-3.3301,-3.6738,-3.7988,-3.9121,-4.0644,-4.084,-4.0415,-3.927,-3.8778,-3.8072,-3.6914,-3.5533,-3.5454,-3.7147,-3.6233,-3.5182,-3.4181,-3.2877,-3.2022,-3.1717,-3.034,-2.9477,-2.9131,-2.7782,-2.695,-2.6582,-2.6438,-2.6111,-2.565,-2.565,-2.4911,-2.3695,-2.354,-2.2775,-2.1764,-2.1456,-2.1368,-2.1355,-2.1162,-2.1109,-2.1109,0.0,0.0,0.0,0.0,0.0,0.0,0.0,-1.5808,-1.5808,-1.5808,-1.5808,-1.5808,-1.5808,-1.6692,-1.7288,0.0,0.0,0.0,0.0,0.0,0.0,0.0,0.0,0.0,-1.9108,0.0,0.0,-1.8718,-1.8971,0.0,0.0,0.0,0.0,0.0,-1.9222,-1.9108,-1.9108,-1.9108,-1.8948,0.0,0.0,-1.8388,-1.7288,0.0,0.0,0.0,0.0,-1.6882,-1.8616,-2.057,-2.3761,-2.7795,-3.2811,-3.6607,-3.9223,-3.9258,-4.0705,-4.2221,-4.1865,-4.2988,-4.3937,-4.2628,-4.024,-3.7289,-3.3785,-2.9697,-2.6092,-2.4017,-2.1978,-2.0882,-2.183,-2.2952,-2.4205,-2.5621,-2.7938,-3.0656,-3.3676,-3.5218,-3.692,-3.9375,-3.9737,-3.9295,-3.8015,-3.7369,-3.6256,-3.4279,-3.3701,-3.411,-3.573,-3.3531,-3.2227,-3.2146,-3.1542,-3.1001,-3.0611,-2.8822,-2.7723,-2.7327,-2.5258,-2.4262,-2.4195,-2.3901,-2.3607,-2.3292,-2.326,-2.306,-2.2786,-2.2512,-2.2378,-2.2285,-2.185,-2.1676,-2.1649,-2.1341,-2.1203,-2.1189,0.0,0.0,0.0,0.0,0.0,0.0,0.0,-1.5808,-1.5808,-1.5808,-1.5808,-1.5808,-1.5808,-1.5903,-1.5974,0.0,0.0,0.0,0.0,0.0,0.0,0.0,0.0,0.0,0.0,0.0,0.0,-1.615,-1.7288,0.0,0.0,0.0,0.0,0.0,0.0,-1.787,-1.787,-1.787,0.0,0.0,0.0,0.0,0.0,0.0,0.0,0.0,0.0,-1.593,-1.6529,-1.937,-2.1122,-2.2688,-2.5886,-3.1532,-3.6758,-3.5558,-3.8386,-4.1212,-3.8216,-4.0511,-4.3137,-4.0414,-3.8309,-3.5956,-3.239,-2.8365,-2.4523,-2.1565,-2.0762,-2.0642,-2.0738,-2.142,-2.2482,-2.4141,-2.4896,-2.6355,-2.9519,-3.0992,-3.3039,-3.6546,-3.5997,-3.6,-3.7737,-3.5754,-3.4448,-3.4626,-3.277,-3.2121,-3.3171,-3.1277,-3.0028,-2.9726,-2.7933,-2.6692,-2.6118,-2.59,-2.5488,-2.4921,-2.4697,-2.4426,-2.4195,-2.3901,-2.3607,-2.3278,-2.3033,-2.2739,-2.2458,-2.2398,-2.2258,-2.2017,-2.1964,-2.1951,-2.1943,-2.1649,-2.1542,-2.1502,0.0,0.0,0.0,0.0,0.0,0.0,-1.5808,-1.5808,-1.5808,-1.5808,-1.5808,-1.5808,-1.5808,-1.5808,-1.5808,-1.5808,0.0,0.0,0.0,0.0,0.0,0.0,0.0,0.0,0.0,0.0,-1.6315,-1.5808,-1.6315,0.0,0.0,0.0,0.0,0.0,0.0,-1.6551,-1.6551,-1.6551,0.0,0.0,0.0,0.0,0.0,0.0,0.0,0.0,0.0,0.0,-1.597,-1.7159,-1.8631,-2.0143,-2.1036,-2.4892,-2.9438,-3.1352,-3.4012,-3.6261,-3.5892,-3.7556,-3.9026,-3.7439,-3.4988,-3.2311,-2.9741,-2.564,-2.207,-2.1048,-1.945,-1.8528,-1.9466,-2.0074,-2.0763,-2.1701,-2.2435,-2.3866,-2.6675,-2.7628,-2.9394,-3.3023,-3.3415,-3.3541,-3.3929,-3.3059,-3.1997,-3.0868,-2.9982,-2.9574,-2.9763,-2.8849,-2.8167,-2.786,-2.6726,-2.5932,-2.5518,-2.5344,-2.505,-2.4599,-2.4599,-2.4532,-2.4426,-2.4342,-2.4035,-2.3581,-2.3496,-2.3174,-2.2686,-2.2686,-2.2653,-2.2532,-2.2311,-2.2245,-2.2205,-2.1957,-2.1743,-2.1569,0.0,0.0,0.0,0.0,0.0,-1.5808,-1.5808,-1.5808,-1.5808,-1.5808,-1.5808,-1.5808,-1.5808,-1.5808,-1.5808,-1.5808,-1.5808,0.0,0.0,0.0,0.0,0.0,0.0,0.0,0.0,0.0,-1.5808,-1.5808,-1.5808,-1.5808,0.0,0.0,-1.5808,-1.5808,0.0,0.0,0.0,0.0,0.0,0.0,0.0,0.0,0.0,0.0,0.0,0.0,0.0,0.0,0.0,0.0,0.0,-1.7989,-1.7673,-1.948,-2.2521,-2.6591,-2.976,-3.2023,-3.2434,-3.4123,-3.5527,-3.4302,-3.2059,-2.9586,-2.7361,-2.3562,-2.0372,-1.9961,-1.8182,-1.707,-1.8246,-1.8751,-1.9118,-1.9441,-2.0113,-2.1332,-2.3403,-2.4265,-2.5992,-2.9418,-3.0034,-3.0342,-3.0821,-3.0607,-2.9815,-2.8305,-2.8179,-2.8058,-2.7709,-2.7469,-2.7175,-2.6787,-2.6305,-2.585,-2.5518,-2.5224,-2.493,-2.4599,-2.4599,-2.4599,-2.4599,-2.4506,-2.4289,-2.3924,-2.3714,-2.3394,-2.3027,-2.2934,-2.2893,-2.288,-2.2632,-2.2552,-2.2512,-2.2218,-2.1991,-2.1836,0.0,0.0,0.0,0.0,0.0,0.0,-1.5808,-1.5808,-1.5808,-1.5808,-1.5808,-1.5808,-1.5808,-1.5808,-1.5808,-1.5808,-1.5808,0.0,0.0,0.0,0.0,0.0,0.0,0.0,0.0,0.0,-1.5808,-1.5808,-1.5808,-1.5808,-1.5808,-1.5808,-1.5808,-1.5808,0.0,0.0,0.0,0.0,0.0,0.0,0.0,0.0,-1.5808,0.0,0.0,0.0,0.0,0.0,0.0,0.0,0.0,0.0,0.0,-1.607,-1.7159,-2.1205,-2.6057,-2.9609,-2.7168,-3.0178,-3.3477,-3.114,-2.9997,-2.8589,-2.5531,-2.2582,-1.9889,-1.77,-1.6965,-1.6819,-1.7139,-1.7434,-1.7608,-1.7635,-1.7862,-1.8384,-1.9338,-2.0721,-2.2772,-2.5814,-2.5278,-2.5991,-2.929,-2.8766,-2.8221,-2.8179,-2.8179,-2.8058,-2.7709,-2.7469,-2.7175,-2.6787,-2.6305,-2.585,-2.5518,-2.5224,-2.493,-2.4599,-2.4599,-2.4599,-2.4586,-2.4342,-2.4209,-2.4168,-2.3545,-2.3292,-2.3265,-2.3027,-2.2893,-2.2893,-2.2893,-2.2893,-2.2853,-2.2525,-2.2371,-2.2331,0.0,0.0,0.0,0.0,0.0,0.0,0.0,-1.5808,-1.5808,-1.5808,-1.5808,-1.5808,-1.5808,-1.5808,-1.5808,-1.5808,-1.5808,0.0,0.0,0.0,0.0,0.0,0.0,0.0,0.0,-1.5808,-1.5808,-1.5808,-1.5808,-1.5808,-1.5808,-1.5808,-1.5808,-1.5808,-1.5808,-1.5808,0.0,0.0,0.0,0.0,0.0,-1.5808,-1.5808,0.0,0.0,0.0,0.0,0.0,0.0,0.0,0.0,0.0,0.0,0.0,0.0,-1.7982,-2.0644,-2.303,-2.2828,-2.4407,-2.5852,-2.4911,-2.3899,-2.2822,-2.1629,-1.9906,-1.8308,-1.7606,-1.7234,-1.7127,-1.7421,-1.7381,-1.7448,-1.7809,-1.7782,-1.7969,-1.8692,-2.0057,-2.1786,-2.3927,-2.5908,-2.75,-2.855,-2.8369,-2.8179,-2.8179,-2.8179,-2.8138,-2.8045,-2.7722,-2.7335,-2.6841,-2.6066,-2.5611,-2.5518,-2.5024,-2.4693,-2.4599,-2.4599,-2.4599,-2.4599,-2.4506,-2.4359,-2.4195,-2.4008,-2.3665,-2.3278,-2.322,-2.306,-2.2893,-2.2893,-2.2893,-2.288,-2.2786,-2.2592,-2.2405,0.0,0.0,0.0,0.0,0.0,0.0,0.0,-1.5069,-1.4902,-1.44,-1.4328,-1.4328,-1.4328,-1.4328,-1.4328,-1.4328,-1.4328,0.0,0.0,0.0,0.0,0.0,0.0,0.0,-1.5808,-1.5808,-1.5808,-1.5808,-1.5808,-1.5808,-1.5808,-1.5808,-1.5808,-1.5808,-1.5808,-1.5808,0.0,0.0,0.0,0.0,-1.5808,-1.5808,-1.5808,0.0,0.0,0.0,0.0,0.0,0.0,0.0,0.0,0.0,0.0,0.0,0.0,0.0,-1.7368,-1.8758,-2.0094,-2.1096,-2.1697,-2.1403,-2.0615,-1.98,-1.9399,-1.833,-1.7474,-1.7582,-1.7381,-1.7286,-1.7555,-1.7461,-1.7461,-1.7782,-1.7782,-1.7969,-1.8571,-1.992,-2.1537,-2.3434,-2.5919,-2.7523,-2.7523,-2.7924,-2.8179,-2.8179,-2.8179,-2.8179,-2.8179,-2.7804,-2.7375,-2.7001,-2.6239,-2.5732,-2.5518,-2.5037,-2.4743,-2.4599,-2.4599,-2.4599,-2.4599,-2.4599,-2.4506,-2.4356,-2.4142,-2.3834,0.0,-2.3247,-2.3033,-2.2893,-2.2893,-2.2893,-2.2893,-2.2893,-2.2773,-2.2579,0.0,0.0,0.0,0.0,0.0,0.0,0.0,-1.3752,-1.3319,-1.2072,-1.1901,-1.1901,-1.1901,-1.1901,-1.1901,-1.1901,0.0,0.0,0.0,0.0,0.0,0.0,0.0,0.0,-1.5808,-1.5808,-1.5808,-1.5808,-1.5808,-1.5808,-1.5808,-1.5808,-1.5808,-1.5808,-1.5808,-1.5808,0.0,0.0,0.0,0.0,-1.5808,-1.5808,0.0,0.0,0.0,0.0,0.0,0.0,0.0,0.0,0.0,0.0,0.0,0.0,0.0,0.0,0.0,0.0,0.0,-1.9762,-2.0294,-1.9983,-1.9559,-1.9067,-1.849,-1.7755,0.0,-1.7501,-1.7354,-1.7286,-1.7555,-1.7595,-1.7608,-1.7689,-1.7862,-1.8236,-1.8863,-2.0304,-2.2071,-2.4088,-2.5625,-2.6493,-2.6426,-2.751,-2.8179,-2.8179,-2.8179,-2.8179,-2.8179,-2.7643,-2.7322,-2.7309,-2.672,-2.6132,-2.5545,-2.5237,-2.4943,-2.4626,-2.4613,-2.4599,-2.4599,-2.4572,-2.4572,-2.4532,-2.4008,-2.379,-2.3723,-2.3161,-2.292,-2.2893,-2.2893,-2.2893,-2.2893,-2.2893,-2.2893,-2.2893,0.0,0.0,0.0,0.0,0.0,0.0,0.0,0.0,0.0,0.0,-1.1901,-1.1901,-1.1901,-1.1901,-1.1901,0.0,0.0,0.0,0.0,0.0,0.0,0.0,0.0,0.0,-1.5784,-1.5808,-1.5808,-1.5808,-1.5808,-1.5808,-1.5808,-1.5808,-1.5808,-1.5808,-1.5808,-1.5808,0.0,0.0,0.0,0.0,-1.5808,-1.5808,0.0,0.0,0.0,0.0,-1.5808,-1.5808,0.0,0.0,0.0,0.0,0.0,0.0,0.0,0.0,-1.5848,-1.6008,-1.6502,0.0,-1.7314,-1.7247,-1.7275,-1.7301,0.0,-1.7167,-1.7152,-1.6941,-1.706,-1.7286,-1.7555,-1.7421,-1.7568,-1.8464,-1.8263,-1.8383,-1.9452,-2.183,-2.3995,-2.5422,-2.6881,-2.751,-2.6787,-2.7617,-2.8179,-2.8179,-2.8179,-2.8179,-2.8179,-2.7844,-2.7495,-2.7309,-2.6907,-2.644,-2.5891,-2.5382,-2.505,-2.497,-2.4706,-2.4599,-2.4586,-2.4409,-2.4302,-2.4289,-2.3928,-2.3647,-2.342,-2.3273,-2.3073,-2.2893,-2.2893,-2.2893,-2.2893,-2.2893,-2.2893,-2.2893,0.0,0.0,0.0,0.0,0.0,0.0,0.0,0.0,0.0,0.0,0.0,-1.0116,-1.0116,-1.0116,0.0,0.0,0.0,0.0,0.0,0.0,0.0,0.0,0.0,-1.3295,-1.4004,-1.4004,-1.4004,-1.4004,-1.4004,-1.4004,-1.4028,-1.4639,-1.4926,-1.4949,-1.5534,-1.5808,0.0,0.0,0.0,-1.5808,-1.5808,0.0,0.0,0.0,0.0,0.0,-1.5808,-1.5808,0.0,-1.5808,-1.5808,-1.5808,0.0,0.0,0.0,0.0,-1.5808,-1.5808,-1.5808,-1.6115,-1.6473,-1.6473,-1.6593,-1.674,-1.6874,-1.6846,-1.6805,-1.6913,-1.706,-1.7286,-1.7555,-1.7474,-1.7675,-1.8571,-1.8543,-1.897,-2.0575,-2.2539,-2.4342,-2.5824,-2.6934,-2.755,-2.7428,-2.7898,-2.8179,-2.8179,-2.8179,-2.8125,-2.7991,-2.7655,-2.7362,-2.7068,-2.6774,-2.6413,-2.5998,-2.5504,-2.5211,-2.5115,-2.4783,-2.4599,-2.4586,-2.4342,-2.4209,-2.4195,-2.3937,-2.371,-2.3514,-2.3345,-2.322,-2.3073,-2.3073,-2.3073,-2.3086,-2.3268,-2.3308,-2.3295,0.0,0.0,0.0,0.0,0.0,0.0,0.0,0.0,0.0,0.0,0.0,0.0,0.0,0.0,0.0,0.0,0.0,0.0,0.0,0.0,0.0,0.0,-1.1512,-1.1707,-1.1901,-1.1901,-1.1901,-1.1901,-1.1932,-1.1932,-1.1926,-1.3098,-1.3715,-1.3944,-1.4806,-1.532,0.0,0.0,-1.532,-1.551,-1.551,0.0,0.0,0.0,0.0,0.0,0.0,0.0,0.0,-1.5808,-1.5808,-1.5808,-1.5808,0.0,0.0,0.0,0.0,0.0,-1.5915,-1.6395,-1.686,-1.6687,-1.678,-1.6941,-1.7086,-1.6792,-1.6618,-1.7045,-1.7206,-1.734,-1.7568,-1.7715,-1.7969,-1.8558,-1.9052,-2.0094,-2.2111,-2.3166,-2.4302,-2.5877,-2.6613,-2.7268,-2.7924,-2.8098,-2.8179,-2.8179,-2.8138,-2.8005,-2.7709,-2.7375,-2.7081,-2.6827,-2.6493,-2.6265,-2.6065,-2.5678,-2.5371,-2.5115,-2.4783,-2.4599,-2.4586,-2.4342,-2.4182,-2.4115,-2.3834,-2.371,-2.3656,-2.3354,-2.326,-2.3225,-2.3278,-2.3265,-2.3265,-2.3683,-2.3777,-2.3661,0.0,0.0,0.0,0.0,0.0,0.0,0.0,0.0,0.0,0.0,0.0,0.0,0.0,0.0,0.0,0.0,0.0,0.0,0.0,0.0,0.0,-0.8577,-0.9682,-1.0803,-1.1877,-1.1901,-1.1901,-1.1901,-1.2083,-1.2073,-1.1901,-1.228,-1.2973,-1.3848,-1.2909,-1.3127,-1.4124,-1.2993,-1.3151,-1.4196,-1.4196,0.0,0.0,0.0,0.0,0.0,0.0,0.0,0.0,-1.5808,-1.5808,-1.5808,-1.5808,0.0,0.0,0.0,0.0,0.0,-1.6408,-1.7181,-1.7582,-1.6605,-1.7101,-1.7622,-1.6941,-1.7088,-1.7287,-1.686,-1.7168,-1.7555,-1.7595,-1.821,-1.8824,-1.9201,-2.0521,-2.2151,-2.3945,-2.4997,-2.5784,-2.6266,-2.7322,-2.7737,-2.7081,-2.7737,-2.8179,-2.8179,-2.7951,-2.7749,-2.7696,-2.7188,-2.6867,-2.6787,-2.6306,-2.6158,-2.6319,-2.5785,-2.5371,-2.5115,-2.4783,-2.4599,-2.4586,-2.4342,-2.4075,-2.3857,-2.3527,-2.3247,-2.3027,-2.2987,-2.2974,-2.2987,-2.322,-2.3166,-2.3041,-2.3603,-2.3607,-2.3359,0.0,0.0,0.0,0.0,0.0,0.0,0.0,0.0,0.0,0.0,0.0,0.0,0.0,0.0,0.0,0.0,0.0,0.0,0.0,0.0,-0.7988,-0.7988,-0.8577,-0.9188,-0.9772,-0.9797,-0.9797,-0.9797,-0.988,-0.988,-0.9805,-1.0623,-1.1673,-1.2788,-1.2193,-1.2242,-1.2788,-1.2159,-1.2256,-1.2813,0.0,0.0,0.0,0.0,0.0,0.0,0.0,0.0,0.0,0.0,-1.5248,-1.5808,-1.5808,0.0,0.0,0.0,0.0,0.0,-1.6128,-1.6994,-1.7609,-1.6939,-1.7635,-1.8303,-1.7569,-1.7515,-1.7595,-1.7662,-1.7756,-1.7929,-1.825,-1.8771,-1.9519,-2.0632,-2.2037,-2.3287,-2.4262,-2.5024,-2.5743,-2.6319,-2.7001,-2.7455,-2.7535,-2.7951,-2.8179,-2.8179,-2.7911,-2.7629,-2.7468,-2.7054,-2.668,-2.636,-2.6131,-2.5904,-2.5678,-2.5411,-2.5291,-2.5304,-2.4813,-2.4599,-2.4586,-2.4342,-2.4048,-2.3803,-2.3621,-2.3394,-2.3113,-2.3113,-2.3113,-2.314,-2.3447,-2.3474,-2.3455,-2.4022,-2.4048,-2.3808,0.0,0.0,0.0,0.0,0.0,0.0,0.0,0.0,0.0,0.0,0.0,0.0,0.0,0.0,0.0,0.0,0.0,0.0,0.0,-0.7988,-0.7988,-0.7988,-0.7988,-0.7988,-0.7988,-0.7988,-0.7988,-0.7988,-0.8047,-0.8067,-0.8092,-0.9063,-1.0215,-1.1439,-1.1121,-1.117,-1.1439,-1.1121,-1.117,-1.1463,0.0,0.0,0.0,0.0,0.0,0.0,0.0,0.0,0.0,0.0,0.0,0.0,0.0,0.0,0.0,-1.5808,-1.5808,-1.5835,-1.5968,-1.6794,-1.7555,-1.7327,-1.809,-1.8796,-1.8409,-1.817,-1.8197,-1.8771,-1.8689,-1.8649,-1.9036,-1.9479,-2.0365,-2.2031,-2.3335,-2.4285,-2.4743,-2.5317,-2.6011,-2.6707,-2.7001,-2.7402,-2.8125,-2.8179,-2.8152,-2.8085,-2.7804,-2.7468,-2.7215,-2.6814,-2.6453,-2.6105,-2.5891,-2.5636,-2.5329,-2.5077,-2.509,-2.5266,-2.4813,-2.4599,-2.4586,-2.4342,-2.4048,-2.3803,-2.3736,-2.35,-2.322,-2.322,-2.322,-2.326,-2.3621,-2.3884,-2.4022,-2.4396,-2.4396,-2.4209,0.0,0.0,0.0,0.0,0.0,0.0,0.0,0.0,0.0,0.0,0.0,0.0,0.0,0.0,0.0,0.0,0.0,0.0,0.0,-0.7988,-0.7988,-0.7988,-0.7988,-0.7988,-0.7988,-0.7988,-0.7988,-0.7988,-0.818,-0.8281,-0.8274,-0.8181,-0.885,-1.0076,-0.885,-0.8973,-1.0067,-0.88,-0.8998,-1.0141,-1.0141,0.0,0.0,0.0,0.0,0.0,0.0,0.0,0.0,0.0,0.0,0.0,0.0,0.0,-1.5808,-1.5808,-1.5808,-1.5928,-1.6475,-1.7101,-1.7608,-1.7582,-1.8237,-1.8956,-1.9254,-1.9281,-1.9428,-1.9957,-2.0064,-1.9983,-1.9773,-2.0428,-2.1483,-2.2945,-2.4222,-2.5371,-2.648,-2.7134,-2.7629,-2.8018,-2.8085,-2.8112,-2.8179,-2.8179,-2.8072,-2.7749,-2.7455,-2.7175,-2.6867,-2.6319,-2.6158,-2.6346,-2.561,-2.5422,-2.5931,-2.5077,-2.4639,-2.4666,-2.4626,-2.4599,-2.4586,-2.4342,-2.4048,-2.379,-2.3474,-2.318,-2.2934,-2.2934,-2.2934,-2.2987,-2.3576,-2.4102,-2.4506,-2.4315,-2.4222,-2.4209,0.0,0.0,0.0,0.0,0.0,0.0,0.0,0.0,0.0,0.0,0.0,0.0,0.0,0.0,0.0,0.0,0.0,0.0,0.0,-0.7988,-0.7988,-0.7988,-0.7988,-0.7988,-0.7988,-0.7988,-0.7988,-0.7988,-0.8074,-0.8101,-0.8101,-0.804,-0.8262,-0.8726,-0.8237,-0.8287,-0.8726,-0.8212,-0.8287,-0.8751,-0.8751,-0.9048,0.0,0.0,0.0,0.0,0.0,0.0,0.0,0.0,-1.1891,-1.3282,-1.2813,-1.356,-1.4627,-1.4627,-1.5188,-1.5848,-1.6075,-1.6969,-1.7796,-1.7635,-1.8397,-1.9225,-1.9374,-1.9963,-2.0561,-2.1007,-2.1336,-2.151,-2.1216,-2.1577,-2.2352,-2.3661,-2.501,-2.6172,-2.6987,-2.7643,-2.8058,-2.8165,-2.8179,-2.8112,-2.7924,-2.7911,-2.7791,-2.7455,-2.7161,-2.6934,-2.6827,-2.644,-2.6106,-2.5852,-2.5518,-2.5277,-2.5144,-2.4773,-2.4599,-2.4599,-2.4599,-2.4506,-2.4369,-2.4249,-2.4048,-2.3803,-2.3647,-2.3541,-2.3455,-2.3455,-2.3455,-2.3509,-2.3875,-2.4289,-2.4586,-2.4479,-2.4439,-2.4439,0.0,0.0,0.0,0.0,0.0,0.0,0.0,0.0,0.0,0.0,0.0,0.0,0.0,0.0,0.0,0.0,0.0,0.0,-0.7988,-0.7988,-0.7988,-0.7988,-0.7988,-0.7988,-0.7988,-0.7988,-0.7988,-0.7988,-0.7988,-0.7988,-0.7988,-0.7988,-0.804,-0.8088,-0.8033,-0.804,-0.8081,-0.8033,-0.7988,-0.7988,-0.7988,-0.7988,0.0,0.0,0.0,0.0,0.0,0.0,0.0,0.0,-1.0509,-1.1828,-1.1439,-1.2207,-1.3271,-1.3271,-1.4196,-1.5188,-1.5188,-1.6374,-1.7569,-1.7501,-1.8371,-1.9401,-1.9963,-2.0712,-2.147,-2.2265,-2.2565,-2.2619,-2.2311,-2.2498,-2.3025,-2.4168,-2.5491,-2.6627,-2.7349,-2.771,-2.7938,-2.8031,-2.7965,-2.7831,-2.7575,-2.7562,-2.7442,-2.7148,-2.6934,-2.6747,-2.656,-2.6266,-2.5932,-2.5518,-2.5331,-2.5053,-2.4746,-2.4653,-2.4599,-2.4599,-2.4599,-2.4492,-2.4342,-2.4249,-2.4102,-2.3937,-2.3843,-2.3803,-2.3803,-2.3803,-2.3857,-2.3928,-2.4128,-2.4346,-2.4599,-2.4599,-2.4599,-2.4599,0.0,0.0,0.0,0.0,0.0,0.0,0.0,0.0,0.0,0.0,0.0,0.0,0.0,0.0,0.0,0.0,0.0,0.0,-0.7988,-0.7988,-0.7988,-0.7988,-0.7988,-0.7988,-0.7988,-0.7988,-0.7988,-0.7988,-0.7988,-0.7988,-0.7988,-0.7988,-0.8101,-0.8287,-0.8081,-0.8101,-0.8281,-0.8081,-0.7988,-0.7988,-0.7988,-0.7988,-0.7988,0.0,0.0,0.0,0.0,0.0,0.0,0.0,-0.9731,-1.1634,-1.0386,-1.0852,-1.1877,-1.1877,-1.2837,-1.3908,-1.3908,-1.528,-1.678,-1.7139,-1.8063,-1.9399,-2.1194,-2.1628,-2.2091,-2.3848,-2.3741,-2.3247,-2.2974,-2.314,-2.3585,-2.4466,-2.5625,-2.6694,-2.7562,-2.7483,-2.7416,-2.7655,-2.7442,-2.7309,-2.7309,-2.7309,-2.7175,-2.68,-2.6774,-2.656,-2.6024,-2.5678,-2.5518,-2.5504,-2.4906,-2.4783,-2.5077,-2.4746,-2.4599,-2.4599,-2.4599,-2.4599,-2.4586,-2.4329,-2.4195,-2.4182,-2.3888,-2.3803,-2.3817,-2.3817,-2.3941,-2.4209,-2.4209,-2.4382,-2.4599,-2.4599,-2.4599,-2.4599,0.0,0.0,0.0,0.0,0.0,0.0,0.0,0.0,0.0,0.0,0.0,0.0,0.0,0.0,0.0,0.0,0.0,0.0,-0.7988,-0.7988,-0.7988,-0.7988,-0.7988,-0.7988,-0.7988,-0.7988,-0.7988,-0.7988,-0.7988,-0.7988,-0.7988,-0.8153,-0.8167,-0.8088,-0.8174,-0.8167,-0.8081,-0.8033,-0.8074,-0.8201,-0.8201,-0.8201,-0.8201,0.0,0.0,0.0,0.0,0.0,0.0,0.0,0.0,0.0,-0.8701,-0.9628,-1.0814,-1.0614,-1.2448,-1.4472,-1.4248,-1.5708,-1.7474,-1.7996,-1.916,-2.0592,-2.2158,-2.2184,-2.2452,-2.4446,-2.4516,-2.4252,-2.4432,-2.4329,-2.4359,-2.4877,-2.5758,-2.6547,-2.7014,-2.7188,-2.7336,-2.7429,-2.7362,-2.7229,-2.6974,-2.6961,-2.6827,-2.6547,-2.6333,-2.6172,-2.6011,-2.5678,-2.5424,-2.5211,-2.4836,-2.4639,-2.477,-2.4476,-2.4329,-2.4329,-2.4506,-2.4492,-2.4329,-2.4035,-2.4008,-2.4168,-2.3674,-2.3808,-2.4346,-2.4346,-2.4399,-2.4466,-2.4466,-2.4519,-2.4599,-2.4599,-2.4599,-2.4599,0.0,0.0,0.0,0.0,0.0,0.0,0.0,0.0,0.0,0.0,-0.7988,-0.7988,0.0,0.0,0.0,0.0,0.0,0.0,0.0,-0.7988,-0.7988,-0.7988,-0.7988,-0.7988,-0.7988,-0.7988,-0.7988,-0.7988,-0.7988,-0.7988,-0.7995,-0.8255,-0.8336,-0.8284,-0.8404,-0.8391,-0.8277,-0.8216,-0.8269,-0.8389,-0.8444,-0.8471,-0.8464,0.0,0.0,0.0,0.0,0.0,0.0,0.0,0.0,0.0,-0.7988,-0.8657,-0.9544,-1.0029,-1.1827,-1.3793,-1.4476,-1.6086,-1.7836,-1.8771,-2.0057,-2.1435,-2.292,-2.3581,-2.4262,-2.5518,-2.5451,-2.5184,-2.5237,-2.501,-2.4943,-2.5396,-2.6011,-2.6533,-2.6947,-2.6947,-2.6961,-2.7081,-2.6921,-2.672,-2.6493,-2.6373,-2.6226,-2.6052,-2.5879,-2.577,-2.565,-2.5438,-2.5157,-2.4743,-2.4639,-2.4546,-2.4426,-2.4409,-2.4382,-2.4382,-2.4519,-2.4506,-2.4369,-2.4075,-2.4102,-2.4356,-2.3959,-2.4106,-2.4599,-2.4599,-2.4599,-2.4599,-2.4599,-2.4599,-2.4599,-2.4599,-2.4599,-2.4599,0.0,0.0,0.0,0.0,0.0,0.0,0.0,0.0,0.0,0.0,-0.7988,-0.7988,0.0,0.0,0.0,0.0,0.0,0.0,0.0,-0.7988,-0.7988,-0.7988,-0.7988,-0.7995,-0.8033,-0.7995,-0.7988,-0.7988,-0.7988,-0.7995,-0.804,-0.8364,-0.8574,-0.871,-0.8723,-0.8716,-0.8676,-0.8526,-0.8492,-0.8505,-0.8628,-0.8689,-0.8676,-0.8533,0.0,0.0,0.0,0.0,0.0,0.0,0.0,0.0,-0.8033,-0.8047,-0.8324,-0.9777,-1.097,-1.2257,-1.4286,-1.6138,-1.7821,-1.9327,-2.0801,-2.2291,-2.375,-2.5504,-2.6787,-2.668,-2.6346,-2.5998,-2.5678,-2.5398,-2.5409,-2.5944,-2.6252,-2.6573,-2.7148,-2.676,-2.6493,-2.6747,-2.6293,-2.5998,-2.5998,-2.5692,-2.5518,-2.5518,-2.5464,-2.5331,-2.509,-2.5061,-2.4756,-2.4222,-2.4399,-2.4399,-2.4168,-2.4396,-2.4479,-2.4479,-2.4506,-2.4506,-2.4479,-2.4302,-2.4329,-2.4519,-2.4546,-2.4559,-2.4559,-2.4586,-2.4599,-2.4599,-2.4599,-2.4599,-2.4599,-2.4599,-2.4599,-2.4599,0.0,0.0,0.0,0.0,0.0,0.0,0.0,0.0,0.0,0.0,0.0,0.0,0.0,0.0,0.0,0.0,0.0,0.0,0.0,-0.7988,-0.7988,-0.7988,-0.7988,-0.8074,-0.8247,-0.8074,-0.7988,-0.7988,-0.7988,-0.8074,-0.8253,-0.8526,-0.8676,-0.8716,-0.8811,-0.873,-0.852,-0.8403,-0.8342,-0.8355,-0.8498,-0.8533,-0.8526,-0.8519,-0.8417,0.0,0.0,0.0,0.0,0.0,0.0,0.0,-0.8247,-0.8296,-0.8448,-0.8673,-0.9866,-1.1256,-1.1955,-1.4227,-1.6792,-1.8367,-2.1582,-2.4649,-2.5879,-2.668,-2.6907,-2.5985,-2.6239,-2.6613,-2.6507,-2.6306,-2.6146,-2.6279,-2.6346,-2.644,-2.656,-2.6466,-2.6413,-2.648,-2.6212,-2.5998,-2.5998,-2.5692,-2.5518,-2.5518,-2.5053,-2.4866,-2.5077,-2.4636,-2.4329,-2.4209,-2.4048,-2.3928,-2.3897,-2.3688,-2.3572,-2.3572,-2.3848,-2.3834,-2.3585,-2.4022,-2.4115,-2.3968,-2.4195,-2.4302,-2.4315,-2.4506,-2.4599,-2.4599,-2.4599,-2.4599,-2.4599,-2.4599,-2.4599,-2.4599,0.0,0.0,0.0,0.0,0.0,0.0,0.0,0.0,0.0,0.0,0.0,0.0,0.0,0.0,0.0,0.0,0.0,0.0,0.0,0.0,-0.7988,-0.7988,-0.7988,-0.8054,-0.816,-0.8054,-0.8047,-0.8147,-0.8147,-0.8228,-0.8403,-0.8777,-0.896,-0.9035,-0.9117,-0.8981,-0.8689,-0.854,-0.8479,-0.8492,-0.8642,-0.8743,-0.8811,-0.8648,-0.8526,-0.8389,-0.8321,0.0,0.0,0.0,0.0,0.0,0.0,0.0,-0.8636,-0.9335,-1.0126,-1.1058,-1.2218,-1.3883,-1.5766,-1.773,-2.1053,-2.3791,-2.3564,-2.4429,-2.5105,-2.4499,-2.5569,-2.6613,-2.6613,-2.6373,-2.6225,-2.6225,-2.6225,-2.6132,-2.5985,-2.6092,-2.6172,-2.5985,-2.5838,-2.573,-2.5583,-2.5264,-2.5037,-2.4903,-2.4596,-2.4436,-2.4486,-2.4168,-2.3928,-2.3781,-2.3781,-2.3701,-2.3554,-2.3541,-2.3541,-2.3541,-2.3736,-2.3723,-2.3554,-2.3861,-2.3834,-2.3581,-2.4008,-2.4209,-2.4222,-2.4479,-2.4599,-2.4599,-2.4599,-2.4031,-2.3153,-2.3153,-2.2546,-2.1714,0.0,0.0,0.0,0.0,0.0,0.0,0.0,0.0,0.0,0.0,0.0,0.0,0.0,0.0,0.0,0.0,0.0,0.0,0.0,0.0,0.0,-0.8054,-0.8027,-0.8027,-0.8054,-0.8054,-0.814,-0.8294,-0.8349,-0.8471,-0.8675,-0.9049,-0.9301,-0.9451,-0.9451,-0.9252,-0.8933,-0.8757,-0.8682,-0.8648,-0.877,-0.892,-0.9002,-0.873,-0.8554,-0.8457,-0.8342,-0.8315,-0.8355,-0.8506,0.0,0.0,0.0,0.0,-0.8769,-1.0103,-1.0392,-1.0704,-1.2525,-1.3635,-1.487,-1.7304,-1.9913,-2.153,-2.0187,-2.1249,-2.2516,-2.2522,-2.4249,-2.5872,-2.6267,-2.6118,-2.5917,-2.5917,-2.5917,-2.5837,-2.5545,-2.5718,-2.5669,-2.5072,-2.5235,-2.5192,-2.4639,-2.4534,-2.4426,-2.4222,-2.4102,-2.3968,-2.3817,-2.3763,-2.3554,-2.326,-2.3541,-2.3527,-2.3145,-2.3179,-2.3147,-2.3147,-2.2814,-2.285,-2.3147,-2.2814,-2.2953,-2.3465,-2.3941,-2.4182,-2.4266,-2.4124,-2.4068,-2.4068,-2.3685,-2.2546,-2.1066,-2.1066,-2.0042,-1.861,0.0,0.0,0.0,0.0,0.0,0.0,0.0,0.0,0.0,0.0,-0.7988,-0.7988,0.0,0.0,0.0,0.0,0.0,0.0,-0.7988,0.0,0.0,-0.826,-0.8088,-0.8074,-0.826,-0.8267,-0.8274,-0.8294,-0.8526,-0.8859,-0.9294,-0.9349,-0.9435,-0.9578,-0.9578,-0.9408,-0.9138,-0.8832,-0.856,-0.8369,-0.8512,-0.8505,-0.841,-0.8369,-0.8342,-0.8321,-0.8301,-0.8376,-0.8526,-0.8757,-0.8852,0.0,0.0,0.0,-0.8538,-0.8769,-0.8737,-0.8763,-0.9386,-1.1687,-1.4547,-1.7238,-1.8698,-1.9523,-1.9671,-2.0047,-2.03,-2.0174,-2.1772,-2.3769,-2.5687,-2.5772,-2.5571,-2.5571,-2.5571,-2.5558,-2.5518,-2.5545,-2.488,-2.3111,-2.4239,-2.4425,-2.2597,-2.351,-2.4249,-2.4209,-2.3728,-2.3541,-2.379,-2.3527,-2.3247,-2.2974,-2.322,-2.3078,-2.2552,-2.1261,-2.0587,-2.0587,-1.8898,-1.8968,-2.0552,-1.8863,-2.0261,-2.4075,-2.3901,-2.4115,-2.4422,-2.2682,-2.2012,-2.1826,-2.008,-1.9252,-1.8988,-1.8988,-1.8837,-1.861,0.0,0.0,0.0,0.0,0.0,0.0,0.0,0.0,0.0,0.0,0.0,-0.7988,0.0,0.0,0.0,-0.7988,-0.7988,-0.7988,-0.7988,-0.7988,-0.8047,-0.814,-0.8047,-0.8088,-0.8294,-0.8294,-0.8376,-0.852,-0.8648,-0.8981,-0.951,-0.968,-0.9876,-1.0093,-0.9961,-0.9723,-0.9388,-0.8973,-0.8716,-0.852,-0.8587,-0.8621,-0.8628,-0.8478,-0.8471,-0.8506,-0.8444,-0.8512,-0.8655,-0.896,-0.9055,-0.9055,-0.9055,0.0,0.0,0.0,-0.8567,-0.8635,-0.9142,-1.0548,-1.2244,-1.3856,-1.5603,-1.6716,-1.5954,-1.6845,-1.7799,-1.7747,-1.8307,-1.9904,-2.3385,-2.3779,-2.3896,-2.5075,-2.5277,-2.5211,-2.5013,-2.4149,-2.3125,-2.2017,-2.1705,-2.1132,-2.0047,-2.043,-2.0748,-2.0664,-2.0364,-2.0156,-2.0085,-1.9878,-1.9715,-1.9599,-1.9633,-1.9575,-1.9391,-1.8706,-1.8413,-1.8438,-1.7599,-1.7634,-1.8449,-1.7599,-1.8928,-2.1847,-2.0899,-2.0617,-2.0812,-2.0195,-1.993,-1.9817,-1.895,-1.7891,-1.6866,-1.6866,-1.6151,-1.5165,0.0,0.0,0.0,0.0,0.0,0.0,0.0,0.0,0.0,0.0,0.0,0.0,0.0,0.0,0.0,0.0,-0.7988,-0.7988,-0.7988,-0.7988,-0.7988,-0.7988,-0.8054,-0.8153,-0.8294,-0.8369,-0.8492,-0.871,-0.8784,-0.913,-0.9697,-0.9994,-1.0333,-1.0704,-1.0403,-1.009,-0.9754,-0.9271,-0.9014,-0.8927,-0.8771,-0.873,-0.8777,-0.8615,-0.8608,-0.8696,-0.8581,-0.8662,-0.8859,-0.9104,-0.9234,-0.9233,-0.9221,-0.9028,0.0,0.0,0.0,-0.8723,-0.9257,-0.9768,-1.027,-1.0941,-1.2725,-1.3995,-1.2745,-1.3908,-1.5255,-1.5255,-1.5112,-1.6164,-2.0015,-2.0915,-2.1566,-2.3067,-2.3328,-2.3215,-2.2977,-2.1849,-2.074,-1.9907,-1.9122,-1.8353,-1.7575,-1.7809,-1.7969,-1.786,-1.7694,-1.7465,-1.7223,-1.707,-1.6963,-1.6902,-1.6831,-1.6834,-1.6845,-1.6476,-1.6094,-1.573,-1.575,-1.6025,-1.6474,-1.599,-1.6826,-1.86,-1.8083,-1.7921,-1.8006,-1.7805,-1.7756,-1.7767,-1.7171,-1.6025,-1.4736,-1.4696,-1.3761,-1.2501,0.0,0.0,0.0,0.0,0.0,0.0,0.0,0.0,0.0,0.0,0.0,0.0,-0.7988,-0.7988,-0.7988,-0.7988,-0.7988,-0.7988,-0.7988,-0.7988,-0.7988,-0.7988,-0.818,0.0,-0.8294,-0.8547,-0.8696,-0.871,-0.9022,-0.9435,-0.997,-1.0331,-1.0785,-1.1328,-1.088,-1.0521,-1.0215,-0.9768,-0.9571,-0.951,-0.894,-0.8628,-0.852,-0.8648,-0.8703,-0.871,-0.8703,-0.8913,-0.9187,-0.9207,-0.9281,-0.9376,-0.9226,-0.8981,-0.8669,0.0,0.0,0.0,-0.8825,-0.9271,-0.9754,-1.0254,-1.0988,-1.1646,-1.1809,-1.2285,-1.2677,-1.2677,-1.2786,-1.3461,-1.5484,-1.7293,-1.8494,-1.8472,-1.8477,-1.8467,-1.842,-1.8459,-1.7734,-1.5688,-1.7157,-1.7529,-1.5467,-1.6757,-1.7709,-1.7709,-1.7399,-1.7233,-1.7213,-1.707,-1.6892,-1.6645,-1.6759,-1.6681,-1.642,-1.503,-1.3464,-1.172,-1.183,-1.2817,-1.4503,-1.271,-1.2924,-1.4796,-1.6823,-1.7943,-1.8124,-1.6111,-1.5452,-1.5468,-1.3274,-1.2515,-1.2635,-1.2498,-1.2463,-1.2501,0.0,0.0,0.0,0.0,0.0,0.0,0.0,0.0,0.0,0.0,0.0,0.0,0.0,-0.7988,-0.7988,-0.7988,-0.7988,-0.8054,-0.818,-0.8187,-0.8228,-0.8316,-0.8403,-0.8478,-0.8554,-0.8655,-0.873,-0.8831,-0.894,-0.9273,-0.9744,-1.0035,-1.0426,-1.0819,-1.0819,-1.0718,-1.0534,-1.0055,-0.9805,-0.9677,-0.9306,-0.9164,-0.9171,-0.8838,-0.8893,-0.9117,-0.8899,-0.911,-0.9449,-0.9449,-0.9483,-0.9503,-0.9376,-0.9028,-0.8655,-0.8383,-0.843,-0.8608,-0.8838,-0.9169,-0.9571,-1.005,-1.0506,-1.0894,-1.1164,-1.1644,-1.2047,-1.1952,-1.2128,-1.2478,-1.3021,-1.4919,-1.6796,-1.8017,-1.8153,-1.8097,-1.8097,-1.7023,-1.5929,-1.5085,-1.4407,-1.3743,-1.3029,-1.3403,-1.3718,-1.3906,-1.3726,-1.3582,-1.3463,-1.3357,-1.318,-1.2944,-1.2892,-1.2885,-1.2874,-1.257,-1.2086,-1.1396,-1.1545,-1.1936,-1.2567,-1.19,-1.1972,-1.2653,-1.3525,-1.4058,-1.4252,-1.3672,-1.3503,-1.3476,-1.2685,-1.2406,-1.2494,-1.2447,-1.2461,-1.2501,0.0,0.0,0.0,0.0,0.0,0.0,0.0,0.0,0.0,-0.7988,0.0,0.0,0.0,0.0,-0.8033,-0.8088,-0.8135,-0.8228,-0.8362,-0.8369,-0.841,-0.8505,-0.8533,-0.8608,-0.871,-0.871,-0.8757,-0.8912,-0.8912,-0.9163,-0.9686,-0.993,-1.0236,-1.0575,-1.0691,-1.0819,-1.0921,-1.0542,-1.0365,-1.0229,-0.9727,-0.9652,-0.9788,-0.9388,-0.9483,-0.9795,-0.9496,-0.9612,-0.9876,-0.968,-0.9578,-0.9503,-0.9383,-0.9022,-0.8594,-0.8423,-0.8554,-0.877,-0.8825,-0.9117,-0.9492,-0.9846,-1.0084,-1.0304,-1.0671,-1.1103,-1.1421,-1.1463,-1.1708,-1.1898,-1.1807,-1.3,-1.4437,-1.581,-1.5976,-1.5931,-1.5931,-1.4768,-1.3873,-1.3734,-1.2409,-1.1558,-1.1599,-1.143,-1.1396,-1.1592,-1.1518,-1.1423,-1.1356,-1.1172,-1.1023,-1.084,-1.0738,-1.0738,-1.084,-1.1165,-1.1314,-1.1349,-1.1518,-1.1584,-1.1584,-1.1584,-1.1584,-1.1626,-1.1732,-1.1918,-1.2118,-1.2271,-1.2413,-1.2488,-1.2393,-1.2413,-1.2494,-1.2447,-1.2461,-1.2501,0.0,0.0,0.0,0.0,0.0,0.0,0.0,0.0,-0.7988,-0.7988,0.0,0.0,0.0,0.0,0.0,-0.8287,-0.843,-0.8512,-0.8512,-0.8512,-0.8519,-0.8526,-0.8635,-0.8716,-0.8716,-0.8716,-0.8764,-0.8912,-0.8912,-0.921,-0.9785,-0.9995,-1.0308,-1.0671,-1.0561,-1.0826,-1.1362,-1.124,-1.1179,-1.1118,-1.0188,-1.0019,-1.0329,-1.0276,-1.0453,-1.0677,-1.0385,-1.0378,-1.0419,-0.9829,-0.9537,-0.941,-0.9233,-0.8879,-0.8519,-0.8519,-0.8703,-0.8885,0.0,0.0,0.0,-0.9557,-0.9598,-0.9754,-1.0331,-1.0588,-1.0785,-1.1118,-1.1382,-1.164,-1.1746,-1.1579,-1.1436,-1.1586,-1.1606,-1.1606,-1.1577,-1.157,-1.1552,-1.1409,-1.1382,-1.1356,-1.1213,-1.1193,-1.1193,-1.12,-1.12,-1.1193,-1.1193,-1.0988,-1.084,-1.0691,-1.0684,-1.0691,-1.0691,-1.1016,-1.12,-1.1206,-1.1477,-1.1584,-1.1584,-1.1584,-1.1584,-1.1626,-1.1732,-1.1918,-1.2091,-1.2104,-1.2275,-1.2467,-1.222,-1.2288,-1.2488,-1.2345,-1.2386,-1.2501,0.0,0.0,0.0,0.0,0.0,-0.7988,-0.7988,-0.7988,-0.7988,0.0,0.0,0.0,-0.8208,-0.8296,-0.8377,-0.8444,-0.8485,-0.8526,-0.8642,-0.8648,-0.8696,-0.8777,-0.8825,-0.8845,-0.8845,-0.8845,-0.8872,-0.8912,-0.8912,-0.9102,-0.9503,-0.9659,-0.9971,-1.0412,-1.0582,-1.0751,-1.0887,-1.0669,-1.0805,-1.1132,-1.0272,-1.0265,-1.0671,-1.0123,-1.0202,-1.0527,-1.0344,-1.0514,-1.0732,-1.0378,-1.0222,-1.0097,-0.9403,-0.9022,-0.8764,-0.8682,-0.8859,-0.909,-0.8885,0.0,0.0,0.0,0.0,0.0,-0.9788,-1.0021,-1.0285,-1.0616,-1.0833,-1.105,-1.1301,-1.1315,-1.1274,-1.1315,-1.1322,-1.1328,-1.1436,-1.1362,-1.1314,-1.1382,-1.1199,-1.1097,-1.1193,-1.107,-1.105,-1.1193,-1.12,-1.1152,-1.0982,-1.0833,-1.0732,-1.0691,-1.0684,-1.0738,-1.0846,-1.107,-1.1254,-1.1363,-1.1525,-1.1584,-1.1584,-1.1584,-1.1584,-1.1626,-1.1732,-1.182,-1.1911,-1.2135,-1.2277,-1.2352,-1.2372,-1.2427,-1.2494,-1.2461,-1.2467,-1.2501,0.0,0.0,0.0,-0.8101,-0.8133,-0.8153,-0.8189,-0.8196,-0.8196,0.0,0.0,0.0,-0.8471,-0.8668,-0.8764,-0.8676,-0.8757,-0.8805,-0.8777,-0.8777,-0.8818,-0.8906,-0.8912,-0.894,-0.9028,-0.894,-0.894,-0.9028,-0.9028,-0.915,-0.9417,-0.9537,-0.9781,-1.0093,-1.0238,-1.0346,-1.0393,-1.0188,-1.0473,-1.1036,-1.0569,-1.0677,-1.1049,-1.0643,-1.0751,-1.1152,-1.0914,-1.1043,-1.1205,-1.0751,-1.046,-1.0181,-0.9499,-0.9273,-0.9237,-0.9055,-0.9198,0.0,0.0,0.0,-0.9469,-0.9471,0.0,0.0,-0.9632,-0.9704,-0.9805,-1.0073,-1.0243,-1.0387,-1.0656,-1.0697,-1.0738,-1.0893,-1.0914,-1.1016,-1.1295,-1.1165,-1.1104,-1.1199,-1.0961,-1.0853,-1.0968,-1.09,-1.0853,-1.0968,-1.0975,-1.0941,-1.0826,-1.0738,-1.0684,-1.0684,-1.0684,-1.0759,-1.0914,-1.109,-1.1274,-1.1396,-1.1545,-1.1584,-1.1584,-1.1584,-1.1584,-1.159,-1.1671,-1.1705,-1.1732,-1.2067,-1.223,-1.2305,-1.2447,-1.2501,-1.2501,-1.2501,-1.2501,-1.2501,0.0,0.0,-0.8088,-0.8294,-0.8335,-0.8396,-0.8539,-0.8546,-0.8539,0.0,-0.8587,-0.8648,-0.8811,-0.9083,-0.9179,-0.8994,-0.9117,-0.9152,-0.8967,-0.896,-0.896,-0.896,-0.896,-0.9049,-0.9206,-0.9055,-0.9049,-0.9234,-0.9234,-0.9288,-0.9437,-0.9544,-0.9686,-0.9792,-0.9792,-0.9866,-0.9988,-0.99,-1.0245,-1.084,-1.086,-1.1083,-1.1436,-1.1402,-1.1696,-1.2036,-1.1735,-1.1685,-1.1685,-1.0975,-1.0447,-1.0015,-0.9618,-0.9639,-0.9737,-0.9503,-0.9612,0.0,0.0,0.0,0.0,-0.9744,-0.951,0.0,-0.9686,-0.9571,-0.9422,-0.9578,-0.9693,-0.9798,-0.9988,-0.9984,-1.0109,-1.0426,-1.0466,-1.0629,-1.1111,-1.1016,-1.0894,-1.0914,-1.0779,-1.0684,-1.0684,-1.0684,-1.0684,-1.0684,-1.0684,-1.0684,-1.0684,-1.0684,-1.0684,-1.0684,-1.0684,-1.0765,-1.0934,-1.1097,-1.1281,-1.1416,-1.1552,-1.1584,-1.1584,-1.1584,-1.1584,-1.1584,-1.1584,-1.159,-1.1667,-1.1982,-1.2179,-1.2284,-1.244,-1.2501,-1.2501,-1.2501,-1.2501,-1.2501,0.0,-0.814,-0.8294,-0.8444,-0.854,-0.8676,-0.8798,-0.8716,-0.871,-0.8804,-0.9055,-0.9306,-0.9548,-0.9551,-0.951,-0.9483,-0.9395,-0.9356,-0.9293,-0.9293,-0.9293,-0.9293,-0.9293,-0.9306,-0.9362,-0.9306,-0.9306,-0.9369,-0.9369,-0.9444,-0.9564,-0.9598,-0.9686,-0.9792,-0.9792,-0.9805,-0.9859,-1.0222,-1.0378,-1.0419,-1.0534,-1.105,-1.1685,-1.1484,-1.1592,-1.187,-1.1773,-1.1773,-1.1719,-1.1246,-1.086,-1.0502,-1.0209,-0.9978,-0.9778,-0.9724,-0.9744,-0.9778,-0.9747,-0.9849,-0.9948,-0.97,-0.9673,0.0,-0.9503,-0.9451,-0.9422,-0.9578,-0.9537,-0.9585,-0.9947,-0.9984,-1.0076,-1.029,-1.0356,-1.048,-1.0894,-1.0826,-1.0779,-1.0901,-1.0779,-1.0684,-1.0684,-1.0684,-1.0684,-1.0684,-1.0684,-1.0684,-1.0684,-1.0684,-1.0684,-1.0684,-1.0684,-1.0846,-1.1152,-1.1186,-1.1336,-1.1572,-1.1606,-1.1584,-1.1584,-1.1584,-1.1584,-1.1584,-1.1584,-1.1651,-1.1766,-1.2023,-1.2118,-1.2173,-1.24,-1.2501,-1.2501,-1.2501,-1.2501,-1.2501,-0.8275,-0.8323,-0.8471,-0.8669,-0.8743,-0.8872,-0.9123,-0.9157,-0.9184,-0.9237,-0.9501,-0.9744,-0.9886,-0.9839,-0.9765,-0.969,-0.9578,-0.9462,-0.9417,-0.941,-0.941,-0.941,-0.941,-0.9444,-0.9496,-0.9496,-0.9496,-0.9496,-0.9564,-0.9605,-0.9612,-0.968,-0.9724,-0.9792,-0.9792,-0.9832,-0.992,-1.0143,-1.0405,-1.0629,-1.0853,-1.1212,-1.1613,-1.1613,-1.1796,-1.206,-1.206,-1.1922,-1.1712,-1.1233,-1.1002,-1.0853,-1.0331,-1.0231,-1.0305,-1.0114,-1.01,-1.0141,-1.0073,-1.0107,-1.0165,-0.9985,-0.9883,0.0,0.0,-0.9403,-0.9342,-0.9462,-0.932,-0.9273,-0.9616,-0.9713,-0.9768,-0.9917,-1.0073,-1.027,-1.0575,-1.0548,-1.0527,-1.0609,-1.0548,-1.0527,-1.0602,-1.0609,-1.0636,-1.0684,-1.0684,-1.0684,-1.0684,-1.0684,-1.0684,-1.0684,-1.0684,-1.0792,-1.1056,-1.1159,-1.1315,-1.1504,-1.1586,-1.1584,-1.1584,-1.1584,-1.1584,-1.1584,-1.1658,-1.1732,-1.1813,-1.2081,-1.2213,-1.2234,-1.242,-1.2501,-1.2501,-1.2501,-1.2501,-1.2501,-0.8519,-0.8532,-0.8615,-0.8865,-0.896,-0.9088,-0.9381,-0.953,-0.9632,-0.9656,-0.992,-1.0116,-1.0143,-1.0096,-1.0062,-1.008,-0.9815,-0.9646,-0.9639,-0.953,-0.9462,-0.9462,-0.9462,-0.9523,-0.9646,-0.9652,-0.9652,-0.9652,-0.9737,-0.9731,-0.9652,-0.9737,-0.9805,-0.9832,-0.9805,-0.9927,-1.0143,-1.0116,-1.042,-1.0941,-1.1274,-1.1409,-1.1463,-1.1692,-1.2006,-1.2244,-1.2244,-1.2067,-1.1712,-1.1178,-1.1111,-1.1125,-1.04,-1.0502,-1.0799,-1.0473,-1.0426,-1.0473,-1.0385,-1.0385,-1.0385,-1.0335,-1.0134,-0.9893,0.0,0.0,0.0,-0.9396,-0.9164,-0.9041,-0.9367,-0.9403,-0.9417,-0.9544,-0.9758,-0.9967,-1.0124,-1.0165,-1.0227,-1.0304,-1.027,-1.0304,-1.0473,-1.0466,-1.0514,-1.0663,-1.0677,-1.0657,-1.0684,-1.0684,-1.0684,-1.0684,-1.0684,-1.0759,-1.0914,-1.109,-1.1274,-1.1396,-1.1545,-1.1584,-1.1584,-1.1584,-1.1584,-1.1626,-1.1705,-1.1786,-1.1898,-1.2142,-1.2277,-1.2345,-1.2461,-1.2501,-1.2501,-1.2501,-1.2501,-1.2501,-0.8533,-0.8587,-0.871,-0.8879,-0.9157,-0.9388,-0.9557,-0.9598,-0.967,-0.9934,-1.0224,-1.0493,-1.0596,-1.0412,-1.0492,-1.1002,-1.0263,-0.9988,-1.0534,-1.0035,-0.9744,-0.9744,-0.9744,-0.9751,-0.9765,-0.9765,-0.9765,-0.9765,-0.9785,-0.9785,-0.9765,-0.9785,-0.9859,-0.9988,-0.9852,-1.0096,-1.0603,-1.05,-1.0603,-1.0941,-1.1274,-1.147,-1.1577,-1.1732,-1.1938,-1.2125,-1.2125,-1.1979,-1.1746,-1.145,-1.1355,-1.1307,-1.0921,-1.0765,-1.0704,-1.0683,-1.0582,-1.0521,-1.0636,-1.0738,-1.0745,-1.0378,-1.0453,-1.0407,-0.9761,0.0,-0.9673,-0.9435,0.0,-0.9247,-0.953,0.0,0.0,-0.941,-0.9551,-0.9618,-0.9526,-0.9598,-0.9876,-1.0405,-1.0204,-1.0157,-1.0466,-1.0378,-1.0397,-1.0507,-1.0521,-1.0575,-1.0677,-1.0684,-1.0684,-1.0684,-1.0684,-1.0759,-1.0914,-1.109,-1.1274,-1.1396,-1.1545,-1.1584,-1.1584,-1.1584,-1.1584,-1.1584,-1.164,-1.1796,-1.2077,-1.2111,-1.2244,-1.2481,-1.2494,-1.2501,-1.2501,-1.2501,-1.2501,-1.2501,-0.8743,-0.877,-0.8892,-0.9157,-0.93,-0.949,-0.9785,-1.013,-1.04,-1.0522,-1.0751,-1.0975,-1.1212,-1.0975,-1.0961,-1.1302,-1.0792,-1.0475,-1.0582,-1.027,-1.0086,-1.0086,-1.0086,-1.0046,-0.9927,-0.992,-0.9879,-0.9792,-0.9792,-0.9792,-0.9792,-0.9792,-0.9873,-0.9984,-0.9954,-1.0157,-1.0588,-1.0616,-1.0718,-1.0934,-1.1172,-1.1348,-1.1525,-1.1843,-1.206,-1.2207,-1.1993,-1.1884,-1.1739,-1.1389,-1.1375,-1.1443,-1.0934,-1.0887,-1.0941,-1.0772,-1.0704,-1.0718,-1.0691,-1.0799,-1.0826,-1.0493,-1.0432,-1.0337,-0.9842,-0.9683,-0.9686,-0.9646,0.0,0.0,0.0,0.0,0.0,0.0,-0.951,-0.9557,-0.943,-0.939,-0.956,-1.0039,-0.9886,-0.9879,-1.0177,-1.0263,-1.0304,-1.0365,-1.0371,-1.0432,-1.0582,-1.0588,-1.0629,-1.0684,-1.0684,-1.0718,-1.0779,-1.105,-1.1227,-1.1295,-1.1504,-1.1584,-1.1584,-1.1584,-1.1584,-1.159,-1.1671,-1.1864,-1.2104,-1.2193,-1.2318,-1.2501,-1.2501,-1.2501,-1.2501,-1.2501,-1.2501,-1.2501,-0.9034,0.0,-0.9076,-0.9334,-0.9415,-0.9598,-1.0015,-1.0454,-1.0779,-1.0901,-1.1036,-1.1233,-1.155,-1.1423,-1.1465,-1.1826,-1.136,-1.1036,-1.0968,-1.0595,-1.0365,-1.0315,-1.0349,-1.027,-1.0082,-1.0082,-1.0008,-0.9852,-0.9812,-0.9812,-0.9852,-0.9852,-0.9954,-1.0143,-1.0184,-1.0366,-1.0683,-1.0839,-1.0955,-1.111,-1.1287,-1.1463,-1.1667,-1.1904,-1.2094,-1.2196,-1.1925,-1.1773,-1.1685,-1.1396,-1.1436,-1.1538,-1.1056,-1.1023,-1.1145,-1.0826,-1.0799,-1.0826,-1.0718,-1.0799,-1.084,-1.0568,-1.0412,-1.0256,-0.992,-0.9836,-0.9808,-0.9839,-0.9747,0.0,0.0,0.0,-0.9618,-0.9469,0.0,-0.9557,-0.943,-0.9281,-0.9335,-0.9713,-0.971,-0.9785,-0.9963,-1.0116,-1.0236,-1.0308,-1.0243,-1.0297,-1.048,-1.0493,-1.0561,-1.0717,-1.0684,-1.0684,-1.0684,-1.0975,-1.1104,-1.1104,-1.1409,-1.1558,-1.1558,-1.1563,-1.1584,-1.1626,-1.1732,-1.1918,-1.2111,-1.223,-1.2372,-1.2501,-1.2501,-1.2501,-1.2501,-1.2501,-1.2528,-1.2562,-0.9396,-0.9274,-0.9226,-0.9383,-0.9503,-0.9754,-1.0202,-1.0322,-1.046,-1.086,-1.0921,-1.109,-1.1536,-1.1577,-1.1959,-1.2873,-1.2108,-1.1714,-1.203,-1.1192,-1.0582,-1.0322,-1.0412,-1.0419,-1.0276,-1.0308,-1.0195,-0.9977,-0.9859,-0.9866,-0.9977,-0.9977,-1.0163,-1.0487,-1.0629,-1.0867,-1.1186,-1.1307,-1.1457,-1.1577,-1.1712,-1.1993,-1.223,-1.1945,-1.1932,-1.2084,-1.1884,-1.1705,-1.159,-1.157,-1.1577,-1.1556,-1.1423,-1.1308,-1.1166,-1.0948,-1.0806,-1.0691,-1.0691,-1.0799,-1.084,-1.0568,-1.0487,-1.0405,-1.0076,-1.0154,-1.0215,-1.0042,-1.0154,-1.0288,-1.0263,-1.0019,0.0,0.0,-0.9605,0.0,0.0,-0.9281,-0.9294,-0.9578,-0.9832,-0.9977,-0.9984,-1.0021,-1.0089,-1.0301,-1.0109,-1.015,-1.0473,-1.0493,-1.0561,-1.0717,-1.0684,-1.0684,-1.0684,-1.084,-1.0921,-1.0928,-1.1253,-1.1396,-1.1402,-1.1552,-1.1584,-1.1626,-1.1732,-1.1918,-1.2111,-1.223,-1.2372,-1.2501,-1.2501,-1.2501,-1.2501,-1.2501,-1.2596,-1.2686,-0.9652,-0.9632,-0.9585,-0.9537,-0.9578,-0.9795,-1.0337,-1.071,-1.1097,-1.1613,-1.1687,-1.1972,-1.2718,-1.2705,-1.2813,-1.3214,-1.2881,-1.2562,-1.2366,-1.1884,-1.1477,-1.1179,-1.1212,-1.1077,-1.0698,-1.0691,-1.0562,-1.0344,-1.0195,-1.0154,-1.0202,-1.0202,-1.0304,-1.05,-1.0649,-1.0772,-1.09,-1.1348,-1.1457,-1.1355,-1.1803,-1.2223,-1.2549,-1.225,-1.2169,-1.2182,-1.1888,-1.1766,-1.1705,-1.1617,-1.1584,-1.1592,-1.1436,-1.1355,-1.1267,-1.0988,-1.1016,-1.1118,-1.0887,-1.1022,-1.1145,-1.0744,-1.0568,-1.0439,-1.0249,-1.0243,-1.0263,-1.0215,-1.0317,-1.0424,-1.0329,-1.0195,0.0,0.0,0.0,0.0,0.0,-0.9241,-0.9254,-0.9435,-0.972,-0.9866,-0.9866,-0.9785,-0.9792,-0.9964,-0.9812,-0.9859,-1.015,-1.0297,-1.0419,-1.0561,-1.0637,-1.0684,-1.0684,-1.084,-1.0961,-1.109,-1.1294,-1.1443,-1.1545,-1.1599,-1.1584,-1.1626,-1.1732,-1.1918,-1.2111,-1.223,-1.2372,-1.2501,-1.2501,-1.2501,-1.2515,-1.2617,-1.2645,-1.272,-0.9985,-0.9985,-0.9937,-0.9758,-0.9815,-1.0032,-1.0575,-1.1036,-1.1574,-1.2179,-1.2349,-1.2724,-1.3471,-1.3519,-1.3553,-1.3709,-1.358,-1.3295,-1.2698,-1.2526,-1.2213,-1.1678,-1.1748,-1.1565,-1.1083,-1.1124,-1.0928,-1.0493,-1.0507,-1.046,-1.0358,-1.0358,-1.0432,-1.0588,-1.09,-1.0887,-1.0738,-1.1586,-1.1701,-1.1382,-1.2033,-1.244,-1.263,-1.2494,-1.2447,-1.24,-1.204,-1.1911,-1.1898,-1.1809,-1.1742,-1.1687,-1.164,-1.1518,-1.1362,-1.1191,-1.1246,-1.1267,-1.1077,-1.1165,-1.1226,-1.0853,-1.065,-1.0534,-1.0392,-1.0399,-1.0419,-1.0365,-1.0514,-1.0609,-1.0466,-1.0392,0.0,0.0,0.0,0.0,0.0,-0.924,-0.9342,-0.9328,-0.9605,-0.9792,-0.9792,-0.971,-0.97,-0.971,-0.9659,-0.9683,-0.9927,-1.0168,-1.0344,-1.0487,-1.0643,-1.0684,-1.0684,-1.0786,-1.0907,-1.109,-1.124,-1.1389,-1.1538,-1.1592,-1.1584,-1.1597,-1.183,-1.1972,-1.2118,-1.2284,-1.242,-1.2501,-1.2501,-1.2501,-1.2522,-1.2632,-1.28,-1.2922,-1.0358,-1.0349,-1.0276,-1.0096,-1.0209,-1.0446,-1.0867,-1.1313,-1.185,-1.2454,-1.2846,-1.3234,-1.3788,-1.4021,-1.4214,-1.4319,-1.419,-1.384,-1.3111,-1.3064,-1.2684,-1.1901,-1.204,-1.1941,-1.1457,-1.1572,-1.1287,-1.0561,-1.0786,-1.0772,-1.0527,-1.0521,-1.0588,-1.0744,-1.1313,-1.1252,-1.0765,-1.1979,-1.2162,-1.1728,-1.2395,-1.2644,-1.2549,-1.2632,-1.2686,-1.2645,-1.2275,-1.2111,-1.2111,-1.2098,-1.1965,-1.1864,-1.2043,-1.1791,-1.1436,-1.1572,-1.1409,-1.122,-1.1213,-1.1213,-1.1186,-1.0975,-1.0819,-1.0704,-1.0561,-1.0629,-1.0657,-1.0548,-1.0711,-1.0867,-1.0704,-1.0595,-1.0453,0.0,0.0,0.0,-0.8994,-0.9305,-0.9503,-0.9247,-0.9564,-0.9785,-0.9771,-0.9765,-0.971,-0.9618,-0.9605,-0.9666,-0.9785,-1.0114,-1.0376,-1.048,-1.0636,-1.0691,-1.0698,-1.0698,-1.0779,-1.0934,-1.1111,-1.1288,-1.1409,-1.1552,-1.1584,-1.1633,-1.1932,-1.2098,-1.2125,-1.2379,-1.2501,-1.2501,-1.2501,-1.2508,-1.2542,-1.2691,-1.2929,-1.3248,-1.0643,-1.0785,-1.0961,-1.088,-1.0669,-1.0629,-1.1192,-1.1523,-1.2037,-1.2895,-1.3356,-1.3885,-1.4604,-1.4611,-1.4631,-1.4787,-1.4658,-1.4394,-1.398,-1.3851,-1.3553,-1.3024,-1.2929,-1.2717,-1.223,-1.2077,-1.1796,-1.1484,-1.109,-1.0928,-1.1023,-1.088,-1.0759,-1.0744,-1.1313,-1.1252,-1.0785,-1.1798,-1.221,-1.2291,-1.2481,-1.2739,-1.3009,-1.2671,-1.2705,-1.284,-1.2393,-1.223,-1.2216,-1.2139,-1.207,-1.2023,-1.1911,-1.1773,-1.1644,-1.1504,-1.1477,-1.1477,-1.1362,-1.1416,-1.1463,-1.1314,-1.1165,-1.107,-1.1036,-1.0934,-1.0846,-1.0806,-1.086,-1.0833,-1.0602,-1.0609,-1.0508,0.0,0.0,0.0,-0.93,-0.9462,-0.9618,-0.9646,-0.9747,-0.9734,-0.9517,-0.9424,-0.943,-0.9598,-0.9503,-0.9551,-0.9778,-1.0114,-1.0329,-1.0363,-1.0582,-1.0738,-1.0853,-1.086,-1.0988,-1.128,-1.1314,-1.1409,-1.1558,-1.1563,-1.1584,-1.1633,-1.1932,-1.2098,-1.2125,-1.2379,-1.2501,-1.2501,-1.2501,-1.2644,-1.2887,-1.2928,-1.3091,-1.3349,-1.111,-1.1409,-1.171,-1.1771,-1.1689,-1.166,-1.1938,-1.2115,-1.2483,-1.3356,-1.3858,-1.4346,-1.4909,-1.5065,-1.512,-1.5255,-1.5059,-1.4753,-1.4326,-1.4278,-1.4034,-1.3519,-1.3417,-1.3132,-1.261,-1.2372,-1.2081,-1.1705,-1.13,-1.1151,-1.1193,-1.0914,-1.0772,-1.0744,-1.1313,-1.1355,-1.0962,-1.1771,-1.2349,-1.2698,-1.263,-1.2752,0.0,-1.2698,-1.2664,-1.2764,-1.2474,-1.2379,-1.2372,-1.2284,-1.2254,-1.2193,-1.2128,-1.2033,-1.1911,-1.1809,-1.1748,-1.1658,-1.1606,-1.1599,-1.1586,-1.143,-1.1328,-1.1261,-1.1097,-1.0975,-1.0894,-1.0826,-1.0813,-1.0745,-1.0534,-1.0561,-1.0473,-0.9994,-0.9778,-0.9625,-0.9437,-0.951,-0.9612,-0.9625,-0.9741,-0.9707,-0.9437,-0.939,-0.9396,-0.9437,-0.9456,-0.9551,-0.969,-1.008,-1.0315,-1.0315,-1.069,-1.0928,-1.0914,-1.1043,-1.1226,-1.1389,-1.1389,-1.1504,-1.1671,-1.1671,-1.1748,-1.1823,-1.2098,-1.22,-1.222,-1.2406,-1.2501,-1.2501,-1.2501,-1.2691,-1.3003,-1.3003,-1.3186,-1.3403,-1.1698,-1.2067,-1.2413,-1.2515,-1.2834,-1.3057,-1.2963,-1.2936,-1.3159,-1.3829,-1.4342,-1.4787,-1.5105,-1.5432,-1.5607,-1.5593,-1.5377,-1.4977,-1.4421,-1.4482,-1.4261,-1.3727,-1.3666,-1.3382,-1.2821,-1.2623,-1.225,-1.1735,-1.1463,-1.1287,-1.122,-1.0887,-1.0704,-1.0744,-1.1313,-1.1484,-1.1322,-1.1866,-1.2424,-1.2928,-1.2752,-1.2686,-1.272,-1.2679,-1.2617,-1.2501,-1.2501,-1.2501,-1.2501,-1.2501,-1.242,-1.2338,-1.244,-1.2298,-1.2152,-1.223,-1.2074,-1.182,-1.18,-1.1705,-1.1577,-1.1457,-1.1423,-1.1355,-1.1063,-1.0988,-1.0928,-1.0779,-1.0732,-1.0664,-1.0521,-1.046,-1.0317,-0.9964,-0.9832,-0.9741,-0.9503,-0.9564,-0.9598,-0.9483,-0.9693,0.0,-0.9462,-0.9544,-0.9496,-0.926,-0.9456,-0.9618,-0.9639,-1.0046,-1.0315,-1.0315,-1.0866,-1.1104,-1.1002,-1.1274,-1.1423,-1.1477,-1.1457,-1.1586,-1.1793,-1.1813,-1.1932,-1.2111,-1.2223,-1.2291,-1.2298,-1.244,-1.2515,-1.2535,-1.2556,-1.2739,-1.303,-1.303,-1.3166,-1.3403,-1.2176,-1.2574,-1.2813,-1.2705,-1.32,-1.3802,-1.4275,-1.4278,-1.4292,-1.4505,-1.5187,-1.569,-1.5745,-1.582,-1.5771,-1.56,-1.5472,-1.5221,-1.4921,-1.4753,-1.4552,-1.4367,-1.4122,-1.3831,-1.3436,-1.2834,-1.2447,-1.2345,-1.1428,-1.1103,-1.1348,-1.1016,-1.0806,-1.0744,-1.1313,-1.1653,-1.1692,-1.1965,-1.2302,-1.2576,-1.2556,-1.2691,-1.2935,-1.2637,-1.2522,-1.2501,-1.2501,-1.2501,-1.2501,-1.2501,-1.2488,-1.2447,-1.2359,-1.2291,-1.2268,-1.2166,-1.2098,-1.1993,-1.1864,-1.178,-1.1719,-1.1613,-1.1543,-1.1565,-1.1475,-1.1402,-1.1267,-1.1152,-1.0989,-1.0792,-1.0541,-1.0258,-1.015,-1.0344,-1.0059,-0.9819,-0.9893,-0.9819,-0.9792,-0.9893,-0.9947,-0.9907,-0.9731,-0.9659,-0.9585,-0.9537,-0.9578,-0.9659,-0.9744,-1.01,-1.0315,-1.0315,-1.0704,-1.1117,-1.1462,-1.143,-1.1579,-1.1982,-1.1816,-1.1746,-1.18,-1.1965,-1.2077,-1.2111,-1.2223,-1.2291,-1.2298,-1.244,-1.2576,-1.2665,-1.2827,-1.3023,-1.3173,-1.3173,-1.3247,-1.3417,-1.2969,-1.322,-1.3464,-1.3627,-1.4143,-1.4713,-1.5235,-1.5452,-1.5445,-1.508,-1.5466,-1.571,-1.5635,-1.5906,-1.6062,-1.5995,-1.5661,-1.5404,-1.5099,-1.4869,-1.4593,-1.4414,-1.4265,-1.4014,-1.3599,-1.3044,-1.2698,-1.2617,-1.1617,-1.1294,-1.1504,-1.109,-1.0833,-1.0704,-1.1185,-1.164,-1.2074,-1.2149,-1.2438,-1.2778,-1.2778,-1.2914,-1.3091,-1.2867,-1.2778,-1.2778,-1.2778,-1.2778,-1.2718,-1.2556,-1.2501,-1.2488,-1.242,-1.24,-1.2386,-1.2311,-1.2275,-1.2162,-1.2088,-1.1915,-1.178,-1.1712,-1.1638,-1.1563,-1.1518,-1.1443,-1.1328,-1.1097,-1.0961,-1.0846,-1.0649,-1.0432,-1.0324,-1.0466,-1.031,-1.0168,-1.0168,-1.0008,-0.9934,-0.9977,-0.9984,-0.9961,-0.9805,-0.9062,-0.8854,-0.9559,-0.968,-0.9717,-0.9785,-1.0114,-1.0315,-1.0315,-1.0867,-1.1246,-1.1382,-1.1538,-1.1687,-1.183,-1.1793,-1.1834,-1.1952,-1.2145,-1.2261,-1.2291,-1.2366,-1.24,-1.2413,-1.2562,-1.2625,-1.2706,-1.2901,-1.3091,-1.3214,-1.3214,-1.3322,-1.3532,-1.3783,-1.3889,-1.4119,-1.4584,-1.5052,-1.5541,-1.5894,-1.6313,-1.6388,-1.573,-1.5729,-1.5756,-1.5622,-1.6056,-1.632,-1.6218,-1.5859,-1.552,-1.5248,-1.4957,-1.4672,-1.4407,-1.436,-1.415,-1.3729,-1.3254,-1.2941,-1.2638,-1.1877,-1.1484,-1.1435,-1.1144,-1.0928,-1.0826,-1.1158,-1.1619,-1.2155,-1.2284,-1.2556,-1.2955,-1.2989,-1.3084,-1.3193,-1.3016,-1.2975,-1.2996,-1.2962,-1.2975,-1.2962,-1.2684,-1.2576,-1.2542,-1.2515,-1.2501,-1.2501,-1.2501,-1.242,-1.2332,-1.2298,-1.2115,-1.1881,-1.1884,-1.1732,-1.1597,-1.1511,-1.1463,-1.1362,-1.1063,-1.0961,-1.0887,-1.0833,-1.0636,-1.0514,-1.0575,-1.0507,-1.0419,-1.0337,-1.0222,-1.0089,-1.0028,-1.0076,-1.0028,-0.9812,-0.8459,-0.8041,-0.9067,-0.9234,-0.9451,-0.9792,-1.0114,-1.0315,-1.0315,-1.1002,-1.1314,-1.1295,-1.1606,-1.1739,-1.1762,-1.1843,-1.1959,-1.2152,-1.2264,-1.2393,-1.2501,-1.2501,-1.2501,-1.2515,-1.2705,-1.2779,-1.28,-1.2983,-1.3166,-1.3268,-1.3254,-1.3424,-1.3599,-1.4373,-1.4505,-1.4708,-1.5065,-1.5608,-1.6008,-1.6056,-1.6558,-1.6815,-1.6463,-1.65,-1.6486,-1.6259,-1.6388,-1.6341,-1.5983,-1.5737,-1.5519,-1.5398,-1.5113,-1.4875,-1.466,-1.4563,-1.4346,-1.4078,-1.3499,-1.2949,-1.2522,-1.1996,-1.1489,-1.0982,-1.1246,-1.1267,-1.1172,-1.1572,-1.1698,-1.1714,-1.2257,-1.2583,-1.2726,-1.2941,-1.3084,-1.3186,-1.2861,-1.284,-1.2982,-1.28,-1.284,-1.2996,-1.2969,-1.2827,-1.2645,-1.2549,-1.2501,-1.2501,-1.2501,-1.2494,-1.2454,-1.2325,-1.2271,-1.2216,-1.2111,-1.1925,-1.1773,-1.1753,-1.1651,-1.1552,-1.1382,-1.1103,-1.0948,-1.1132,-1.0812,-1.0582,-1.0826,-1.0568,-1.0369,-1.046,-1.046,-1.0351,-1.0049,-1.0251,-1.0283,-0.9832,-0.8459,-0.7604,-0.7601,-0.7632,-0.8252,-0.9731,-1.0114,-1.0315,-1.0315,-1.09,-1.1342,-1.1572,-1.1619,-1.1837,-1.223,-1.2139,-1.2159,-1.2277,-1.242,-1.2488,-1.2501,-1.2501,-1.2501,-1.2522,-1.286,-1.2982,-1.3009,-1.3247,-1.337,-1.3397,-1.3539,-1.3565,-1.3626,-1.5031,-1.5099,-1.5296,-1.5778,-1.5981,-1.6205,-1.6564,-1.6829,-1.6937,-1.6815,-1.6849,-1.6741,-1.6354,-1.6435,-1.6374,-1.6071,-1.5852,-1.5669,-1.5425,-1.5133,-1.4862,-1.4566,-1.4462,-1.4285,-1.4119,-1.3743,-1.3356,-1.2901,-1.2637,-1.225,-1.1748,-1.1599,-1.1396,-1.1206,-1.1383,-1.1599,-1.1948,-1.2325,-1.2644,-1.2888,-1.3132,-1.3261,-1.3295,-1.318,-1.3173,-1.3214,-1.3152,-1.3173,-1.3214,-1.3159,-1.2929,-1.2679,-1.2657,-1.2576,-1.2501,-1.2501,-1.2501,-1.2488,-1.2433,-1.2291,-1.22,-1.2189,-1.2013,-1.1793,-1.1793,-1.1753,-1.1644,-1.1443,-1.031,-0.9704,-1.0979,-0.998,-0.9415,-1.0691,-1.0691,-1.0561,-1.0622,-1.0548,-1.0419,-1.0215,-1.0177,-1.0089,-0.9819,-0.8389,-0.7464,-0.7399,-0.7413,-0.773,-0.8453,-0.9651,-1.0349,-1.0437,-1.0934,-1.1254,-1.1341,-1.1613,-1.18,-1.2013,-1.2142,-1.2268,-1.2298,-1.2433,-1.2501,-1.2501,-1.2501,-1.2556,-1.2657,-1.2874,-1.305,-1.3152,-1.3315,-1.3458,-1.3546,-1.3565,-1.3743,-1.3912,-1.5649,-1.5676,-1.5852,-1.6408,-1.6415,-1.649,-1.6917,-1.6978,-1.6978,-1.6978,-1.6978,-1.6842,-1.6476,-1.649,-1.6422,-1.6171,-1.5927,-1.5703,-1.5493,-1.5201,-1.4916,-1.4658,-1.4509,-1.436,-1.4204,-1.4007,-1.3688,-1.3282,-1.318,-1.2833,-1.2216,-1.1945,-1.1674,-1.1465,-1.1601,-1.1873,-1.2247,-1.2508,-1.2826,-1.3084,-1.3302,-1.3403,-1.3397,-1.3349,-1.3363,-1.3397,-1.3349,-1.3363,-1.3383,-1.3275,-1.3071,-1.2854,-1.2813,-1.2691,-1.2569,-1.2569,-1.2535,-1.2501,-1.2501,-1.2352,-1.2254,-1.2325,-1.2155,-1.1965,-1.1965,-1.1932,-1.1843,-1.1633,-1.0361,-0.9719,-1.1102,-0.959,-0.8539,-0.996,-1.0023,-0.9904,-0.9904,-1.0326,-1.0359,-0.9652,-0.9481,-0.9148,-0.8439,-0.6898,-0.5953,-0.5948,-0.595,-0.6206,-0.6778,-0.9078,-1.016,-0.9734,-1.0691,-1.122,-1.1261,-1.1633,-1.184,-1.1965,-1.2189,-1.2311,-1.2352,-1.2454,-1.2501,-1.2501,-1.2501,-1.2589,-1.2706,-1.2935,-1.3084,-1.3234,-1.339,-1.3532,-1.3599,-1.3729,-1.3892,-1.4125,-1.6212,-1.63,-1.6442,-1.6897,-1.6971,-1.6971,-1.6978,-1.6978,-1.6978,-1.6978,-1.6978,-1.6917,-1.6709,-1.656,-1.6463,-1.632,-1.585,-1.5593,-1.5587,-1.535,-1.516,-1.5017,-1.4814,-1.462,-1.4509,-1.4217,-1.3851,-1.3397,-1.3397,-1.2942,-1.2104,-1.2216,-1.2234,-1.2111,-1.2515,-1.2591,-1.2515,-1.2867,-1.3077,-1.3227,-1.3342,-1.3403,-1.3383,-1.3234,-1.3268,-1.3383,-1.3268,-1.3275,-1.3403,-1.3397,-1.3295,-1.3186,-1.3043,-1.2854,-1.2686,-1.2686,-1.2617,-1.2501,-1.2501,-1.2501,-1.2494,-1.2501,-1.2393,-1.2284,-1.2284,-1.2207,-1.2098,-1.2091,-1.1816,-1.1617,-1.1759,-0.9883,-0.8333,-0.851,-0.8238,-0.8029,-0.8029,-0.9669,-1.0122,-0.8061,-0.7959,-0.721,-0.5144,-0.3498,-0.2571,-0.2573,-0.2571,-0.3252,-0.4848,-0.8486,-0.9669,-0.7905,-1.0008,-1.1268,-1.1389,-1.1681,-1.1986,-1.2284,-1.2291,-1.2366,-1.2501,-1.2501,-1.2501,-1.2501,-1.2501,-1.2589,-1.2706,-1.2935,-1.3084,-1.3241,-1.3505,-1.3585,-1.3619,-1.396,-1.4112,-1.4139,-1.6533,-1.6693,-1.6815,-1.6958,-1.6978,-1.6978,-1.6978,-1.6978,-1.6978,-1.6978,-1.6978,-1.6965,-1.691,-1.668,-1.6463,-1.632,-1.6083,-1.5893,-1.5791,-1.5506,-1.5269,-1.512,-1.4774,-1.4563,-1.4516,-1.4326,-1.4055,-1.366,-1.3804,-1.3505,-1.286,-1.2812,-1.2649,-1.2366,-1.2508,-1.2664,-1.2867,-1.3064,-1.3193,-1.3336,-1.3383,-1.3403,-1.3397,-1.3349,-1.3356,-1.3397,-1.3349,-1.3356,-1.3403,-1.3403,-1.337,-1.3322,-1.3275,-1.3091,-1.2868,-1.272,-1.2773,-1.2793,-1.2684,-1.2657,-1.2657,-1.2657,-1.2549,-1.2406,-1.2311,-1.2213,-1.207,-1.1925,-1.0755,-0.9728,-0.9713,-0.7924,-0.6461,-0.6531,-0.6363,-0.6239,-0.6215,-0.6745,-0.6865,-0.605,-0.5993,-0.5733,-0.4984,-0.443,-0.4161,-0.4253,-0.4284,-0.4025,-0.3437,-0.5588,-0.721,-0.8125,-0.8932,-1.0051,-1.1509,-1.1843,-1.2088,-1.2291,-1.2386,-1.2461,-1.2508,-1.2571,-1.2657,-1.2625,-1.2766,-1.2935,-1.3037,-1.3125,-1.3234,-1.3336,-1.3437,-1.3593,-1.3741,-1.3878,-1.2991,-1.1781,-1.6784,-1.6917,-1.6978,-1.6978,-1.6978,-1.6978,-1.6978,-1.6978,-1.6978,-1.6978,-1.6978,-1.6978,-1.6978,-1.6761,-1.6493,-1.6402,-1.6151,-1.6003,-1.5908,-1.5574,-1.5371,-1.5269,-1.4896,-1.4685,-1.4685,-1.4482,-1.4285,-1.4052,-1.4021,-1.3763,-1.3342,-1.3254,-1.3112,-1.2929,-1.2983,-1.3112,-1.3295,-1.3383,-1.3478,-1.3566,-1.3566,-1.3566,-1.3566,-1.3566,-1.3532,-1.3485,-1.3485,-1.3451,-1.3403,-1.3403,-1.3403,-1.3403,-1.3403,-1.3275,-1.3139,-1.2942,-1.2929,-1.2982,-1.284,-1.2773,-1.2706,-1.28,-1.2698,-1.2562,-1.2474,-1.2379,-1.2271,-1.2115,-1.1064,-1.0125,-0.9992,-0.7647,-0.5743,-0.5676,-0.4941,-0.4395,-0.4403,-0.498,-0.5112,-0.4306,-0.4201,-0.3892,-0.3138,-0.3052,-0.309,-0.3189,-0.3175,-0.2747,-0.1725,-0.3924,-0.551,-0.6187,-0.7731,-0.9231,-1.0565,-1.1621,-1.2223,-1.2372,-1.2515,-1.2617,-1.2678,-1.2773,-1.282,-1.282,-1.2962,-1.3084,-1.3214,-1.3214,-1.2803,-1.2229,-1.3125,-1.256,-1.1332,-1.225,-1.1215,-0.9331,-1.6978,-1.6978,-1.6978,-1.6978,-1.6978,-1.6978,-1.6978,-1.6978,-1.6978,-1.6978,-1.6978,-1.6978,-1.6978,-1.6842,-1.6642,-1.65,-1.6137,-1.5928,-1.5915,-1.5594,-1.5425,-1.5425,-1.5133,-1.5017,-1.5017,-1.4679,-1.4523,-1.4509,-1.4038,-1.3761,-1.3632,-1.3619,-1.3619,-1.3619,-1.3741,-1.3795,-1.3795,-1.3795,-1.3795,-1.3795,-1.3795,-1.3795,-1.3795,-1.3788,-1.37,-1.3585,-1.3572,-1.3519,-1.3403,-1.3403,-1.3403,-1.3403,-1.341,-1.341,-1.337,-1.3261,-1.3125,-1.303,-1.3016,-1.2881,-1.2807,-1.2982,-1.2861,-1.2706,-1.2693,-1.2699,-1.2665,-1.2549,-1.2406,-1.2181,-1.1764,-0.8577,-0.5866,-0.547,-0.3773,-0.2506,-0.2503,-0.3956,-0.4392,-0.2719,-0.2521,-0.185,-0.0169,0.0,-0.0068,-0.0169,-0.0069,-0.0069,-0.0169,-0.3277,-0.4332,-0.275,-0.6338,-0.8443,-0.8713,-1.0813,-1.2015,-1.2283,-1.2592,-1.282,-1.3003,-1.2849,-1.2856,-1.3016,-1.2702,-1.2734,-1.2982,-1.2819,-1.1605,-1.0101,-1.2251,-1.0582,-0.7187,-0.941,-0.8806,-0.6834,-1.6978,-1.6978,-1.6978,-1.6978,-1.6978,-1.6978,-1.6978,-1.6978,-1.6978,-1.6978,-1.6978,-1.6978,-1.6978,-1.6842,-1.6682,-1.6648,-1.6395,-1.6151,-1.6035,-1.575,-1.5539,-1.5539,-1.5194,-1.5017,-1.5017,-1.478,-1.4586,-1.4509,-1.4299,-1.4177,-1.4136,-1.4021,-1.3966,-1.3966,-1.3835,-1.3795,-1.3795,-1.3795,-1.3795,-1.3795,-1.3795,-1.3795,-1.3788,-1.368,-1.3619,-1.3572,-1.3498,-1.3431,-1.3403,-1.3403,-1.3403,-1.3424,-1.3539,-1.3498,-1.337,-1.3261,-1.3234,-1.3268,-1.3193,-1.318,-1.322,-1.3186,-1.3057,-1.2874,-1.2759,-1.282,-1.2861,-1.2705,-1.2556,-1.1472,-0.8269,-0.6754,-0.4991,-0.1864,-0.0954,-0.0625,-0.0644,-0.101,-0.1109,-0.0706,-0.0645,-0.0478,-0.0034,0.0,-0.0586,-0.1941,-0.0795,-0.0587,-0.1976,-0.1561,-0.1752,-0.2827,-0.3776,-0.5063,-0.6656,-0.7231,-0.8418,-1.0296,-1.2066,-1.2969,-1.2922,-1.1311,-1.1515,-1.2963,-0.9639,-0.9151,-1.063,-0.8921,-0.7936,-0.7547,-0.8095,-0.7758,-0.6971,-0.753,-0.6331,-0.4427,-1.6978,-1.6978,-1.6978,-1.6978,-1.6978,-1.6978,-1.6978,-1.6978,-1.6978,-1.6978,-1.6978,-1.6978,-1.6978,-1.6904,-1.6777,-1.6702,-1.6432,-1.6273,-1.6191,-1.5906,-1.5737,-1.5737,-1.5377,-1.5174,-1.5174,-1.4957,-1.4733,-1.4509,-1.4434,-1.4367,-1.4299,-1.4217,-1.4177,-1.417,-1.4089,-1.4048,-1.4048,-1.4048,-1.4048,-1.4048,-1.4048,-1.4048,-1.3998,-1.3966,-1.3892,-1.3817,-1.3736,-1.3661,-1.3558,-1.3558,-1.3558,-1.362,-1.366,-1.3626,-1.3587,-1.3505,-1.3492,-1.3498,-1.3485,-1.3437,-1.3363,-1.3214,-1.3207,-1.3119,-1.2969,-1.2996,-1.3057,-1.2868,-1.2712,-1.1577,-0.8336,-0.6865,-0.5096,-0.1865,-0.0566,0.0,0.0,0.0,0.0,0.0,0.0,0.0,0.0,0.0,-0.0391,-0.1379,-0.0569,-0.0427,-0.1415,-0.055,-0.0481,-0.155,-0.25,-0.3517,-0.4645,-0.5633,-0.6828,-0.8201,-0.9435,-1.0059,-1.0075,-0.8935,-0.904,-1.0081,-0.7724,-0.7372,-0.8415,-0.7201,-0.6073,-0.5245,-0.6277,-0.5491,-0.3861,-0.4864,-0.3858,-0.1971,-1.6978,-1.6978,-1.6978,-1.6978,-1.6978,-1.6978,-1.6978,-1.6978,-1.6978,-1.6978,-1.6978,-1.6978,-1.6978,-1.6978,-1.6931,-1.6743,-1.653,-1.6354,-1.6313,-1.6071,-1.5894,-1.5867,-1.556,-1.5398,-1.5377,-1.5086,-1.4794,-1.4509,-1.4489,-1.4421,-1.4299,-1.4299,-1.4299,-1.4299,-1.4299,-1.4299,-1.4299,-1.4299,-1.4299,-1.4299,-1.4299,-1.4299,-1.4299,-1.4272,-1.4183,-1.4112,-1.4091,-1.3953,-1.3795,-1.3795,-1.3795,-1.3802,-1.3822,-1.3815,-1.3808,-1.3856,-1.3768,-1.3673,-1.3774,-1.3612,-1.3431,-1.3281,-1.3356,-1.3424,-1.3288,-1.3241,-1.3268,-1.3105,-1.2635,-1.1613,-0.9409,-0.7259,-0.5075,-0.2821,-0.1062,0.0,0.0,0.0,0.0,0.0,0.0,0.0,0.0,0.0,0.0,0.0,0.0,0.0,0.0,0.0,0.0,0.0,-0.1696,-0.2637,-0.2637,-0.4781,-0.5913,-0.6013,-0.6351,-0.6597,-0.67,-0.6366,-0.6369,-0.6658,-0.599,-0.5867,-0.616,-0.5825,-0.4533,-0.2991,-0.4935,-0.3358,-0.0218,-0.2113,-0.1601,0.0,-1.6978,-1.6978,-1.6978,-1.6978,-1.6978,-1.6978,-1.6978,-1.6978,-1.6978,-1.6978,-1.6978,-1.6978,-1.6978,-1.6978,-1.6971,-1.6944,-1.6781,-1.6527,-1.6327,-1.6071,-1.5798,-1.5627,-1.5506,-1.535,-1.5221,-1.493,-1.4692,-1.4509,-1.4394,-1.4319,-1.4299,-1.4299,-1.4299,-1.4299,-1.4299,-1.4299,-1.4299,-1.4299,-1.4299,-1.4299,-1.4299,-1.4299,-1.4285,-1.4156,-1.4139,-1.4098,-1.3926,-1.3815,-1.3795,-1.3795,-1.3795,-1.3822,-1.3994,-1.3946,-1.3849,-1.415,-1.4122,-1.398,-1.3829,-1.3761,-1.3693,-1.3551,-1.3626,-1.366,-1.3431,-1.3559,-1.3661,-1.339,-1.1771,-0.9738,-0.7516,-0.517,-0.2903,-0.0789,-0.0179,0.0,0.0,0.0,0.0,0.0,0.0,0.0,0.0,0.0,0.0,0.0,0.0,0.0,0.0,0.0,0.0,0.0,-0.0321,-0.0485,-0.0485,-0.2658,-0.3787,-0.3836,-0.574,-0.669,-0.662,-0.4779,-0.4947,-0.6491,-0.2687,-0.2142,-0.3776,-0.1849,-0.0846,-0.0555,-0.0906,-0.0611,-0.0044,-0.0401,-0.0314,0.0,-1.6978,-1.6978,-1.6978,-1.6978,-1.6978,-1.6978,-1.6978,-1.6978,-1.6978,-1.6978,-1.6978,-1.6978,-1.6978,-1.6978,-1.6978,-1.6978,-1.6836,-1.6608,-1.6435,-1.6218,-1.5995,-1.5764,-1.5615,-1.5425,-1.5187,-1.5045,-1.4869,-1.4586,-1.457,-1.4455,-1.4299,-1.4299,-1.4299,-1.4299,-1.4299,-1.4299,-1.4299,-1.4299,-1.4299,-1.4299,-1.4299,-1.4299,-1.4292,-1.4224,-1.4197,-1.4183,-1.4116,-1.4089,-1.4089,-1.4089,-1.4089,-1.4102,-1.417,-1.4143,-1.4116,-1.4258,-1.4251,-1.4163,-1.4007,-1.3966,-1.3933,-1.3741,-1.3747,-1.3761,-1.3626,-1.37,-1.3761,-1.3626,-1.2726,-1.0884,-0.7443,-0.5829,-0.3916,-0.0541,0.0,0.0,0.0,0.0,0.0,0.0,0.0,0.0,0.0,0.0,0.0,0.0,0.0,0.0,0.0,0.0,0.0,0.0,0.0,0.0,0.0,-0.1008,-0.1519,-0.1528,-0.26,-0.3075,-0.3075,-0.2052,-0.2138,-0.2989,-0.0899,-0.0597,-0.1485,-0.0427,0.0,0.0,0.0,0.0,0.0,0.0,0.0,0.0,-1.6978,-1.6978,-1.6978,-1.6978,-1.6978,-1.6978,-1.6978,-1.6978,-1.6978,-1.6978,-1.6978,-1.6978,-1.6978,-1.6978,-1.6978,-1.6978,-1.6836,-1.6635,-1.653,-1.6388,-1.6157,-1.5818,-1.5628,-1.5404,-1.514,-1.5133,-1.5004,-1.4694,-1.4694,-1.4579,-1.4401,-1.4367,-1.4346,-1.4346,-1.4312,-1.4299,-1.4299,-1.4299,-1.4299,-1.4299,-1.4299,-1.4299,-1.4299,-1.4299,-1.4299,-1.4299,-1.4299,-1.4299,-1.4299,-1.4299,-1.4299,-1.4299,-1.4299,-1.4299,-1.4299,-1.4299,-1.4299,-1.4272,-1.4156,-1.4166,-1.4095,-1.393,-1.3903,-1.3896,-1.3862,-1.3876,-1.3883,-1.3815,-1.2874,-1.1018,-0.7543,-0.5931,-0.4026,-0.0555,0.0,0.0,0.0,0.0,0.0,0.0,0.0,0.0,0.0,0.0,0.0,0.0,0.0,0.0,0.0,0.0,0.0,0.0,0.0,0.0,0.0,0.0,0.0,0.0,0.0,0.0,0.0,0.0,0.0,0.0,0.0,0.0,0.0,0.0,0.0,0.0,0.0,0.0,0.0,0.0,0.0,0.0,-1.6978,-1.6978,-1.6978,-1.6978,-1.6978,-1.6978,-1.6978,-1.6978,-1.6978,-1.6978,-1.6978,-1.6978,-1.6978,-1.6978,-1.6978,-1.6978,-1.6836,-1.6635,-1.653,-1.6388,-1.6117,-1.5627,-1.5371,-1.5147,-1.5037,-1.503,-1.4903,-1.4694,-1.4694,-1.4681,-1.466,-1.4563,-1.4496,-1.4489,-1.436,-1.4299,-1.4299,-1.4299,-1.4299,-1.4299,-1.4299,-1.4299,-1.4299,-1.4299,-1.4299,-1.4299,-1.4299,-1.4299,-1.4299,-1.4299,-1.4299,-1.4299,-1.4299,-1.4299,-1.4299,-1.4299,-1.4299,-1.4299,-1.4285,-1.4285,-1.4278,-1.4272,-1.4265,-1.4231,-1.4132,-1.4163,-1.4183,-1.3856,-1.0496,-0.745,-0.6996,-0.3399,-0.0365,-0.0041,0.0,0.0,0.0,0.0,0.0,0.0,0.0,0.0,0.0,0.0,0.0,0.0,0.0,0.0,0.0,0.0,0.0,0.0,0.0,0.0,0.0,0.0,0.0,0.0,0.0,0.0,0.0,0.0,0.0,0.0,0.0,0.0,0.0,0.0,0.0,0.0,0.0,0.0,0.0,0.0,0.0,0.0,-1.6978,-1.6978,-1.6978,-1.6978,-1.6978,-1.6978,-1.6978,-1.6978,-1.6978,-1.6978,-1.6978,-1.6978,-1.6978,-1.6978,-1.6978,-1.6978,-1.6836,-1.6635,-1.653,-1.63,-1.6008,-1.5607,-1.5343,-1.516,-1.5153,-1.5099,-1.5031,-1.4882,-1.4882,-1.4835,-1.4687,-1.4539,-1.4563,-1.4599,-1.4407,-1.4346,-1.4428,-1.434,-1.4299,-1.4299,-1.4299,-1.4299,-1.4299,-1.4299,-1.4299,-1.4299,-1.4299,-1.4299,-1.4299,-1.4299,-1.4299,-1.4299,-1.4299,-1.4299,-1.4299,-1.4299,-1.4299,-1.4299,-1.4299,-1.4299,-1.4299,-1.4299,-1.4299,-1.4285,-1.4224,-1.4258,-1.4265,-1.415,-1.1549,-0.8881,-0.7317,-0.4409,-0.1736,-0.0254,0.0,0.0,0.0,0.0,0.0,0.0,0.0,0.0,0.0,0.0,0.0,0.0,0.0,0.0,0.0,0.0,0.0,0.0,0.0,0.0,0.0,0.0,0.0,0.0,0.0,0.0,0.0,0.0,0.0,0.0,0.0,0.0,0.0,0.0,0.0,0.0,0.0,0.0,0.0,0.0,0.0,0.0,-1.6978,-1.6978,-1.6978,-1.6978,-1.6978,-1.6978,-1.6978,-1.6978,-1.6978,-1.6978,-1.6978,-1.6978,-1.6978,-1.6978,-1.6978,-1.6978,-1.6795,-1.6581,-1.653,-1.6198,-1.5879,-1.5533,-1.5316,-1.5181,-1.5181,-1.5181,-1.5133,-1.5038,-1.5038,-1.4984,-1.4829,-1.4672,-1.4593,-1.4681,-1.4434,-1.4353,-1.4441,-1.434,-1.4299,-1.4299,-1.4299,-1.4299,-1.4299,-1.4299,-1.4299,-1.4299,-1.4299,-1.4299,-1.4299,-1.4299,-1.4299,-1.4299,-1.4299,-1.4299,-1.4299,-1.4299,-1.4299,-1.4122,-1.3356,-1.3179,-1.3356,-1.4122,-1.4299,-1.4299,-1.4299,-1.4299,-1.4078,-1.3312,-1.125,-0.882,-0.6463,-0.408,-0.1917,-0.0261,0.0,0.0,0.0,0.0,0.0,0.0,0.0,0.0,0.0,0.0,0.0,0.0,0.0,0.0,0.0,0.0,0.0,0.0,0.0,0.0,0.0,0.0,0.0,0.0,0.0,0.0,0.0,0.0,0.0,0.0,0.0,0.0,0.0,0.0,0.0,0.0,0.0,0.0,0.0,0.0,0.0,0.0,-1.6978,-1.6978,-1.6978,-1.6978,-1.6978,-1.6978,-1.6978,-1.6978,-1.6978,-1.6978,-1.6978,-1.6978,-1.6978,-1.6978,-1.6978,-1.6978,-1.67,-1.6524,-1.6517,-1.6103,-1.5772,-1.5425,-1.5269,-1.5187,-1.5181,-1.5181,-1.5181,-1.5181,-1.5181,-1.5181,-1.5174,-1.4882,-1.4694,-1.4687,-1.4434,-1.4306,-1.4306,-1.4306,-1.4299,-1.4299,-1.4299,-1.4299,-1.4299,-1.4299,-1.4299,-1.4299,-1.4299,-1.4299,-1.4299,-1.4299,-1.4299,-1.4299,-1.4299,-1.4299,-1.4299,-1.4299,-1.4299,-1.3761,-1.1344,-1.0717,-1.125,-1.3673,-1.4255,-1.4255,-1.4255,-1.4255,-1.3578,-1.1161,-0.8753,-0.6344,-0.4027,-0.1644,0.0,0.0,0.0,0.0,0.0,0.0,0.0,0.0,0.0,0.0,0.0,0.0,0.0,0.0,0.0,0.0,0.0,0.0,0.0,0.0,0.0,0.0,0.0,0.0,0.0,0.0,0.0,0.0,0.0,0.0,0.0,0.0,0.0,0.0,0.0,0.0,0.0,0.0,0.0,0.0,0.0,0.0,0.0,0.0,-1.6978,-1.6978,-1.6978,-1.6978,-1.6978,-1.6978,-1.6978,-1.6978,-1.6978,-1.6978,-1.6978,-1.6978,-1.6978,-1.6978,-1.6978,-1.6978,-1.6795,-1.6493,-1.6232,-1.6037,-1.5771,-1.5533,-1.5479,-1.5452,-1.5343,-1.5343,-1.5289,-1.5181,-1.5181,-1.5181,-1.5181,-1.4991,-1.4957,-1.5038,-1.474,-1.4566,-1.4566,-1.4566,-1.4489,-1.4306,-1.4407,-1.4387,-1.4299,-1.4299,-1.4299,-1.4299,-1.4299,-1.4299,-1.4299,-1.4299,-1.4299,-1.4299,-1.4299,-1.4299,-1.4299,-1.4299,-1.4299,-1.3761,-1.1344,-1.0717,-1.0451,-0.9508,-0.9242,-0.9242,-0.9242,-0.9242,-0.9064,-0.8308,-0.6299,-0.4427,-0.3714,-0.1609,0.0,0.0,0.0,0.0,0.0,0.0,0.0,0.0,0.0,0.0,0.0,0.0,0.0,0.0,0.0,0.0,0.0,0.0,0.0,0.0,0.0,0.0,0.0,0.0,0.0,0.0,0.0,0.0,0.0,0.0,0.0,0.0,0.0,0.0,0.0,0.0,0.0,0.0,0.0,0.0,0.0,0.0,0.0,0.0,-1.6992,-1.7026,-1.7046,-1.6992,-1.6978,-1.6978,-1.6978,-1.6978,-1.6978,-1.6978,-1.6978,-1.6978,-1.6978,-1.6978,-1.6978,-1.6978,-1.6836,-1.656,-1.6279,-1.6117,-1.5995,-1.5857,-1.5845,-1.5716,-1.5458,-1.5499,-1.5425,-1.5269,-1.5269,-1.5242,-1.5181,-1.5038,-1.5064,-1.5086,-1.4848,-1.4694,-1.4694,-1.4694,-1.4559,-1.4394,-1.4543,-1.4482,-1.4306,-1.436,-1.4346,-1.4299,-1.4299,-1.4299,-1.4299,-1.4299,-1.4299,-1.4299,-1.4299,-1.4299,-1.4299,-1.4299,-1.3628,-1.237,-0.9913,-0.8619,-0.7328,-0.4874,-0.5722,-0.7102,-0.7102,-0.7102,-0.6834,-0.5901,-0.4606,-0.3312,-0.2374,-0.0987,0.0,0.0,0.0,0.0,0.0,0.0,0.0,0.0,0.0,0.0,0.0,0.0,0.0,0.0,0.0,0.0,0.0,0.0,0.0,0.0,0.0,0.0,0.0,0.0,0.0,0.0,0.0,0.0,0.0,0.0,0.0,0.0,0.0,0.0,0.0,0.0,0.0,0.0,0.0,0.0,0.0,0.0,0.0,0.0,-1.7026,-1.7093,-1.7134,-1.7019,-1.6992,-1.6985,-1.6998,-1.6992,-1.6978,-1.6978,-1.6978,-1.6978,-1.6978,-1.6978,-1.6978,-1.6978,-1.6836,-1.6635,-1.653,-1.6402,-1.632,-1.6293,-1.6171,-1.5967,-1.5634,-1.5614,-1.5581,-1.5432,-1.5432,-1.5357,-1.5221,-1.5092,-1.5071,-1.5051,-1.4862,-1.4741,-1.4714,-1.4728,-1.464,-1.4543,-1.464,-1.457,-1.4333,-1.4448,-1.4414,-1.4299,-1.4299,-1.4299,-1.4299,-1.4299,-1.4299,-1.4299,-1.4299,-1.4299,-1.4299,-1.4299,-1.2597,-1.018,-0.7773,-0.5365,-0.3,-0.0583,-0.3267,-0.6478,-0.6478,-0.6478,-0.5856,-0.3714,-0.3268,-0.2597,-0.0404,0.0,0.0,0.0,0.0,0.0,0.0,0.0,0.0,0.0,0.0,0.0,0.0,0.0,0.0,0.0,0.0,0.0,0.0,0.0,0.0,0.0,0.0,0.0,0.0,0.0,0.0,0.0,0.0,0.0,0.0,0.0,0.0,0.0,0.0,0.0,0.0,0.0,0.0,0.0,0.0,0.0,0.0,0.0,0.0,0.0,-1.7154,-1.708,-1.7053,-1.7134,-1.7053,-1.7019,-1.7127,-1.7053,-1.6978,-1.6978,-1.6978,-1.6978,-1.6978,-1.6978,-1.6978,-1.6978,-1.6836,-1.6635,-1.653,-1.649,-1.6374,-1.6144,-1.6212,-1.6171,-1.5988,-1.5866,-1.5737,-1.5539,-1.5539,-1.5526,-1.5492,-1.5458,-1.5432,-1.5316,-1.5282,-1.514,-1.493,-1.5038,-1.493,-1.4647,-1.4681,-1.4586,-1.4455,-1.4373,-1.4326,-1.4299,-1.4299,-1.4299,-1.4299,-1.4299,-1.4299,-1.4299,-1.4299,-1.4299,-1.4299,-1.4299,-1.2597,-1.018,-0.7773,-0.5365,-0.3,-0.0583,-0.0762,-0.1524,-0.1524,-0.1524,-0.139,-0.0897,-0.0762,-0.0628,-0.009,0.0,0.0,0.0,0.0,0.0,0.0,0.0,0.0,0.0,0.0,0.0,0.0,0.0,0.0,0.0,0.0,0.0,0.0,0.0,0.0,0.0,0.0,0.0,0.0,0.0,0.0,0.0,0.0,0.0,0.0,0.0,0.0,0.0,0.0,0.0,0.0,0.0,0.0,0.0,0.0,0.0,0.0,0.0,0.0,0.0,-1.7209,-1.7195,-1.7168,-1.71,-1.7032,-1.7005,-1.708,-1.7026,-1.6978,-1.6978,-1.6978,-1.6978,-1.6978,-1.6978,-1.6978,-1.6978,-1.6904,-1.6829,-1.6748,-1.6673,-1.6479,-1.63,-1.63,-1.6239,-1.6083,-1.6051,-1.5886,-1.5744,-1.5744,-1.571,-1.5587,-1.5512,-1.5486,-1.5404,-1.5337,-1.5215,-1.5126,-1.5153,-1.5052,-1.4855,-1.4923,-1.4821,-1.4618,-1.4618,-1.457,-1.4502,-1.4428,-1.436,-1.4299,-1.4299,-1.4299,-1.4299,-1.4299,-1.3496,-1.2597,-1.2597,-1.0091,-0.706,-0.5767,-0.3714,-0.1569,-0.0314,0.0,0.0,0.0,0.0,0.0,0.0,0.0,0.0,0.0,0.0,0.0,0.0,0.0,0.0,0.0,0.0,0.0,0.0,0.0,0.0,0.0,0.0,0.0,0.0,0.0,0.0,0.0,0.0,0.0,0.0,0.0,0.0,0.0,0.0,0.0,0.0,0.0,0.0,0.0,0.0,0.0,0.0,0.0,0.0,0.0,0.0,0.0,0.0,0.0,0.0,0.0,0.0,0.0,0.0,-1.7263,-1.7311,-1.7311,-1.7093,-1.7012,-1.6992,-1.7012,-1.6998,-1.6978,-1.6978,-1.6978,-1.6978,-1.6978,-1.6978,-1.6978,-1.6978,-1.6978,-1.6971,-1.6944,-1.6842,-1.6655,-1.653,-1.6435,-1.63,-1.6123,-1.6123,-1.6049,-1.5942,-1.5942,-1.5832,-1.5661,-1.5588,-1.5513,-1.5479,-1.533,-1.5248,-1.5221,-1.5194,-1.516,-1.5064,-1.5106,-1.4997,-1.4787,-1.4896,-1.4855,-1.4681,-1.4552,-1.4462,-1.434,-1.434,-1.4319,-1.421,-1.3805,-1.2325,-1.0629,-1.0224,-0.7012,-0.358,-0.358,-0.1839,0.0,0.0,0.0,0.0,0.0,0.0,0.0,0.0,0.0,0.0,0.0,0.0,0.0,0.0,0.0,0.0,0.0,0.0,0.0,0.0,0.0,0.0,0.0,0.0,0.0,0.0,0.0,0.0,0.0,0.0,0.0,0.0,0.0,0.0,0.0,0.0,0.0,0.0,0.0,0.0,0.0,0.0,0.0,0.0,0.0,0.0,0.0,0.0,0.0,0.0,0.0,0.0,0.0,0.0,0.0,0.0,-1.7419,-1.7297,-1.7249,-1.7344,-1.7148,-1.7019,-1.7148,-1.706,-1.6978,-1.6978,-1.6978,-1.6978,-1.6978,-1.6978,-1.6978,-1.6978,-1.6978,-1.6924,-1.6736,-1.689,-1.6822,-1.653,-1.6581,-1.6513,-1.6286,-1.6279,-1.6205,-1.6049,-1.6049,-1.6042,-1.6022,-1.6001,-1.592,-1.5833,-1.5642,-1.5506,-1.5371,-1.5242,-1.5174,-1.5147,-1.5085,-1.5023,-1.493,-1.4814,-1.4714,-1.4687,-1.4674,-1.4611,-1.4482,-1.4482,-1.4401,-1.3938,-1.1832,-1.0939,-1.0268,-0.8219,-0.5678,-0.358,-0.358,-0.185,0.0,0.0,0.0,0.0,0.0,0.0,0.0,0.0,0.0,0.0,0.0,0.0,0.0,0.0,0.0,0.0,0.0,0.0,0.0,0.0,0.0,0.0,0.0,0.0,0.0,0.0,0.0,0.0,0.0,0.0,0.0,0.0,0.0,0.0,0.0,0.0,0.0,0.0,0.0,0.0,0.0,0.0,0.0,0.0,0.0,0.0,0.0,0.0,0.0,0.0,0.0,0.0,0.0,0.0,0.0,0.0,-1.7324,-1.7311,-1.729,-1.7188,-1.7066,-1.7005,-1.7066,-1.7019,-1.6978,-1.6978,-1.6978,-1.6978,-1.6978,-1.6978,-1.6978,-1.6978,-1.6978,-1.6951,-1.6883,-1.6944,-1.6883,-1.6608,-1.6662,-1.6601,-1.6435,-1.6429,-1.6395,-1.6327,-1.6164,-1.6083,-1.6083,-1.6044,-1.5969,-1.5894,-1.5703,-1.5553,-1.5479,-1.5377,-1.5309,-1.5296,-1.5147,-1.5086,-1.5079,-1.5011,-1.4991,-1.4977,-1.4896,-1.4774,-1.4593,-1.4593,-1.4552,-1.4318,-1.3269,-1.104,-0.8652,-0.757,-0.4583,-0.1569,-0.1569,-0.081,0.0,0.0,0.0,0.0,0.0,0.0,0.0,0.0,0.0,0.0,0.0,0.0,0.0,0.0,0.0,0.0,0.0,0.0,0.0,0.0,0.0,0.0,0.0,0.0,0.0,0.0,0.0,0.0,0.0,0.0,0.0,0.0,0.0,0.0,0.0,0.0,0.0,0.0,0.0,0.0,0.0,0.0,0.0,0.0,0.0,0.0,0.0,0.0,0.0,0.0,0.0,0.0,0.0,0.0,0.0,0.0]},{"header":{"parameterUnit":"m.s-1","parameterCategory":1,"la1":30.6,"la2":28.766,"lo1":-90.7593,"lo2":-88.6598,"dy":0.0162,"dx":0.0183,"nx":116,"ny":114,"refTime":"2023-10-01T06:00:00:Z","depth":0,"parameterNumber":3,"parameterNumberName":"V-component_of_WINDS"},"data":[0.0,0.0,0.0,0.0,0.0,0.0,0.0,0.0,0.0,0.0,0.0,0.0,0.0,0.0,0.0,0.0,0.0,0.0,0.0,0.0,0.0,0.0,0.0,0.0,0.0,0.0,0.0,0.0,0.0,0.0,0.0,0.0,0.0,0.0,0.0,0.0,0.0,0.0,0.0,0.0,0.0,0.0,0.0,0.0,0.0,0.0,0.0,0.0,0.0,0.0,0.0,0.0,0.0,0.0,0.0,0.0,0.0,0.0,0.0,0.0,0.0,0.0,0.0,0.0,0.0,0.0,0.0,0.0,0.0,0.0,0.0,0.0,0.0,0.0,0.0,0.0,0.0,0.0,0.0,0.0,0.0,0.0,0.0,0.0,0.0,0.0,0.0,0.0,0.0,0.0,0.0,0.0,0.0,0.0,0.0,0.0,0.0,0.0,0.0,0.0,0.0,0.0,0.0,0.0,0.0,0.0,0.0,0.0,0.0,0.0,0.0,0.0,0.0,0.0,0.0,0.0,0.0,0.0,0.0,0.0,0.0,0.0,0.0,0.0,0.0,0.0,0.0,0.0,0.0,0.0,0.0,0.0,0.0,0.0,0.0,0.0,0.0,0.0,0.0,0.0,0.0,0.0,0.0,0.0,0.0,0.0,0.0,0.0,0.0,0.0,0.0,0.0,0.0,0.0,0.0,0.0,0.0,0.0,0.0,0.0,0.0,0.0,0.0,0.0,0.0,0.0,0.0,0.0,0.0,0.0,0.0,0.0,0.0,0.0,0.0,0.0,0.0,0.0,0.0,0.0,0.0,0.0,0.0,0.0,0.0,0.0,0.0,0.0,0.0,0.0,0.0,0.0,0.0,0.0,0.0,0.0,0.0,0.0,0.0,0.0,0.0,0.0,0.0,0.0,0.0,0.0,0.0,0.0,0.0,0.0,0.0,0.0,0.0,0.0,0.0,0.0,0.0,0.0,0.0,0.0,0.0,0.0,0.0,0.0,0.0,0.0,0.0,0.0,0.0,0.0,0.0,0.0,0.0,0.0,0.0,0.0,0.0,0.0,0.0,0.0,0.0,0.0,0.0,0.0,0.0,0.0,0.0,0.0,0.0,0.0,0.0,0.0,0.0,0.0,0.0,0.0,0.0,0.0,0.0,0.0,0.0,0.0,0.0,0.0,0.0,0.0,0.0,0.0,0.0,0.0,0.0,0.0,0.0,0.0,0.0,0.0,0.0,0.0,0.0,0.0,0.0,0.0,0.0,0.0,0.0,0.0,0.0,0.0,0.0,0.0,0.0,0.0,0.0,0.0,0.0,0.0,0.0,0.0,0.0,0.0,0.0,0.0,0.0,0.0,0.0,0.0,0.0,0.0,0.0,0.0,0.0,0.0,0.0,0.0,0.0,0.0,0.0,0.0,0.0,0.0,0.0,0.0,0.0,0.0,0.0,0.0,0.0,0.0,0.0,0.0,0.0,0.0,0.0,0.0,0.0,0.0,0.0,0.0,0.0,0.0,0.0,0.0,0.0,0.0,0.0,0.0,0.0,0.0,0.0,0.0,0.0,0.0,0.0,0.0,0.0,0.0,0.0,0.0,0.0,0.0,0.0,0.0,0.0,0.0,0.0,0.0,0.0,0.0,0.0,0.0,0.0,0.0,0.0,0.0,0.0,0.0,0.0,0.0,0.0,0.0,0.0,0.0,0.0,0.0,0.0,0.0,0.0,0.0,0.0,0.0,0.0,0.0,0.0,0.0,0.0,0.0,0.0,0.0,0.0,0.0,0.0,0.0,0.0,0.0,0.0,0.0,0.0,0.0,0.0,0.0,0.0,0.0,0.0,0.0,0.0,0.0,0.0,0.0,0.0,0.0,0.0,0.0,0.0,0.0,0.0,0.0,0.0,0.0,0.0,0.0,0.0,0.0,0.0,0.0,0.0,0.0,0.0,0.0,0.0,0.0,0.0,0.0,0.0,0.0,0.0,0.0,0.0,0.0,0.0,0.0,0.0,0.0,0.0,0.0,0.0,0.0,0.0,0.0,0.0,0.0,0.0,0.0,0.0,0.0,0.0,0.0,0.0,0.0,0.0,0.0,0.0,0.0,0.0,0.0,0.0,0.0,0.0,0.0,0.0,0.0,0.0,0.0,0.0,0.0,0.0,0.0,0.0,0.0,0.0,0.0,0.0,0.0,0.0,0.0,0.0,0.0,0.0,0.0,0.0,0.0,0.0,0.0,0.0,0.0,0.0,0.0,0.0,0.0,0.0,0.0,0.0,0.0,0.0,0.0,0.0,0.0,0.0,0.0,0.0,0.0,0.0,0.0,0.0,0.0,0.0,0.0,0.0,0.0,0.0,0.0,0.0,0.0,0.0,0.0,0.0,0.0,0.0,0.0,0.0,0.0,0.0,0.0,0.0,0.0,0.0,0.0,0.0,0.0,0.0,0.0,0.0,0.0,0.0,0.0,0.0,0.0,0.0,0.0,0.0,0.0,0.0,0.0,0.0,0.0,0.0,0.0,0.0,0.0,0.0,0.0,0.0,0.0,0.0,0.0,0.0,0.0,0.0,0.0,0.0,0.0,0.0,0.0,0.0,0.0,0.0,0.0,0.0,0.0,0.0,0.0,0.0,0.0,0.0,0.0,0.0,0.0,0.0,0.0,0.0,0.0,0.0,0.0,0.0,0.0,0.0,0.0,0.0,0.0,0.0,0.0,0.0,0.0,0.0,0.0,0.0,0.0,0.0,0.0,0.0,0.0,0.0,0.0,0.0,0.0,0.0,0.0,0.0,0.0,0.0,0.0,0.0,0.0,0.0,0.0,0.0,0.0,0.0,0.0,0.0,0.0,0.0,0.0,0.0,0.0,0.0,0.0,0.0,0.0,0.0,0.0,0.0,0.0,0.0,0.0,0.0,0.0,0.0,0.0,0.0,0.0,0.0,0.0,0.0,0.0,0.0,0.0,0.0,0.0,0.0,0.0,0.0,0.0,0.0,0.0,0.0,0.0,0.0,0.0,0.0,0.0,0.0,0.0,0.0,0.0,0.0,0.0,0.0,0.0,0.0,0.0,0.0,0.0,0.0,0.0,0.0,0.0,0.0,0.0,0.0,0.0,0.0,0.0,0.0,0.0,0.0,0.0,0.0,0.0,0.0,0.0,0.0,0.0,0.0,0.0,0.0,0.0,0.0,0.0,0.0,0.0,0.0,0.0,0.0,0.0,0.0,0.0,0.0,0.0,0.0,0.0,0.0,0.0,0.0,0.0,0.0,0.0,0.0,0.0,0.0,0.0,0.0,0.0,0.0,0.0,0.0,0.0,0.0,0.0,0.0,0.0,0.0,0.0,0.0,0.0,0.0,0.0,0.0,0.0,0.0,0.0,0.0,0.0,0.0,0.0,0.0,0.0,0.0,0.0,0.0,0.0,0.0,0.0,0.0,0.0,0.0,0.0,0.0,0.0,0.0,0.0,0.0,0.0,0.0,0.0,0.0,0.0,0.0,0.0,0.0,0.0,0.0,0.0,0.0,0.0,0.0,0.0,0.0,0.0,0.0,0.0,0.0,0.0,0.0,0.0,0.0,0.0,0.0,0.0,0.0,0.0,0.0,0.0,0.0,0.0,0.0,0.0,0.0,0.0,0.0,0.0,0.0,0.0,0.0,0.0,0.0,0.0,0.0,0.0,0.0,0.0,0.0,0.0,0.0,0.0,0.0,0.0,0.0,0.0,0.0,0.0,0.0,0.0,0.0,0.0,0.0,0.0,0.0,0.0,0.0,0.0,0.0,0.0,0.0,0.0,0.0,0.0,0.0,0.0,0.0,0.0,0.0,0.0,0.0,0.0,0.0,0.0,0.0,0.0,0.0,0.0,0.0,0.0,0.0,0.0,0.0,0.0,0.0,0.0,0.0,0.0,0.0,0.0,0.0,0.0,0.0,0.0,0.0,0.0,0.0,0.0,0.0,0.0,0.0,0.0,0.0,0.0,0.0,0.0,0.0,0.0,0.0,0.0,0.0,0.0,0.0,0.0,0.0,0.0,0.0,0.0,0.0,0.0,0.0,0.0,0.0,0.0,0.0,0.0,0.0,0.0,0.0,0.0,0.0,0.0,0.0,0.0,0.0,0.0,0.0,0.0,0.0,0.0,0.0,0.0,0.0,0.0,0.0,0.0,0.0,0.0,0.0,0.0,0.0,0.0,0.0,0.0,0.0,0.0,0.0,0.0,0.0,0.0,0.0,0.0,0.0,0.0,0.0,0.0,0.0,0.0,0.0,0.0,0.0,0.0,0.0,0.0,0.0,0.0,0.0,0.0,0.0,0.0,0.0,0.0,0.0,0.0,0.0,0.0,0.0,0.0,0.0,0.0,0.0,0.0,0.0,0.0,0.0,0.0,0.0,0.0,0.0,0.0,0.0,0.0,0.0,0.0,0.0,0.0,0.0,0.0,0.0,0.0,0.0,0.0,0.0,0.0,0.0,0.0,0.0,0.0,0.0,0.0,0.0,0.0,0.0,0.0,0.0,0.0,0.0,0.0,0.0,0.0,0.0,0.0,0.0,0.0,0.0,0.0,0.0,0.0,0.0,0.0,0.0,0.0,0.0,0.0,0.0,0.0,0.0,0.0,0.0,0.0,0.0,0.0,0.0,0.0,0.0,0.0,0.0,0.0,0.0,0.0,0.0,0.0,0.0,0.0,0.0,0.0,0.0,0.0,0.0,0.0,0.0,0.0,0.0,0.0,0.0,0.0,0.0,0.0,0.0,0.0,0.0,0.0,0.0,0.0,0.0,0.0,0.0,0.0,0.0,0.0,0.0,0.0,0.0,0.0,0.0,0.0,0.0,0.0,0.0,0.0,0.0,0.0,0.0,0.0,0.0,0.0,0.0,0.0,0.0,0.0,0.0,0.0,0.0,0.0,0.0,0.0,0.0,0.0,0.0,0.0,0.0,0.0,0.0,0.0,0.0,0.0,0.0,0.0,0.0,0.0,0.0,0.0,0.0,0.0,0.0,0.0,0.0,0.0,0.0,0.0,0.0,0.0,0.0,0.0,0.0,0.0,0.0,0.0,0.0,0.0,0.0,0.0,0.0,0.0,0.0,0.0,0.0,0.0,0.0,0.0,0.0,0.0,0.0,0.0,0.0,0.0,0.0,0.0,0.0,0.0,0.0,0.0,0.0,0.0,0.0,0.0,0.0,0.0,0.0,0.0,0.0,0.0,0.0,0.0,0.0,0.0,0.0,0.0,0.0,0.0,0.0,0.0,0.0,0.0,0.0,0.0,0.0,0.0,0.0,0.0,0.0,0.0,0.0,0.0,0.0,0.0,0.0,0.0,0.0,0.0,0.0,0.0,0.0,0.0,0.0,0.0,0.0,0.0,0.0,0.0,0.0,0.0,0.0,0.0,0.0,0.0,0.0,0.0,0.0,0.0,0.0,0.0,0.0,0.0,0.0,0.0,0.0,0.0,0.0,0.0,0.0,0.0,0.0,0.0,0.0,0.0,0.0,0.0,0.0,0.0,0.0,0.0,0.0,0.0,0.0,0.0,0.0,0.0,0.0,0.0,0.0,0.0,0.0,0.0,0.0,0.0,0.0,0.0,0.0,0.0,0.0,0.0,0.0,0.0,0.0,0.0,0.0,0.0,0.0,0.0,0.0,0.0,0.0,0.0,0.0,0.0,0.0,0.0,0.0,0.0,0.0,0.0,0.0,0.0,0.0,0.0,0.0,0.0,0.0,0.0,0.0,0.0,0.0,0.0,0.0,0.0,0.0,0.0,0.0,0.0,0.0,0.0,0.0,0.0,0.0,0.0,0.0,0.0,0.0,0.0,0.0,0.0,0.0,0.0,0.0,0.0,0.0,0.0,0.0,0.0,0.0,0.0,0.0,0.0,0.0,0.0,0.0,0.0,0.0,0.0,0.0,0.0,0.0,0.0,0.0,0.0,0.0,0.0,0.0,0.0,0.0,0.0,0.0,0.0,0.0,0.0,0.0,0.0,0.0,0.0,0.0,0.0,0.0,0.0,0.0,0.0,0.0,0.0,0.0,0.0,0.0,0.0,0.0,0.0,0.0,0.0,0.0,0.0,0.0,0.0,0.0,0.0,0.0,0.0,0.0,0.0,0.0,0.0,2.9619,2.901,0.0,0.0,0.0,0.0,0.0,0.0,0.0,0.0,0.0,0.0,0.0,0.0,0.0,0.0,0.0,0.0,0.0,0.0,0.0,0.0,0.0,0.0,0.0,0.0,0.0,0.0,0.0,0.0,0.0,0.0,0.0,0.0,0.0,0.0,0.0,0.0,0.0,3.8937,3.9356,3.9525,3.9525,3.9153,3.8768,3.843,0.0,0.0,0.0,0.0,0.0,0.0,0.0,0.0,0.0,0.0,0.0,0.0,0.0,0.0,0.0,0.0,0.0,0.0,0.0,0.0,0.0,0.0,0.0,0.0,0.0,0.0,0.0,0.0,0.0,0.0,0.0,0.0,0.0,0.0,0.0,0.0,0.0,0.0,0.0,0.0,0.0,0.0,0.0,0.0,0.0,0.0,0.0,0.0,0.0,0.0,0.0,0.0,0.0,0.0,0.0,0.0,0.0,0.0,0.0,0.0,0.0,0.0,0.0,0.0,0.0,0.0,0.0,0.0,0.0,0.0,3.2249,3.1336,0.0,0.0,0.0,0.0,0.0,0.0,0.0,0.0,0.0,0.0,0.0,0.0,0.0,0.0,0.0,0.0,0.0,0.0,0.0,0.0,0.0,0.0,0.0,4.0113,4.0113,4.0113,4.0113,4.0113,4.0113,0.0,0.0,0.0,0.0,0.0,4.0113,4.0113,4.0113,4.0113,4.035,4.062,4.0891,4.1014,4.0811,4.0337,3.9559,0.0,0.0,0.0,0.0,0.0,0.0,0.0,0.0,0.0,0.0,0.0,0.0,0.0,0.0,0.0,0.0,0.0,0.0,0.0,0.0,0.0,0.0,0.0,0.0,0.0,0.0,0.0,0.0,0.0,0.0,0.0,0.0,0.0,0.0,0.0,0.0,0.0,0.0,0.0,0.0,0.0,0.0,0.0,0.0,0.0,0.0,0.0,0.0,0.0,0.0,0.0,0.0,0.0,0.0,0.0,0.0,0.0,0.0,0.0,0.0,0.0,0.0,0.0,3.9343,3.9648,3.9999,3.9999,3.9648,3.8903,3.6163,3.4945,3.4753,3.278,0.0,0.0,0.0,0.0,0.0,0.0,0.0,0.0,0.0,0.0,0.0,0.0,0.0,0.0,0.0,0.0,0.0,0.0,0.0,3.9978,4.01,4.0113,4.0113,4.0113,4.0113,4.0113,4.0113,4.0113,0.0,0.0,0.0,4.0113,4.0113,4.0113,4.0113,4.0113,4.1386,4.2706,4.4025,4.4654,4.5263,4.5616,4.1704,4.0675,4.169,0.0,0.0,0.0,0.0,0.0,0.0,0.0,0.0,0.0,0.0,0.0,0.0,0.0,0.0,0.0,0.0,0.0,0.0,0.0,0.0,0.0,0.0,0.0,0.0,0.0,0.0,0.0,0.0,0.0,0.0,0.0,0.0,0.0,0.0,0.0,0.0,0.0,0.0,0.0,0.0,0.0,3.5041,3.5041,0.0,0.0,0.0,0.0,0.0,0.0,0.0,0.0,0.0,0.0,0.0,0.0,0.0,3.9872,4.1146,4.1976,4.2814,4.3721,4.5007,4.5007,4.3856,4.3856,4.3789,4.3619,4.1894,0.0,3.6411,3.5442,0.0,0.0,0.0,0.0,0.0,0.0,0.0,0.0,0.0,0.0,0.0,0.0,0.0,0.0,0.0,0.0,0.0,0.0,0.0,0.0,0.0,4.0844,4.1183,4.0743,4.2252,4.2523,4.0832,4.1474,0.0,0.0,4.0113,4.0113,4.0113,4.0113,4.0709,4.1948,4.3876,4.5399,4.6447,4.6786,4.7109,4.7327,4.4939,4.3504,4.2828,4.1102,0.0,0.0,0.0,0.0,0.0,0.0,0.0,0.0,0.0,0.0,0.0,0.0,0.0,0.0,0.0,0.0,0.0,0.0,0.0,0.0,0.0,0.0,0.0,0.0,0.0,0.0,0.0,0.0,0.0,0.0,0.0,0.0,0.0,0.0,0.0,0.0,0.0,0.0,0.0,3.6303,3.7086,3.584,3.6551,3.6919,0.0,0.0,0.0,0.0,0.0,0.0,0.0,0.0,0.0,4.1694,4.2726,4.3558,4.4215,4.4925,4.6109,4.768,4.7936,4.8139,4.8308,4.7883,4.7477,4.6989,4.594,4.4282,4.2164,3.887,3.7077,3.6299,0.0,0.0,0.0,0.0,3.4912,3.5351,0.0,0.0,0.0,0.0,0.0,0.0,0.0,0.0,0.0,0.0,0.0,0.0,4.0608,4.1826,4.2523,4.2354,4.4032,4.4248,4.2185,4.2374,4.1914,4.0438,4.0214,4.0113,4.0113,4.0641,4.2117,4.4559,4.6616,4.8206,4.9341,4.951,4.9713,4.9848,4.8917,4.7056,4.4471,4.2929,4.1136,3.9196,0.0,0.0,0.0,0.0,0.0,0.0,0.0,0.0,0.0,0.0,0.0,0.0,0.0,0.0,0.0,0.0,0.0,0.0,0.0,0.0,0.0,0.0,0.0,0.0,0.0,0.0,0.0,0.0,0.0,0.0,0.0,0.0,0.0,0.0,0.0,0.0,0.0,3.7678,3.8798,3.6787,3.8833,3.972,0.0,0.0,0.0,0.0,0.0,0.0,4.2591,4.4215,4.5466,4.6259,4.6819,4.738,4.797,4.8342,4.9424,5.1233,5.071,5.0913,5.1776,5.1014,5.0371,4.9796,4.907,4.8225,4.6989,4.2367,3.9986,3.9162,3.7843,3.7302,3.7302,3.7302,3.7686,3.8273,0.0,0.0,0.0,0.0,0.0,0.0,0.0,0.0,0.0,0.0,0.0,4.0641,4.2029,4.2895,4.393,4.535,4.4268,4.3775,4.4398,4.1826,4.054,4.1136,4.0472,4.0113,4.0113,4.2151,4.4708,4.7684,4.9187,5.1048,5.3247,5.3923,5.4634,5.5259,5.3822,5.11,4.7447,4.3842,4.2625,4.2746,3.8543,0.0,0.0,0.0,0.0,0.0,0.0,0.0,0.0,0.0,0.0,0.0,0.0,0.0,0.0,0.0,0.0,0.0,0.0,0.0,0.0,0.0,0.0,0.0,0.0,0.0,0.0,0.0,0.0,0.0,0.0,0.0,0.0,0.0,0.0,0.0,0.0,0.0,0.0,3.9002,4.2083,0.0,0.0,0.0,0.0,4.2117,4.479,4.6496,4.653,4.8594,5.0101,5.0829,5.0897,5.1945,5.4143,5.3484,5.3585,5.438,5.4347,5.3991,5.3382,5.257,5.2164,5.2097,5.1336,5.022,4.8646,4.5582,4.3856,4.3051,4.2252,4.1961,4.1961,4.1961,4.1995,4.2029,0.0,0.0,0.0,0.0,0.0,0.0,0.0,0.0,4.0113,4.0113,4.0912,4.2097,4.3619,4.5703,4.7225,4.78,4.8597,4.824,4.6157,4.4567,4.3369,4.2645,4.1441,4.1487,4.2943,4.5148,4.7752,5.0728,5.3213,5.531,5.7052,5.7288,5.7559,5.7762,5.6292,5.4634,5.2621,4.7887,4.4945,4.3186,4.0663,3.8768,0.0,0.0,0.0,0.0,0.0,0.0,0.0,0.0,0.0,0.0,0.0,0.0,0.0,0.0,0.0,0.0,0.0,0.0,0.0,0.0,0.0,0.0,0.0,0.0,0.0,0.0,0.0,0.0,0.0,0.0,0.0,0.0,0.0,0.0,0.0,0.0,0.0,4.4093,4.6887,0.0,4.6684,4.6819,4.709,4.7308,4.9661,5.1319,5.1809,5.345,5.4735,5.548,5.504,5.5209,5.6021,5.5259,5.531,5.6021,5.5547,5.5158,5.4887,5.4126,5.3518,5.3044,5.2266,5.1623,5.1014,4.9492,4.7293,4.4809,4.4059,4.3789,4.3822,4.4316,4.4485,4.4553,0.0,0.0,0.0,0.0,0.0,0.0,0.0,4.0113,4.0113,4.0113,4.1589,4.3335,4.5142,4.797,4.995,5.0473,5.115,5.0405,4.7699,4.5669,4.4113,4.3051,4.2341,4.3234,4.6022,4.824,5.1066,5.4566,5.6562,5.8457,6.0148,5.9892,5.9911,6.008,5.8592,5.7645,5.6916,5.2689,4.8868,4.5418,4.2658,4.117,4.0223,0.0,0.0,0.0,0.0,0.0,0.0,0.0,0.0,0.0,0.0,0.0,0.0,0.0,0.0,0.0,0.0,0.0,0.0,0.0,0.0,0.0,0.0,0.0,0.0,0.0,0.0,0.0,0.0,0.0,0.0,0.0,0.0,0.0,0.0,4.5684,4.8695,4.8695,5.1725,5.323,5.1775,5.186,5.2198,5.2688,5.46,5.5953,5.6427,5.7645,5.8524,5.9032,5.8084,5.7679,5.7915,5.7187,5.6815,5.6799,5.6562,5.6172,5.5665,5.5209,5.4566,5.3856,5.3315,5.2773,5.2266,5.1776,4.9984,4.7481,4.6733,4.6293,4.6157,4.665,4.6819,4.6853,0.0,0.0,0.0,0.0,0.0,0.0,4.0011,4.0113,4.0113,4.0113,4.2083,4.4336,4.6616,4.951,5.1877,5.345,5.1454,4.9796,4.9052,4.4823,4.2367,4.2367,4.3152,4.5317,4.9052,5.1319,5.4634,5.9081,5.9115,6.0283,6.2468,6.1738,6.1806,6.2434,6.0892,6.0216,6.0114,5.7881,5.4431,4.9981,4.4702,4.3842,4.5181,0.0,0.0,0.0,0.0,0.0,0.0,0.0,0.0,0.0,0.0,0.0,0.0,0.0,0.0,0.0,0.0,0.0,0.0,0.0,0.0,0.0,0.0,0.0,0.0,0.0,0.0,0.0,0.0,0.0,0.0,0.0,0.0,0.0,4.4939,4.9304,5.2587,5.2655,5.6494,5.7999,5.5141,5.6851,5.8103,5.8069,5.9438,6.025,6.025,6.096,6.1366,6.1366,5.9859,5.9419,6.0148,5.9385,5.8321,5.69,5.7629,5.7205,5.5767,5.5767,5.5327,5.4651,5.4651,5.3754,5.2367,5.2367,5.1928,5.1167,5.0405,4.9695,4.9086,4.9086,4.9086,4.8951,0.0,0.0,0.0,0.0,0.0,0.0,4.0079,4.0113,4.0113,4.0113,4.2997,4.5925,4.8139,5.1082,5.3484,5.4955,5.252,5.0371,4.9086,4.5297,4.3369,4.3924,4.621,4.8984,5.2198,5.4938,5.778,6.0689,6.1719,6.2854,6.4005,6.3802,6.4072,6.4735,6.3226,6.2854,6.3226,6.0994,5.9336,5.7679,5.1319,4.7868,4.6143,0.0,0.0,0.0,0.0,0.0,0.0,0.0,0.0,0.0,0.0,0.0,0.0,0.0,0.0,0.0,0.0,0.0,0.0,0.0,0.0,0.0,0.0,0.0,0.0,0.0,0.0,0.0,0.0,0.0,0.0,0.0,4.9763,5.1691,5.0371,5.3754,5.702,5.866,6.0892,6.1921,6.111,6.2076,6.255,6.2009,6.3328,6.3937,6.3396,6.3091,6.2902,6.2902,6.1467,6.0791,6.096,6.0182,5.9607,5.9201,5.9404,5.8727,5.7306,5.7306,5.6596,5.5395,5.5395,5.4871,5.3957,5.3957,5.3179,5.1928,5.1183,5.0761,5.066,5.1217,5.1048,5.0423,0.0,0.0,0.0,0.0,0.0,0.0,4.0113,4.0113,4.0113,4.0113,4.3653,4.6786,4.836,5.1522,5.3568,5.3805,5.1641,4.939,4.7293,4.5384,4.4993,4.6394,4.9593,5.2739,5.575,5.8423,6.0911,6.3125,6.4005,6.4952,6.5967,6.5967,6.6406,6.7049,6.5865,6.5595,6.5865,6.4275,6.326,6.2313,5.8066,5.4397,5.103,4.7177,4.5317,4.4505,4.2523,4.1677,4.1271,3.9783,0.0,0.0,0.0,0.0,0.0,0.0,0.0,0.0,0.0,0.0,0.0,0.0,0.0,0.0,0.0,0.0,0.0,0.0,0.0,0.0,0.0,0.0,0.0,0.0,5.4143,5.6799,5.778,5.9776,6.1772,6.3429,6.4952,6.573,6.5392,6.573,6.5933,6.5865,6.6034,6.5967,6.5561,6.4816,6.441,6.441,6.3294,6.255,6.2226,6.1772,6.1061,6.0114,6.0452,5.981,5.8355,5.8355,5.7577,5.6139,5.6139,5.575,5.5074,5.5074,5.4532,5.3568,0.0,0.0,0.0,0.0,5.1116,5.0574,0.0,0.0,0.0,0.0,0.0,0.0,4.0113,4.0113,4.0113,4.0113,4.3856,4.6786,4.7447,5.0728,5.2401,5.1167,4.9492,4.7394,4.477,4.5365,4.6921,4.939,5.3112,5.6427,5.9317,6.1603,6.3788,6.5797,6.592,6.6643,6.803,6.803,6.847,6.918,6.8402,6.8064,6.8098,6.7387,6.6305,6.5053,6.4187,6.1535,5.7426,5.186,5.0389,5.0863,4.7346,4.5249,4.393,4.2354,0.0,0.0,0.0,0.0,0.0,0.0,0.0,0.0,0.0,0.0,0.0,0.0,0.0,0.0,0.0,0.0,0.0,0.0,0.0,0.0,0.0,0.0,0.0,0.0,5.8371,6.1347,6.5615,6.6292,6.6508,6.6994,6.8267,6.8808,6.8098,6.8098,6.8402,6.9045,6.7827,6.7062,6.7062,6.6203,0.0,0.0,0.0,6.414,6.3376,6.3376,6.2313,6.025,6.096,6.0486,5.9013,5.9013,5.8235,5.6934,5.6934,5.6461,5.5699,5.5699,5.5597,5.5259,5.3315,5.2131,5.137,5.0608,5.0353,5.0236,0.0,0.0,0.0,0.0,0.0,0.0,4.0113,4.0113,4.0113,4.0113,4.299,4.5074,4.521,4.7496,4.9341,5.0236,4.7342,4.521,4.4649,4.5853,4.8409,5.2469,5.619,5.9302,6.167,6.3923,6.5561,6.6609,6.7184,6.7963,6.8876,6.8876,6.9282,6.9958,6.9214,6.918,6.971,6.8977,6.8504,6.8098,6.6724,6.3207,5.8472,5.553,5.3433,5.1758,4.9255,4.8545,4.8477,4.6413,4.6007,4.6061,4.4127,4.2773,0.0,0.0,0.0,0.0,0.0,0.0,0.0,0.0,0.0,0.0,0.0,0.0,0.0,0.0,0.0,0.0,0.0,0.0,0.0,6.0351,6.3463,6.6237,6.8965,6.9823,6.9823,6.8774,6.891,6.9045,6.8876,6.9417,6.9553,6.9147,6.8808,6.8673,6.8673,6.6779,6.5717,6.5717,6.441,6.3362,6.2618,6.2618,6.2076,6.1061,6.1231,0.0,5.9013,5.9013,5.8524,5.7697,5.7697,5.6934,5.5699,5.5699,5.4989,5.3957,5.4093,5.3687,5.2976,5.2164,5.186,5.1758,0.0,0.0,0.0,0.0,0.0,0.0,4.0113,4.0113,4.0113,4.0113,4.2367,4.4012,4.4012,4.5655,4.6771,4.6752,4.4384,4.3687,4.5582,4.7767,5.1183,5.6037,5.9453,6.2144,6.4025,6.5886,6.6981,6.7354,6.8504,6.9248,6.9654,7.0026,7.0398,7.0737,7.0364,7.0398,7.0737,7.0364,6.9992,6.9553,6.8402,6.5912,6.2564,5.9622,5.7103,5.4871,5.301,5.186,5.0913,4.9068,4.8206,4.765,4.6177,4.4668,4.3315,0.0,0.0,0.0,0.0,0.0,0.0,0.0,0.0,0.0,0.0,0.0,0.0,0.0,0.0,5.2588,5.5158,0.0,6.0805,6.4546,6.6745,6.8605,7.05,7.1075,7.0906,6.9789,6.9992,7.006,6.9688,6.9958,7.0026,6.9688,6.8944,6.8504,6.8504,6.7083,6.6068,6.5717,6.4986,6.4072,6.2956,6.2584,6.2009,6.1298,6.0892,6.0114,5.9013,5.9013,5.8389,5.734,5.734,5.6731,5.5699,5.5699,5.5056,5.4093,5.4482,5.389,5.2807,5.2013,5.1522,5.1082,0.0,0.0,0.0,0.0,0.0,0.0,4.0113,4.0113,4.0113,4.0113,4.1779,4.2916,4.278,4.3998,4.4268,4.2882,4.207,4.3166,4.6786,4.9796,5.3737,5.8979,6.2091,6.441,6.5865,6.7218,6.803,6.8335,6.9586,7.0263,7.0432,7.1041,7.1289,7.1289,7.1289,7.1289,7.1289,7.1289,7.0973,7.0331,6.962,6.8402,6.6622,6.326,6.052,5.8287,5.6375,5.4211,5.2097,5.0744,4.9323,4.8022,4.7564,4.6428,4.5041,4.3944,4.2577,0.0,0.0,0.0,0.0,0.0,0.0,0.0,0.0,4.907,5.0356,5.2858,5.553,5.8201,6.0723,6.3057,6.5405,6.7929,6.9011,6.9958,7.112,7.1176,7.0804,7.006,7.0635,7.0804,7.006,7.0014,7.0014,7.0014,6.8673,6.7963,6.8132,6.7286,6.6474,6.5717,6.5581,6.4783,6.3274,6.255,6.1806,6.1061,6.025,5.9505,5.8795,5.8795,5.8152,5.7002,5.6697,5.624,5.5665,5.5395,5.4938,5.4414,5.4414,5.3518,5.2232,5.1641,5.1048,5.0405,0.0,0.0,0.0,0.0,0.0,0.0,0.0,0.0,4.0113,4.0113,4.0878,4.1204,4.054,4.1204,4.1373,4.054,4.2117,4.4471,4.7582,5.0574,5.4583,5.9742,6.2854,6.5189,6.6622,6.7489,6.8571,6.9947,7.0116,7.0534,7.1176,7.1255,7.1289,7.1289,7.1289,7.1289,7.1289,7.1289,7.1255,7.1109,7.0364,6.9147,6.7523,6.5155,6.2854,6.0452,5.695,5.4211,5.2164,5.1336,5.0085,4.8984,4.9526,4.8714,4.7109,4.5074,4.3382,4.2286,4.2882,4.4133,4.6007,4.8797,4.8612,4.9645,0.0,5.7103,5.6833,6.0419,6.2448,6.3903,6.4905,6.6948,6.8808,6.9755,7.0567,7.1086,7.1289,7.0737,7.006,6.9316,6.9857,7.0026,6.9282,6.9214,6.9214,6.9214,6.8402,6.8199,6.8944,6.7569,6.6474,6.5717,6.5053,6.4005,6.2516,6.1772,6.1028,6.0216,5.9471,5.8761,5.8017,5.8017,5.7915,5.7697,5.6375,5.5767,5.5597,5.4296,5.3687,5.3619,5.3619,5.3078,5.23,5.2198,5.2131,5.1961,0.0,0.0,0.0,0.0,0.0,0.0,0.0,0.0,4.0113,4.0113,4.0371,4.0438,4.0146,4.0371,4.0438,4.0146,4.1339,4.3761,4.765,5.071,5.4922,6.0554,6.326,6.5493,6.7421,6.8199,6.9113,7.0217,7.0635,7.1007,7.1289,7.1289,7.1289,7.1289,7.1289,7.1289,7.1289,7.1289,7.1289,7.1188,7.0026,6.8876,6.7557,6.4478,6.14,5.8321,5.5446,5.2942,0.0,4.9187,4.8496,4.8394,4.8698,4.78,4.6331,4.5007,4.4127,4.3992,4.5587,4.7752,5.0067,5.2181,5.3856,5.6021,5.9911,6.0757,6.14,6.3822,6.6224,6.7929,6.8255,6.9789,7.0973,7.0872,7.1109,7.1289,7.1289,7.0297,6.8944,6.732,6.7015,6.732,6.8301,6.803,6.7963,6.8368,6.7692,6.7218,6.7117,6.6508,6.5628,6.4478,6.414,6.3463,6.2415,6.167,6.0892,6.008,5.9351,5.8626,5.79,5.79,5.7663,5.7171,5.5716,5.5074,5.4972,5.3923,5.3518,5.3518,5.3518,5.3281,5.2942,5.2469,5.2029,5.162,0.0,0.0,0.0,0.0,0.0,0.0,0.0,0.0,0.0,0.0,4.0113,4.0113,4.0113,4.0113,4.0113,4.0113,4.0764,4.2861,4.6752,4.9981,5.4177,5.9539,6.2279,6.4816,6.7218,6.8064,6.8944,6.9913,7.0432,7.068,7.068,7.068,7.0804,7.1007,7.1007,7.1109,7.1289,7.1289,7.1188,7.0906,6.962,6.8267,6.6576,6.2651,5.8829,5.5344,5.3518,5.1014,4.8357,4.6733,4.6413,4.6737,4.7177,4.6568,4.5635,4.5311,4.5481,4.6157,4.7752,5.066,5.3653,5.5378,5.8457,6.1467,6.3091,6.4444,6.5764,6.7218,6.9282,7.0601,6.9992,7.0939,7.1548,7.0816,7.0872,7.0939,7.0714,6.9248,6.732,6.5074,6.3768,6.37,6.529,6.5527,6.5899,6.6643,6.6183,6.5764,6.5392,6.5412,6.4816,6.3545,6.3511,6.3159,6.24,6.167,6.0892,6.008,5.9351,5.8626,5.79,5.79,5.7629,5.7036,5.575,5.5074,5.4837,5.4126,5.3687,5.3518,5.3518,5.3635,5.3714,5.3135,5.2207,5.1178,0.0,0.0,0.0,0.0,0.0,0.0,0.0,0.0,0.0,0.0,4.0113,4.0113,4.0113,4.0113,4.0113,4.0113,4.0764,4.2185,4.4547,4.812,5.186,5.5699,5.9419,6.2753,6.5717,6.6508,6.7603,6.9147,6.9147,6.918,6.918,6.918,6.9553,7.0251,7.0251,7.0635,7.1289,7.1289,7.0906,7.0184,6.9417,6.732,6.4208,5.9742,5.5768,5.2418,5.1589,4.8477,4.475,4.4682,4.4147,4.3795,4.5297,4.5737,4.5838,4.6515,4.7733,4.8883,4.8951,5.2216,5.6105,5.8303,6.1144,6.4356,6.803,6.9451,7.042,7.1887,7.2259,7.1684,6.9519,6.9755,7.0026,6.9282,6.9755,6.9958,6.9282,6.7218,6.4972,6.2773,6.052,5.9182,5.925,6.1264,6.2821,6.3579,6.3612,6.3883,6.4613,6.4647,6.4309,6.3511,6.3511,6.3159,6.24,6.167,6.0892,6.008,5.9351,5.8626,5.79,5.79,5.79,5.7832,5.707,5.6325,5.5597,5.4871,5.416,5.3518,5.3518,5.3946,5.4541,5.4541,5.3128,5.1178,0.0,0.0,0.0,0.0,0.0,0.0,0.0,0.0,0.0,0.0,0.0,0.0,0.0,0.0,0.0,0.0,4.035,4.1407,4.3673,4.638,4.9357,5.2554,5.6325,5.9471,6.1941,6.3226,6.485,6.6846,6.6846,6.7083,6.7569,6.7569,6.7726,6.7963,6.847,6.8808,6.9079,6.962,6.8808,6.7104,6.5899,6.3869,6.1061,5.6089,5.2503,4.9796,0.0,4.4756,4.2909,4.1927,4.1758,4.2036,4.2557,4.2726,4.3166,4.5399,4.78,5.027,5.2757,5.6731,6.0689,6.2888,6.5358,6.7793,7.0038,7.077,7.0804,7.0297,6.9417,6.803,6.5777,6.5595,6.6,6.6711,6.7861,6.8944,6.9722,6.8741,6.6406,6.2178,6.1434,5.9877,5.6427,5.8558,6.0689,6.1941,6.2482,6.3091,6.3815,6.3849,6.4005,6.4241,6.3294,6.2888,6.3125,6.2381,6.1366,6.008,5.9351,5.8626,5.7934,5.8423,5.8355,5.7832,5.6596,5.5936,5.5597,5.4397,5.3721,5.3534,5.4026,5.4391,5.4649,5.5144,5.4522,5.3439,0.0,0.0,0.0,0.0,0.0,0.0,0.0,0.0,0.0,0.0,0.0,0.0,0.0,0.0,0.0,0.0,0.0,4.0709,4.2117,4.4316,4.6684,4.9138,5.23,5.504,5.7273,5.8287,5.9607,6.1332,6.1622,6.1975,6.2448,6.2699,6.3105,6.3632,6.4106,6.4783,6.5561,6.5797,6.4884,6.3159,6.1414,5.9182,5.6427,5.1725,4.8714,0.0,4.3369,4.1914,4.1352,4.0417,4.0405,4.0832,4.1136,4.2117,4.3673,4.6177,4.9357,5.2909,5.668,6.0791,6.4512,6.6766,6.8808,7.0601,7.1819,7.1481,7.0398,6.8639,6.6643,6.4377,6.1617,6.0873,6.1177,6.2651,6.3937,6.5527,6.7861,6.6846,6.4952,6.2415,6.1535,5.9844,5.6494,5.7645,5.9032,6.0013,6.1501,6.2618,6.3091,6.3612,6.4106,6.458,6.3666,6.3396,6.3903,6.3159,6.2042,6.052,5.9487,5.8761,5.8287,5.8524,5.8355,5.7832,5.663,5.6095,5.6014,5.4785,5.43,5.4328,5.4802,5.5179,5.5487,5.5934,5.579,5.5335,0.0,0.0,0.0,0.0,0.0,0.0,0.0,0.0,0.0,0.0,0.0,0.0,0.0,0.0,0.0,0.0,0.0,0.0,4.0113,4.2117,4.393,4.5399,4.7597,4.9796,5.1928,5.2029,5.2503,5.3348,5.4025,5.4414,5.4448,5.5124,5.6224,5.7561,5.7595,5.8795,6.0791,6.008,5.9302,5.8371,5.6206,5.3602,5.0592,4.6906,4.4668,4.3173,4.093,4.0129,4.015,4.0146,4.0282,4.0519,4.1238,4.4012,4.7259,4.8883,5.2452,5.6747,6.0554,6.4241,6.7557,6.9755,7.1345,7.2529,7.3094,7.1537,6.9282,6.6893,6.4038,6.0791,5.7103,5.5868,5.5969,5.7577,5.8626,6.0535,6.4309,6.2448,6.14,6.3376,6.111,5.9317,5.9148,5.8558,5.817,5.8103,6.0708,6.2333,6.2468,6.3802,6.4647,6.4715,6.4647,6.4613,6.4613,6.3781,6.2665,6.1298,5.9825,5.9081,5.8979,5.8321,5.7967,5.7866,5.7103,5.6799,5.6741,5.6014,5.5713,5.5724,5.5752,5.6245,5.6899,5.6938,5.6915,5.6768,0.0,0.0,0.0,0.0,0.0,0.0,0.0,0.0,0.0,0.0,0.0,0.0,0.0,0.0,0.0,0.0,0.0,0.0,4.0113,4.1136,4.1935,4.232,4.4533,4.6244,4.7361,4.8462,4.9645,5.0947,5.1166,5.1522,5.208,5.2249,5.2554,5.2926,5.3534,5.411,5.4634,5.5006,5.4093,5.2266,5.115,4.9593,4.7564,4.4384,4.3543,4.3778,4.1522,4.0685,4.0717,4.0862,4.2422,4.4384,4.5128,4.7173,4.988,5.3061,5.6341,5.9911,6.4221,6.7704,7.041,7.1548,7.2124,7.1853,6.9789,6.803,6.573,6.1786,5.822,5.4803,5.1589,5.1708,5.3399,5.6562,6.0047,6.3646,6.7421,6.8233,6.7624,6.5392,6.4952,6.3714,6.0994,6.1535,6.1637,6.052,6.0588,6.1434,6.3125,6.4106,6.5121,6.6183,6.5189,6.4613,6.4613,6.2787,6.167,6.1298,6.0892,6.0095,5.9013,5.937,5.893,5.7866,5.7103,5.6799,5.6741,5.6014,5.5713,5.5766,5.6353,5.6708,5.6964,5.751,5.7711,5.768,0.0,0.0,0.0,0.0,0.0,0.0,0.0,0.0,0.0,0.0,0.0,0.0,0.0,0.0,0.0,0.0,0.0,0.0,0.0,4.0506,4.0709,4.0709,4.1927,4.2807,4.3234,4.4045,4.4891,4.5717,4.6056,4.6413,4.6805,4.7143,4.7481,4.7785,4.824,4.8815,4.9424,4.9526,4.8865,0.0,0.0,4.5549,4.4517,4.2458,4.2309,4.3045,4.1752,4.1789,4.2624,4.4021,4.5674,4.7462,4.9187,5.1691,5.4634,5.7746,6.0723,6.3802,6.7354,7.0466,7.2766,7.2868,7.2394,7.1041,6.7692,6.5019,6.1772,5.6646,5.3162,5.022,4.7564,4.8003,4.9882,5.3315,5.7374,6.1617,6.6034,6.7624,6.8199,6.7726,6.7455,6.6474,6.441,6.4627,6.4458,6.3328,6.2821,6.2956,6.3937,6.4986,6.5933,6.6757,6.598,6.5425,6.5087,6.3918,6.314,6.2817,6.2215,6.1464,6.0618,6.0341,5.9789,5.8942,5.8199,5.81,5.8305,5.7191,5.6943,5.7254,5.7349,5.7388,5.7425,5.7832,5.7997,5.7997,0.0,0.0,0.0,0.0,0.0,0.0,0.0,0.0,0.0,0.0,0.0,0.0,0.0,0.0,0.0,0.0,0.0,0.0,0.0,0.0,4.0303,4.0217,4.0204,4.0204,4.0204,4.0204,4.0254,4.0341,4.0875,4.1163,4.1163,4.173,4.2354,4.2949,4.3044,4.383,4.5018,4.4387,4.415,4.4116,4.2662,4.2102,4.1985,0.0,4.1385,4.1916,4.1916,4.2853,4.458,4.7775,4.9325,5.0439,5.3551,5.6916,6.0231,6.2719,6.5256,6.776,7.0128,7.2732,7.4559,7.3713,7.2225,6.9992,6.6,6.2042,5.7611,5.181,4.8935,4.6819,4.4702,4.5128,4.6887,5.0049,5.3619,5.7897,6.3308,6.4749,6.6474,6.9925,6.9079,6.8199,6.8199,6.7455,6.6745,6.619,6.6078,6.5657,6.4783,6.6047,6.6875,6.6988,6.7031,6.6671,6.5922,6.593,6.5565,6.4802,6.3593,6.2891,6.2643,6.1317,6.0594,6.0346,5.9719,5.9773,6.0133,5.8789,5.8551,5.8976,5.8253,5.7997,5.7997,5.7997,5.7997,5.7997,0.0,0.0,0.0,0.0,0.0,0.0,0.0,0.0,0.0,0.0,4.2296,4.1693,0.0,0.0,0.0,0.0,0.0,0.0,0.0,0.0,0.0,4.078,4.0756,4.0756,4.0756,4.0756,4.1013,4.1508,4.114,4.0963,4.094,4.0622,4.054,4.0701,4.1136,4.1469,4.1733,4.1607,4.1835,4.2214,4.1441,4.1429,4.1826,4.1696,0.0,0.0,4.2557,4.2729,4.3668,4.8164,5.1859,5.5158,5.8776,6.1637,6.4309,6.7815,6.9236,7.0229,7.3071,7.4661,7.5202,7.3838,7.1481,6.8199,6.3193,5.822,5.3315,4.8545,4.6293,4.4668,4.301,4.4838,4.8003,5.2232,5.5513,5.9776,6.6237,6.7827,6.9011,7.0906,7.0331,6.9811,6.9811,6.8538,6.7929,6.847,6.8035,6.7093,6.5589,6.6339,6.7161,6.7931,6.8185,6.7868,6.7024,6.6443,6.5753,6.4977,6.4721,6.3937,6.2678,6.2431,6.16,6.0381,6.0255,5.9908,5.9376,5.9123,5.8671,5.818,5.8033,5.7997,5.7997,5.7997,5.7997,5.7997,0.0,0.0,0.0,0.0,0.0,0.0,0.0,4.3506,4.3506,4.3506,4.3032,4.2696,4.2696,4.2442,4.2272,0.0,0.0,0.0,0.0,0.0,0.0,4.1362,4.1351,4.1351,4.1351,4.1351,4.1495,4.181,0.0,4.1351,4.1351,4.1105,4.1001,4.1013,4.1263,4.1351,4.1351,4.1351,4.1552,4.1778,4.1473,4.1736,4.2272,4.2272,0.0,0.0,4.3124,4.3427,4.4412,4.8275,5.1749,5.5349,6.0751,6.4512,6.7387,6.9553,7.103,7.2315,7.4119,7.5439,7.5946,7.4458,7.0973,6.644,6.0791,5.5723,5.0726,4.5518,4.439,4.4033,4.2992,4.4925,4.7809,5.1138,5.3904,5.7679,6.3632,6.5797,6.776,7.0398,7.0737,7.098,7.1486,7.0865,7.067,7.1194,7.0977,7.0055,6.8328,6.8685,6.9142,6.9599,6.9317,6.8769,6.792,6.7648,6.7091,6.6304,6.5949,6.5365,6.4672,6.4224,6.3429,6.231,6.231,6.1851,6.103,6.063,6.0212,5.9795,5.8951,5.8609,5.8572,5.8143,5.7997,5.7997,0.0,0.0,0.0,0.0,0.0,0.0,0.0,4.3506,4.3506,4.3506,4.3506,4.3506,4.3506,4.3133,4.2855,0.0,0.0,0.0,0.0,0.0,0.0,0.0,0.0,0.0,4.1989,0.0,0.0,4.2165,4.2052,0.0,0.0,0.0,0.0,0.0,4.1937,4.1989,4.1989,4.1989,4.2062,0.0,0.0,4.2352,4.2855,0.0,0.0,0.0,0.0,4.398,4.5013,4.7878,5.0381,5.3394,5.9346,6.4293,6.8107,6.9212,7.1309,7.3592,7.514,7.6077,7.639,7.5249,7.0495,6.4668,5.9337,5.406,4.8816,4.372,4.3427,4.3965,4.3545,4.5167,4.7378,4.9813,5.1859,5.5092,6.0519,6.3371,6.6179,6.9594,7.1138,7.2185,7.2735,7.2849,7.3017,7.3406,7.363,7.2838,7.0791,7.0995,7.1125,7.0948,7.0534,6.9834,6.8854,6.8944,6.8509,6.7532,6.6998,6.6659,6.6476,6.5668,6.4861,6.4103,6.3906,6.3356,6.2499,6.1851,6.1484,6.1227,5.993,5.9453,5.938,5.8535,5.8253,5.8217,0.0,0.0,0.0,0.0,0.0,0.0,0.0,4.3506,4.3506,4.3506,4.3506,4.3506,4.3506,4.3471,4.3445,0.0,0.0,0.0,0.0,0.0,0.0,0.0,0.0,0.0,0.0,0.0,0.0,4.3339,4.2855,0.0,0.0,0.0,0.0,0.0,0.0,4.2616,4.2616,4.2616,0.0,0.0,0.0,0.0,0.0,0.0,0.0,0.0,0.0,4.3545,4.3989,4.6477,4.8362,5.0145,5.3001,5.8531,6.4477,6.6788,6.9877,7.3401,7.7495,7.7204,7.5858,7.6107,6.9919,6.291,5.9577,5.3137,4.717,4.446,4.4021,4.4078,4.4033,4.5352,4.74,5.033,5.1614,5.4336,6.0355,6.3896,6.6721,6.9006,7.2099,7.3709,7.288,7.3004,7.3456,7.4149,7.5031,7.4205,7.1035,7.1719,7.1827,7.1107,7.183,7.1509,6.9972,6.9969,6.9205,6.7666,6.7623,6.7223,6.6476,6.5668,6.4861,6.4066,6.3282,6.2475,6.1704,6.1643,6.1153,6.0493,6.0346,6.0309,6.0187,5.938,5.9086,5.8976,0.0,0.0,0.0,0.0,0.0,0.0,4.3506,4.3506,4.3506,4.3506,4.3506,4.3506,4.3506,4.3506,4.3506,4.3506,0.0,0.0,0.0,0.0,0.0,0.0,0.0,0.0,0.0,0.0,4.3277,4.3506,4.3277,0.0,0.0,0.0,0.0,0.0,0.0,4.3187,4.3187,4.3187,0.0,0.0,0.0,0.0,0.0,0.0,0.0,0.0,0.0,0.0,4.3655,4.4627,4.5683,4.6743,4.7247,5.0965,5.6325,6.2455,6.6932,7.0784,7.4933,7.6471,7.6696,7.5919,6.9983,6.3414,5.9897,5.338,4.7464,4.5267,4.5,4.5218,4.5376,4.6305,4.7538,4.9174,4.9016,5.0461,5.5613,5.7842,6.1024,6.6598,6.9276,7.1724,7.4342,7.469,7.5152,7.6044,7.6481,7.5928,7.4131,7.3947,7.3498,7.2696,7.208,7.1248,7.011,6.9633,6.8825,6.77,6.77,6.7517,6.7223,6.688,6.6035,6.4787,6.4444,6.3563,6.2328,6.2328,6.2132,6.1802,6.13,6.1117,6.1006,6.0224,5.9636,5.9159,0.0,0.0,0.0,0.0,0.0,4.3506,4.3506,4.3506,4.3506,4.3506,4.3506,4.3506,4.3506,4.3506,4.3506,4.3506,4.3506,0.0,0.0,0.0,0.0,0.0,0.0,0.0,0.0,0.0,4.3506,4.3506,4.3506,4.3506,0.0,0.0,4.3506,4.3506,0.0,0.0,0.0,0.0,0.0,0.0,0.0,0.0,0.0,0.0,0.0,0.0,0.0,0.0,0.0,0.0,0.0,4.4384,4.3879,4.5752,4.9706,5.7681,6.31,6.7517,7.2317,7.4769,7.5755,7.4945,6.9441,6.3268,5.9606,5.3391,4.792,4.6183,4.5863,4.6039,4.6468,4.715,4.7845,4.8347,4.7817,4.8697,5.2564,5.4661,5.7954,6.3905,6.6672,6.9782,7.3951,7.5517,7.6547,7.7243,7.7289,7.6959,7.613,7.5344,7.4536,7.3722,7.2151,7.0903,7.011,6.9302,6.8495,6.77,6.77,6.77,6.77,6.7444,6.6733,6.5618,6.5154,6.4273,6.316,6.2903,6.2793,6.2756,6.2181,6.1961,6.1851,6.1043,6.0419,5.9893,0.0,0.0,0.0,0.0,0.0,0.0,4.3506,4.3506,4.3506,4.3506,4.3506,4.3506,4.3506,4.3506,4.3506,4.3506,4.3506,0.0,0.0,0.0,0.0,0.0,0.0,0.0,0.0,0.0,4.3506,4.3506,4.3506,4.3506,4.3506,4.3506,4.3506,4.3506,0.0,0.0,0.0,0.0,0.0,0.0,0.0,0.0,4.3506,0.0,0.0,0.0,0.0,0.0,0.0,0.0,0.0,0.0,0.0,4.4076,4.6047,5.2732,5.8353,6.386,7.066,7.2188,7.2099,7.3139,6.7972,6.1749,5.8457,5.288,4.8164,4.7263,4.6452,4.6131,4.6929,4.7736,4.8296,4.8287,4.8994,5.0425,5.2863,5.6641,5.9711,6.1184,6.5109,6.8601,7.0823,7.4816,7.7273,7.7289,7.7289,7.6959,7.613,7.5344,7.4536,7.3722,7.2151,7.0903,7.011,6.9302,6.8495,6.77,6.77,6.77,6.7664,6.688,6.6512,6.6402,6.48,6.4103,6.4029,6.316,6.2793,6.2793,6.2793,6.2793,6.2683,6.1887,6.1569,6.1459,0.0,0.0,0.0,0.0,0.0,0.0,0.0,4.3506,4.3506,4.3506,4.3506,4.3506,4.3506,4.3506,4.3506,4.3506,4.3506,0.0,0.0,0.0,0.0,0.0,0.0,0.0,0.0,4.3506,4.3506,4.3506,4.3506,4.3506,4.3506,4.3506,4.3506,4.3506,4.3506,4.3506,0.0,0.0,0.0,0.0,0.0,4.3506,4.3506,0.0,0.0,0.0,0.0,0.0,0.0,0.0,0.0,0.0,0.0,0.0,0.0,4.7699,5.2576,5.7724,6.1568,6.3686,6.4799,6.458,6.116,5.7386,5.5798,5.1774,4.8244,4.7964,4.7269,4.6975,4.7783,4.7672,4.7856,4.9013,4.894,4.937,5.1269,5.5012,5.8955,6.2741,6.9758,7.4542,7.5233,7.6511,7.7289,7.7289,7.7289,7.7179,7.6922,7.6166,7.5102,7.3744,7.1615,7.0367,7.011,6.8752,6.7958,6.77,6.77,6.77,6.77,6.7444,6.704,6.6476,6.5962,6.5131,6.4066,6.3796,6.3356,6.2793,6.2793,6.2793,6.2756,6.2499,6.2071,6.1557,0.0,0.0,0.0,0.0,0.0,0.0,0.0,4.3685,4.3742,4.391,4.3934,4.3934,4.3934,4.3934,4.3934,4.3934,4.3934,0.0,0.0,0.0,0.0,0.0,0.0,0.0,4.3506,4.3506,4.3506,4.3506,4.3506,4.3506,4.3506,4.3506,4.3506,4.3506,4.3506,4.3506,0.0,0.0,0.0,0.0,4.3506,4.3506,4.3506,0.0,0.0,0.0,0.0,0.0,0.0,0.0,0.0,0.0,0.0,0.0,0.0,0.0,4.7719,5.1536,5.5207,5.796,5.9612,5.8804,5.6638,5.4399,5.3298,5.0362,4.7929,4.8223,4.7672,4.7333,4.815,4.7893,4.7893,4.894,4.894,4.937,5.1022,5.473,5.9171,6.4383,7.1211,7.5491,7.5491,7.6592,7.7289,7.7289,7.7289,7.7289,7.7289,7.6261,7.5212,7.4184,7.2092,7.0697,7.011,6.8788,6.7981,6.77,6.77,6.77,6.77,6.77,6.7444,6.6916,6.6329,6.5485,0.0,6.387,6.3282,6.2793,6.2793,6.2793,6.2793,6.2793,6.2462,6.2034,0.0,0.0,0.0,0.0,0.0,0.0,0.0,4.4035,4.4168,4.4566,4.4612,4.4612,4.4612,4.4612,4.4612,4.4612,0.0,0.0,0.0,0.0,0.0,0.0,0.0,0.0,4.3506,4.3506,4.3506,4.3506,4.3506,4.3506,4.3506,4.3506,4.3506,4.3506,4.3506,4.3506,0.0,0.0,0.0,0.0,4.3506,4.3506,0.0,0.0,0.0,0.0,0.0,0.0,0.0,0.0,0.0,0.0,0.0,0.0,0.0,0.0,0.0,0.0,0.0,5.4205,5.5757,5.4997,5.3739,5.2297,5.0802,4.87,0.0,4.8003,4.7599,4.7333,4.815,4.826,4.8296,4.8517,4.916,5.0188,5.1914,5.5879,6.0639,6.6182,7.0403,7.2789,7.2606,7.5454,7.7289,7.7289,7.7289,7.7289,7.7289,7.5821,7.494,7.4903,7.3413,7.1798,7.0183,6.9339,6.8531,6.7774,6.7737,6.77,6.77,6.7627,6.7627,6.7517,6.5962,6.5251,6.5068,6.3527,6.2866,6.2793,6.2793,6.2793,6.2793,6.2793,6.2793,6.2793,0.0,0.0,0.0,0.0,0.0,0.0,0.0,0.0,0.0,0.0,4.4612,4.4612,4.4612,4.4612,4.4612,0.0,0.0,0.0,0.0,0.0,0.0,0.0,0.0,0.0,4.3515,4.3506,4.3506,4.3506,4.3506,4.3506,4.3506,4.3506,4.3506,4.3506,4.3506,4.3506,0.0,0.0,0.0,0.0,4.3506,4.3506,0.0,0.0,0.0,0.0,4.3506,4.3506,0.0,0.0,0.0,0.0,0.0,0.0,0.0,0.0,4.3616,4.4057,4.5415,0.0,4.7489,4.7305,4.7462,4.7535,0.0,4.7085,4.6966,4.6544,4.6792,4.7333,4.815,4.7783,4.8186,5.0729,5.0261,5.0592,5.3445,5.9979,6.5925,6.9729,7.3729,7.5454,7.3597,7.5747,7.7289,7.7289,7.7289,7.7289,7.7289,7.6371,7.5542,7.4903,7.3927,7.2642,7.1013,6.9619,6.8825,6.8605,6.7994,6.77,6.7664,6.7063,6.6769,6.6733,6.5742,6.4971,6.4347,6.3943,6.3392,6.2793,6.2793,6.2793,6.2793,6.2793,6.2793,6.2793,0.0,0.0,0.0,0.0,0.0,0.0,0.0,0.0,0.0,0.0,0.0,4.505,4.505,4.505,0.0,0.0,0.0,0.0,0.0,0.0,0.0,0.0,0.0,4.4175,4.3997,4.3997,4.3997,4.3997,4.3997,4.3997,4.3989,4.3831,4.3734,4.3726,4.3563,4.3506,0.0,0.0,0.0,4.3506,4.3506,0.0,0.0,0.0,0.0,0.0,4.3506,4.3506,0.0,4.3506,4.3506,4.3506,0.0,0.0,0.0,0.0,4.3506,4.3506,4.3506,4.435,4.5259,4.5259,4.559,4.5993,4.6361,4.6205,4.6094,4.6388,4.6792,4.7333,4.815,4.7929,4.848,5.1022,5.1032,5.2207,5.6528,6.1924,6.688,7.083,7.3876,7.5564,7.5359,7.6518,7.7289,7.7289,7.7289,7.7142,7.6775,7.5983,7.5175,7.4368,7.356,7.2569,7.1307,7.0073,6.9265,6.8885,6.8091,6.77,6.7664,6.688,6.6512,6.6476,6.5655,6.5031,6.4604,6.4249,6.3796,6.3392,6.3392,6.3392,6.3429,6.382,6.393,6.3894,0.0,0.0,0.0,0.0,0.0,0.0,0.0,0.0,0.0,0.0,0.0,0.0,0.0,0.0,0.0,0.0,0.0,0.0,0.0,0.0,0.0,0.0,4.4714,4.4663,4.4612,4.4612,4.4612,4.4612,4.4725,4.4725,4.4605,4.4397,4.417,4.3975,4.3775,4.3639,0.0,0.0,4.3639,4.3572,4.3572,0.0,0.0,0.0,0.0,0.0,0.0,0.0,0.0,4.3506,4.3506,4.3506,4.3506,0.0,0.0,0.0,0.0,0.0,4.38,4.5121,4.6324,4.5847,4.6104,4.6544,4.6865,4.6058,4.5581,4.6672,4.7113,4.748,4.8186,4.859,4.937,5.0902,5.2344,5.5207,6.075,6.3649,6.6769,7.0977,7.312,7.4918,7.6592,7.7069,7.7289,7.7289,7.7179,7.6812,7.613,7.5212,7.4404,7.3707,7.2789,7.2041,7.149,7.055,6.9706,6.8885,6.8091,6.77,6.7664,6.688,6.6439,6.6256,6.5485,6.5031,6.4884,6.4163,6.3906,6.3919,6.4066,6.4029,6.4029,6.4958,6.5215,6.5007,0.0,0.0,0.0,0.0,0.0,0.0,0.0,0.0,0.0,0.0,0.0,0.0,0.0,0.0,0.0,0.0,0.0,0.0,0.0,0.0,0.0,4.5448,4.5185,4.489,4.4618,4.4612,4.4612,4.4612,4.5291,4.5253,4.4612,4.5238,4.4963,4.4005,4.429,4.4226,4.3958,4.4306,4.4219,4.3935,4.3935,0.0,0.0,0.0,0.0,0.0,0.0,0.0,0.0,4.3506,4.3506,4.3506,4.3506,0.0,0.0,0.0,0.0,0.0,4.5158,4.7205,4.8306,4.5544,4.6985,4.8499,4.6544,4.6948,4.7416,4.6324,4.7168,4.815,4.826,5.0031,5.172,5.2664,5.6381,6.086,6.5902,6.8678,7.072,7.2165,7.494,7.6078,7.4404,7.6078,7.7289,7.7289,7.6665,7.624,7.6093,7.4698,7.3817,7.3722,7.2275,7.1747,7.2312,7.0844,6.9706,6.8885,6.8091,6.77,6.7664,6.688,6.6145,6.5435,6.464,6.387,6.316,6.305,6.3013,6.305,6.3796,6.3649,6.3196,6.4738,6.4861,6.4286,0.0,0.0,0.0,0.0,0.0,0.0,0.0,0.0,0.0,0.0,0.0,0.0,0.0,0.0,0.0,0.0,0.0,0.0,0.0,0.0,4.5594,4.5594,4.5448,4.5288,4.5126,4.512,4.512,4.512,4.5502,4.5502,4.5159,4.5334,4.5035,4.4325,4.4533,4.4519,4.4325,4.4502,4.4475,4.4318,0.0,0.0,0.0,0.0,0.0,0.0,0.0,0.0,0.0,0.0,4.3664,4.3506,4.3506,0.0,0.0,0.0,0.0,0.0,4.4387,4.6691,4.8379,4.6461,4.8453,5.0372,4.8352,4.8122,4.8343,4.8526,4.8783,4.926,5.0141,5.1573,5.3628,5.659,6.0444,6.398,6.6659,6.8752,7.061,7.2312,7.4184,7.5432,7.5652,7.6665,7.7289,7.7289,7.6555,7.5909,7.5469,7.4331,7.3303,7.2422,7.1674,7.105,7.055,6.9816,6.9486,6.9522,6.8288,6.77,6.7664,6.688,6.6072,6.5288,6.4897,6.4273,6.3503,6.3503,6.3503,6.3576,6.442,6.4494,6.4334,6.5999,6.6072,6.5411,0.0,0.0,0.0,0.0,0.0,0.0,0.0,0.0,0.0,0.0,0.0,0.0,0.0,0.0,0.0,0.0,0.0,0.0,0.0,4.5594,4.5594,4.5594,4.5594,4.5594,4.5594,4.5594,4.5594,4.5594,4.5782,4.5898,4.5893,4.5433,4.5028,4.4732,4.4812,4.48,4.4732,4.4812,4.48,4.4726,0.0,0.0,0.0,0.0,0.0,0.0,0.0,0.0,0.0,0.0,0.0,0.0,0.0,0.0,0.0,4.3506,4.3506,4.3579,4.3947,4.614,4.815,4.7526,4.9701,5.173,5.0665,4.9921,4.9911,5.1573,5.1436,5.1326,5.2391,5.3518,5.5856,6.0529,6.4004,6.6609,6.7981,6.9559,7.1344,7.3377,7.4184,7.5285,7.7142,7.7289,7.7215,7.7032,7.6261,7.5469,7.4647,7.367,7.2679,7.16,7.1013,7.0316,6.9472,6.8898,6.8935,6.9536,6.8288,6.77,6.7664,6.688,6.6072,6.5288,6.5105,6.4567,6.3796,6.3796,6.3796,6.3906,6.4897,6.5508,6.5999,6.7026,6.7026,6.6512,0.0,0.0,0.0,0.0,0.0,0.0,0.0,0.0,0.0,0.0,0.0,0.0,0.0,0.0,0.0,0.0,0.0,0.0,0.0,4.5594,4.5594,4.5594,4.5594,4.5594,4.5594,4.5594,4.5594,4.5594,4.6394,4.6812,4.6774,4.5957,4.5395,4.5099,4.5395,4.5371,4.5061,4.5405,4.5366,4.5044,4.5044,0.0,0.0,0.0,0.0,0.0,0.0,0.0,0.0,0.0,0.0,0.0,0.0,0.0,4.3506,4.3506,4.3506,4.3836,4.5342,4.6985,4.8296,4.8223,5.0105,5.2171,5.281,5.2884,5.3287,5.4924,5.5218,5.4997,5.4326,5.6124,5.9024,6.3148,6.6549,6.9706,7.2753,7.4551,7.5909,7.6848,7.7032,7.7105,7.7289,7.7289,7.6995,7.624,7.5432,7.4661,7.3817,7.2312,7.1747,7.2386,7.0243,6.9729,7.1123,6.8898,6.7811,6.7884,6.7774,6.77,6.7664,6.688,6.6072,6.5251,6.4494,6.3686,6.2903,6.2903,6.2903,6.305,6.4664,6.6219,6.7444,6.6806,6.6549,6.6512,0.0,0.0,0.0,0.0,0.0,0.0,0.0,0.0,0.0,0.0,0.0,0.0,0.0,0.0,0.0,0.0,0.0,0.0,0.0,4.5594,4.5594,4.5594,4.5594,4.5594,4.5594,4.5594,4.5594,4.5594,4.5936,4.609,4.609,4.5744,4.5546,4.5419,4.555,4.5541,4.5419,4.5555,4.5541,4.5415,4.5415,4.5356,0.0,0.0,0.0,0.0,0.0,0.0,0.0,0.0,4.4574,4.422,4.4318,4.4095,4.3794,4.3794,4.3644,4.3616,4.424,4.67,4.8976,4.8453,5.0545,5.2821,5.3141,5.4755,5.6492,5.7618,5.8621,5.9098,5.829,5.9281,6.141,6.5007,6.8715,7.1908,7.4147,7.5821,7.6959,7.7252,7.7289,7.7105,7.6592,7.6555,7.6225,7.5432,7.4625,7.4001,7.3707,7.2642,7.1725,7.1027,7.011,6.9449,6.9082,6.8178,6.77,6.77,6.77,6.7444,6.6953,6.6623,6.6072,6.5288,6.4971,6.4677,6.4334,6.4334,6.4334,6.4481,6.5595,6.6733,6.7664,6.737,6.726,6.726,0.0,0.0,0.0,0.0,0.0,0.0,0.0,0.0,0.0,0.0,0.0,0.0,0.0,0.0,0.0,0.0,0.0,0.0,4.5594,4.5594,4.5594,4.5594,4.5594,4.5594,4.5594,4.5594,4.5594,4.5594,4.5594,4.5594,4.5594,4.5594,4.5744,4.6013,4.5706,4.5744,4.5975,4.5706,4.5594,4.5594,4.5594,4.5594,0.0,0.0,0.0,0.0,0.0,0.0,0.0,0.0,4.496,4.4631,4.4732,4.4488,4.4183,4.4183,4.3935,4.3644,4.3644,4.6001,4.8352,4.8003,5.0388,5.3214,5.4755,5.6811,5.8988,6.1068,6.1998,6.2144,6.13,6.1814,6.3368,6.6402,7.0036,7.3156,7.5014,7.6004,7.6628,7.6885,7.6702,7.6335,7.5763,7.5726,7.5395,7.4588,7.4001,7.3487,7.2973,7.2165,7.1248,7.011,6.9596,6.8949,6.8104,6.7847,6.77,6.77,6.77,6.7407,6.688,6.6623,6.6219,6.5655,6.5398,6.5288,6.5288,6.5288,6.5435,6.5742,6.6292,6.7003,6.77,6.77,6.77,6.77,0.0,0.0,0.0,0.0,0.0,0.0,0.0,0.0,0.0,0.0,0.0,0.0,0.0,0.0,0.0,0.0,0.0,0.0,4.5594,4.5594,4.5594,4.5594,4.5594,4.5594,4.5594,4.5594,4.5594,4.5594,4.5594,4.5594,4.5594,4.5594,4.609,4.6851,4.5975,4.609,4.6812,4.5975,4.5594,4.5594,4.5594,4.5594,4.5594,0.0,0.0,0.0,0.0,0.0,0.0,0.0,4.5175,4.4682,4.4988,4.4878,4.4618,4.4618,4.4311,4.4027,4.4027,4.4934,4.6104,4.6929,4.9627,5.3298,5.8132,5.9221,6.0591,6.5521,6.5228,6.387,6.3013,6.3576,6.491,6.7333,7.0403,7.334,7.5726,7.538,7.5197,7.5983,7.5395,7.4903,7.4903,7.4903,7.4536,7.3758,7.3685,7.2973,7.138,7.055,7.011,7.0073,6.8545,6.8091,6.8898,6.8104,6.77,6.77,6.77,6.77,6.7664,6.6843,6.6476,6.6439,6.5632,6.5288,6.5325,6.5325,6.5778,6.6512,6.6512,6.699,6.77,6.77,6.77,6.77,0.0,0.0,0.0,0.0,0.0,0.0,0.0,0.0,0.0,0.0,0.0,0.0,0.0,0.0,0.0,0.0,0.0,0.0,4.5594,4.5594,4.5594,4.5594,4.5594,4.5594,4.5594,4.5594,4.5594,4.5594,4.5594,4.5594,4.5594,4.624,4.6317,4.6013,4.6355,4.6317,4.5975,4.5706,4.5936,4.6509,4.6509,4.6509,4.6509,0.0,0.0,0.0,0.0,0.0,0.0,0.0,0.0,0.0,4.5424,4.6035,4.6493,4.5296,4.5759,4.6429,4.519,4.6191,4.7929,4.9361,5.2553,5.648,6.0774,6.0848,6.1582,6.705,6.7357,6.6746,6.7013,6.6843,6.704,6.8348,7.077,7.2936,7.4221,7.4698,7.4977,7.5234,7.505,7.4683,7.4111,7.4074,7.3707,7.2936,7.2349,7.1784,7.1344,7.055,6.9853,6.9265,6.8238,6.7811,6.8054,6.7247,6.6843,6.6843,6.7444,6.7407,6.6843,6.6035,6.5962,6.6402,6.5044,6.5411,6.7003,6.7003,6.715,6.7333,6.7333,6.748,6.77,6.77,6.77,6.77,0.0,0.0,0.0,0.0,0.0,0.0,0.0,0.0,0.0,0.0,4.5594,4.5594,0.0,0.0,0.0,0.0,0.0,0.0,0.0,4.5594,4.5594,4.5594,4.5594,4.5594,4.5594,4.5594,4.5594,4.5594,4.5594,4.5594,4.5633,4.6817,4.7278,4.7129,4.7663,4.7586,4.7091,4.6744,4.6894,4.7428,4.7735,4.7889,4.7851,0.0,0.0,0.0,0.0,0.0,0.0,0.0,0.0,0.0,4.5594,4.6148,4.6651,4.5829,4.6044,4.6473,4.6265,4.7218,4.892,5.1573,5.5012,5.8792,6.2866,6.4787,6.6659,7.011,6.9926,6.9192,6.9339,6.8715,6.8531,6.9655,7.1344,7.2899,7.4037,7.4037,7.4074,7.4404,7.3839,7.3289,7.2789,7.2459,7.2055,7.1578,7.1101,7.0683,7.0353,6.9889,6.9119,6.7981,6.7811,6.7554,6.7223,6.7063,6.699,6.699,6.748,6.7444,6.6953,6.6145,6.6219,6.6916,6.5938,6.6342,6.77,6.77,6.77,6.77,6.77,6.77,6.77,6.77,6.77,6.77,0.0,0.0,0.0,0.0,0.0,0.0,0.0,0.0,0.0,0.0,4.5594,4.5594,0.0,0.0,0.0,0.0,0.0,0.0,0.0,4.5594,4.5594,4.5594,4.5594,4.5633,4.5706,4.5633,4.5594,4.5594,4.5594,4.5633,4.5744,4.7432,4.8625,4.9394,4.9471,4.9433,4.9202,4.8355,4.8005,4.8082,4.8933,4.9279,4.9202,4.8394,0.0,0.0,0.0,0.0,0.0,0.0,0.0,0.0,4.5706,4.5782,4.5892,4.6243,4.5694,4.5446,4.7467,4.8231,4.9466,5.3739,5.7443,6.1141,6.5141,7.0073,7.3722,7.3428,7.2386,7.1307,7.055,6.9779,6.9692,7.116,7.2004,7.301,7.4463,7.3399,7.2789,7.3487,7.2239,7.1307,7.1307,7.0587,7.011,7.011,6.9963,6.9596,6.8935,6.8738,6.8017,6.6549,6.715,6.715,6.6402,6.7026,6.737,6.737,6.7444,6.7444,6.737,6.6769,6.6843,6.748,6.7554,6.759,6.759,6.7664,6.77,6.77,6.77,6.77,6.77,6.77,6.77,6.77,0.0,0.0,0.0,0.0,0.0,0.0,0.0,0.0,0.0,0.0,0.0,0.0,0.0,0.0,0.0,0.0,0.0,0.0,0.0,4.5594,4.5594,4.5594,4.5594,4.5936,4.662,4.5936,4.5594,4.5594,4.5594,4.5936,4.6658,4.8355,4.9202,4.9433,5.013,4.9668,4.8317,4.7505,4.7158,4.7235,4.8043,4.8394,4.8355,4.8159,4.7582,0.0,0.0,0.0,0.0,0.0,0.0,0.0,4.662,4.7048,4.7457,4.694,4.7302,4.8275,5.0037,5.013,5.1018,5.6422,6.2347,6.7724,7.1101,7.3303,7.3927,7.1394,7.2092,7.312,7.2951,7.2275,7.1835,7.2202,7.2386,7.2642,7.2973,7.2716,7.2569,7.2753,7.1894,7.1307,7.1307,7.0587,7.011,7.011,6.8949,6.8435,6.8898,6.7687,6.6843,6.6512,6.6072,6.5742,6.5545,6.5081,6.4874,6.4874,6.5521,6.5485,6.491,6.5999,6.6256,6.5852,6.6476,6.6769,6.6806,6.7444,6.77,6.77,6.77,6.77,6.77,6.77,6.77,6.77,0.0,0.0,0.0,0.0,0.0,0.0,0.0,0.0,0.0,0.0,0.0,0.0,0.0,0.0,0.0,0.0,0.0,0.0,0.0,0.0,4.5594,4.5594,4.5594,4.5821,4.6278,4.5821,4.5782,4.6201,4.6201,4.6663,4.7505,4.962,5.0818,5.1241,5.1702,5.0933,4.9279,4.8432,4.8086,4.8163,4.9009,4.9586,4.9813,4.9048,4.8197,4.7428,4.7043,0.0,0.0,0.0,0.0,0.0,0.0,0.0,4.8058,4.7887,4.8286,4.9242,5.1139,5.1926,5.3873,6.0828,6.6267,7.0591,7.3338,7.4084,7.3692,7.2042,7.2457,7.312,7.312,7.2459,7.1931,7.1931,7.1931,7.1798,7.1394,7.1688,7.1784,7.1394,7.0991,7.0573,7.0169,6.9412,6.8788,6.8421,6.7577,6.7136,6.716,6.6402,6.5742,6.5338,6.5338,6.5118,6.4714,6.4677,6.4677,6.4677,6.5105,6.5068,6.4714,6.5558,6.5485,6.4787,6.5962,6.6512,6.6549,6.737,6.77,6.77,6.77,6.7863,6.8085,6.8085,6.8247,6.8476,0.0,0.0,0.0,0.0,0.0,0.0,0.0,0.0,0.0,0.0,0.0,0.0,0.0,0.0,0.0,0.0,0.0,0.0,0.0,0.0,0.0,4.5821,4.5667,4.5667,4.5821,4.5821,4.6163,4.6889,4.7197,4.7889,4.9043,5.1159,5.2582,5.3428,5.3428,5.2472,5.0822,4.9822,4.924,4.9048,4.9899,5.0587,5.089,4.951,4.8509,4.7812,4.7158,4.7005,4.7235,4.824,0.0,0.0,0.0,0.0,4.8193,4.857,4.8629,4.9041,5.1185,5.3565,5.7241,6.4719,6.8736,7.1394,7.357,7.3799,7.3503,7.3379,7.2868,7.2432,7.229,7.1637,7.1087,7.1087,7.1087,7.0866,7.0183,7.066,7.0886,7.0312,7.0046,6.9688,6.9098,6.8098,6.7223,6.6549,6.6219,6.5852,6.5325,6.5178,6.4714,6.3906,6.4677,6.464,6.3699,6.4559,6.5026,6.5026,6.5102,6.509,6.5026,6.5102,6.4929,6.458,6.5778,6.6439,6.6783,6.7539,6.785,6.785,6.7943,6.8247,6.8637,6.8637,6.8902,6.9302,0.0,0.0,0.0,0.0,0.0,0.0,0.0,0.0,0.0,0.0,4.5594,4.5594,0.0,0.0,0.0,0.0,0.0,0.0,4.5594,0.0,0.0,4.6697,4.6013,4.5936,4.6697,4.6735,4.6774,4.6889,4.8355,5.024,5.2544,5.2851,5.351,5.4318,5.4318,5.3356,5.1659,5.0087,4.8548,4.7312,4.812,4.8082,4.7543,4.7312,4.7158,4.7043,4.6928,4.7351,4.8197,4.9822,5.0361,0.0,0.0,0.0,4.8115,4.8193,4.7722,4.7718,5.0184,5.4982,6.0301,6.4615,6.8145,7.0997,7.2779,7.3689,7.3984,7.3209,7.2627,7.2081,7.1544,7.0807,7.0257,7.0257,7.0257,7.022,7.011,7.0183,7.038,7.0734,6.9777,6.9215,6.9546,6.7797,6.6623,6.6512,6.5191,6.4677,6.5251,6.464,6.387,6.3013,6.3796,6.3515,6.1961,6.3199,6.3833,6.3833,6.4312,6.4291,6.3844,6.4322,6.5124,6.6145,6.5668,6.6256,6.7557,6.8161,6.838,6.844,6.8891,6.9127,6.92,6.92,6.9241,6.9302,0.0,0.0,0.0,0.0,0.0,0.0,0.0,0.0,0.0,0.0,0.0,4.5594,0.0,0.0,0.0,4.5594,4.5594,4.5594,4.5594,4.5594,4.5782,4.6163,4.5782,4.6013,4.6889,4.6889,4.7351,4.8317,4.9048,5.0933,5.3933,5.4895,5.6011,5.7242,5.6313,5.4967,5.3241,5.1053,4.9433,4.8317,4.8702,4.8894,4.8933,4.7928,4.7889,4.824,4.7735,4.812,4.9086,5.0818,5.1356,5.1356,5.1356,0.0,0.0,0.0,4.8586,4.8971,5.2015,5.5888,6.0014,6.3986,6.6916,6.9462,7.1964,7.2963,7.3259,7.287,7.2248,7.1621,7.1179,7.043,6.9771,6.9481,6.9449,6.9265,6.8839,6.9395,6.9619,6.8912,6.897,6.8984,6.8778,6.7483,6.6691,6.6676,6.5583,6.4911,6.481,6.4016,6.3371,6.2998,6.2865,6.2678,6.2449,6.3025,6.3558,6.4039,6.4275,6.4265,6.4076,6.4275,6.4547,6.4939,6.5783,6.6527,6.7284,6.845,6.8935,6.8967,6.921,6.9492,6.9747,6.9747,6.9957,7.0217,0.0,0.0,0.0,0.0,0.0,0.0,0.0,0.0,0.0,0.0,0.0,0.0,0.0,0.0,0.0,0.0,4.5594,4.5594,4.5594,4.5594,4.5594,4.5594,4.5821,4.624,4.6889,4.7312,4.8163,4.9394,4.9817,5.1779,5.517,5.6863,5.8786,6.0704,5.8813,5.7044,5.5318,5.2746,5.1284,5.0625,4.974,4.9668,4.9938,4.8856,4.8817,4.9317,4.8663,4.9125,5.024,5.1467,5.2038,5.2197,5.1962,5.1202,0.0,0.0,0.0,4.9471,5.2669,5.5395,5.8242,6.205,6.4897,6.747,7.026,7.1551,7.2155,7.2155,7.1866,7.1436,7.082,6.9907,6.9054,6.8444,6.8355,6.8146,6.7567,6.8514,6.8777,6.7476,6.823,6.8643,6.7959,6.705,6.6481,6.6511,6.5747,6.5039,6.4417,6.3568,6.3031,6.2804,6.2136,6.2013,6.2456,6.2998,6.3661,6.4436,6.4672,6.4725,6.4572,6.4734,6.4481,6.4074,6.5762,6.6737,6.72,6.8384,6.9123,6.9483,6.919,6.9585,7.0268,7.0077,7.0386,7.0898,0.0,0.0,0.0,0.0,0.0,0.0,0.0,0.0,0.0,0.0,0.0,0.0,4.5594,4.5594,4.5594,4.5594,4.5594,4.5594,4.5594,4.5594,4.5594,4.5594,4.6394,0.0,4.6889,4.8471,4.9317,4.9394,5.1005,5.351,5.6907,5.8588,6.1166,6.4243,6.1704,5.9665,5.7934,5.5395,5.428,5.3933,5.0702,4.8933,4.8317,4.9048,4.9356,4.9394,4.9356,5.0389,5.1769,5.1885,5.2467,5.3005,5.2159,5.0774,4.9163,0.0,0.0,0.0,5.0207,5.2746,5.5318,5.7967,6.1725,6.5218,6.6974,6.9231,7.0986,7.0986,7.1601,7.1756,7.0387,6.9039,6.7836,6.7033,6.691,6.6872,6.6844,6.7563,6.7959,6.7618,6.7865,6.7931,6.7669,6.6435,6.5661,6.5661,6.4936,6.4455,6.4379,6.3568,6.2767,6.1984,6.1872,6.1448,6.075,6.2756,6.4029,6.461,6.5423,6.5556,6.5083,6.5576,6.5534,6.5057,6.5491,6.6529,6.7936,6.7759,6.8634,6.9951,6.8889,6.9428,7.0755,6.9986,7.0231,7.0898,0.0,0.0,0.0,0.0,0.0,0.0,0.0,0.0,0.0,0.0,0.0,0.0,0.0,4.5594,4.5594,4.5594,4.5594,4.5821,4.6394,4.6432,4.6663,4.7163,4.7505,4.7928,4.8509,4.9086,4.9668,5.0245,5.0861,5.2587,5.5439,5.7093,5.9127,6.1358,6.1556,6.0979,5.9742,5.7209,5.5785,5.5054,5.2779,5.1972,5.201,5.0125,5.0433,5.1702,5.063,5.1664,5.3587,5.3587,5.378,5.3895,5.3005,5.1202,4.9086,4.7389,4.7658,4.8817,5.0284,5.2169,5.428,5.6813,5.939,6.1781,6.3518,6.625,6.8321,6.7782,6.8783,6.9434,6.8381,6.8352,6.8317,6.7682,6.716,6.6811,6.6811,6.7335,6.7481,6.6834,6.6704,6.6804,6.7225,6.5877,6.5413,6.6491,6.581,6.5122,6.4548,6.3693,6.2851,6.2063,6.1475,6.1277,6.1559,6.3375,6.4423,6.4628,6.5474,6.5801,6.5604,6.5808,6.5795,6.5667,6.6291,6.7217,6.8334,6.9329,7.0078,7.056,7.0151,7.036,7.086,7.0591,7.0667,7.0898,0.0,0.0,0.0,0.0,0.0,0.0,0.0,0.0,0.0,4.5594,0.0,0.0,0.0,0.0,4.5706,4.6013,4.6283,4.6663,4.7274,4.7312,4.7543,4.8082,4.8394,4.8817,4.9394,4.9394,4.9822,5.0707,5.0707,5.213,5.4934,5.6319,5.805,5.9973,6.0825,6.1556,6.1935,5.9979,5.8781,5.8011,5.5164,5.4741,5.5511,5.3241,5.378,5.5549,5.3857,5.4511,5.6011,5.4895,5.4318,5.3895,5.3044,5.1005,4.874,4.762,4.8509,4.9899,5.0207,5.1702,5.3659,5.5659,5.7006,5.8434,6.071,6.3172,6.498,6.5013,6.6397,6.7475,6.7173,6.7271,6.7377,6.7309,6.6868,6.6517,6.6517,6.6785,6.6697,6.5848,6.5554,6.5551,6.5782,6.482,6.4628,6.5743,6.532,6.4782,6.4199,6.3358,6.2512,6.1672,6.1095,6.1095,6.1672,6.332,6.4166,6.416,6.532,6.5904,6.5904,6.5904,6.5904,6.5936,6.675,6.759,6.8507,6.959,7.0398,7.0821,7.0283,7.0398,7.086,7.0591,7.0667,7.0898,0.0,0.0,0.0,0.0,0.0,0.0,0.0,0.0,4.5594,4.5594,0.0,0.0,0.0,0.0,0.0,4.6851,4.7658,4.812,4.812,4.812,4.8159,4.8197,4.8971,4.9433,4.9433,4.9433,4.9861,5.0707,5.0707,5.24,5.567,5.6505,5.8275,6.071,5.9896,6.1396,6.4436,6.3545,6.3198,6.2852,5.778,5.6819,5.839,5.828,5.9281,6.055,5.8896,5.8858,5.9088,5.5742,5.4087,5.3197,5.2197,5.0197,4.8159,4.8159,4.9356,5.0553,0.0,0.0,0.0,5.4203,5.4434,5.5318,5.8588,6.005,6.1166,6.2852,6.4551,6.6013,6.6827,6.5667,6.4859,6.5705,6.582,6.582,6.5865,6.5827,6.5513,6.4705,6.4551,6.4199,6.3391,6.3275,6.3275,6.3314,6.3314,6.3275,6.3275,6.2518,6.1672,6.0825,6.0787,6.0825,6.0825,6.2474,6.3314,6.3352,6.5089,6.5904,6.5904,6.5904,6.5904,6.5936,6.675,6.759,6.8353,6.843,6.9391,7.0706,6.9084,6.9468,7.0821,7.0014,7.0244,7.0898,0.0,0.0,0.0,0.0,0.0,4.5594,4.5594,4.5594,4.5594,0.0,0.0,0.0,4.6547,4.7048,4.7509,4.7735,4.7966,4.8355,4.9009,4.9048,4.9317,4.9938,5.0207,5.0322,5.0322,5.0322,5.0476,5.0707,5.0707,5.1784,5.3895,5.478,5.6549,5.905,6.0012,6.0973,6.1743,6.0314,6.1083,6.2929,5.844,5.8401,6.071,5.7594,5.7857,5.9704,5.8665,5.9627,6.1056,5.8858,5.7973,5.7082,5.3159,5.1005,4.9861,4.924,5.024,5.139,5.0553,0.0,0.0,0.0,0.0,0.0,5.5511,5.7016,5.8517,6.0204,6.1435,6.2666,6.4089,6.3968,6.3737,6.3968,6.4006,6.4243,6.4859,6.4436,6.4166,6.4551,6.3512,6.2935,6.3275,6.2781,6.2666,6.3275,6.3314,6.3045,6.248,6.1633,6.1056,6.0825,6.0787,6.1095,6.171,6.2781,6.3622,6.4237,6.5359,6.5904,6.5904,6.5904,6.5904,6.5936,6.675,6.725,6.7552,6.8821,6.9629,7.0052,7.0167,7.0475,7.086,7.0667,7.0706,7.0898,0.0,0.0,0.0,4.609,4.6124,4.624,4.659,4.6629,4.6629,0.0,0.0,0.0,4.7889,4.9005,4.9543,4.9202,4.9505,4.9774,4.9938,4.9938,5.0168,5.0668,5.0707,5.0861,5.1202,5.0861,5.0861,5.1202,5.1202,5.1895,5.3236,5.4087,5.5472,5.7242,5.8248,5.8863,5.9132,5.778,5.9396,6.2589,6.0133,6.0748,6.2864,6.0358,6.0973,6.3045,6.1897,6.2627,6.3749,6.0973,5.9319,5.7742,5.3697,5.2587,5.2554,5.1356,5.2164,0.0,0.0,0.0,5.3703,5.3544,0.0,0.0,5.4626,5.5208,5.5785,5.7126,5.8088,5.9094,6.0435,6.0666,6.0896,6.1583,6.1698,6.2275,6.3852,6.332,6.2974,6.3512,6.2364,6.1749,6.2204,6.182,6.1749,6.2204,6.2243,6.205,6.1595,6.1095,6.0787,6.0787,6.0787,6.121,6.2095,6.2897,6.3737,6.4628,6.5474,6.5904,6.5904,6.5904,6.5904,6.5942,6.6404,6.6596,6.675,6.8436,6.936,6.9783,7.0591,7.0898,7.0898,7.0898,7.0898,7.0898,0.0,0.0,4.6013,4.6889,4.712,4.7466,4.8274,4.8312,4.8274,0.0,4.8543,4.9048,4.9971,5.1351,5.189,5.1169,5.1702,5.1736,5.1015,5.0976,5.0976,5.0976,5.0976,5.1318,5.2043,5.1356,5.1318,5.2038,5.2038,5.2505,5.3351,5.4126,5.4934,5.5708,5.5708,5.6132,5.6824,5.6324,5.8286,6.1672,6.1787,6.3057,6.4859,6.4666,6.6122,6.8045,6.6551,6.6481,6.6481,6.2441,5.944,5.6978,5.4549,5.4664,5.5401,5.3895,5.4511,0.0,0.0,0.0,0.0,5.5439,5.3933,0.0,5.4934,5.428,5.3433,5.4318,5.4972,5.5747,5.6824,5.6983,5.7517,5.9127,5.9358,6.0281,6.2814,6.2474,6.1979,6.2095,6.1325,6.0787,6.0787,6.0787,6.0787,6.0787,6.0787,6.0787,6.0787,6.0787,6.0787,6.0787,6.0787,6.1248,6.221,6.2935,6.3775,6.4743,6.5513,6.5904,6.5904,6.5904,6.5904,6.5904,6.5904,6.5942,6.6167,6.7737,6.8853,6.9667,7.0552,7.0898,7.0898,7.0898,7.0898,7.0898,0.0,4.6163,4.6889,4.7735,4.8432,4.9202,5.0053,4.9591,4.9394,5.0091,5.1356,5.2779,5.4323,5.4164,5.3933,5.378,5.328,5.289,5.2702,5.2702,5.2702,5.2702,5.2702,5.2779,5.2928,5.2779,5.2779,5.2967,5.2967,5.339,5.4241,5.4434,5.4934,5.5708,5.5708,5.5785,5.6093,5.7973,5.8858,5.9088,5.9742,6.2666,6.6481,6.5128,6.5743,6.7321,6.6981,6.6981,6.6673,6.3782,6.1589,5.9748,5.7896,5.6588,5.5631,5.5324,5.5439,5.5631,5.528,5.5857,5.6236,5.5011,5.4857,0.0,5.3895,5.3428,5.3433,5.4318,5.4087,5.4357,5.6593,5.6983,5.7324,5.8357,5.8544,5.9435,6.1979,6.1595,6.1325,6.2018,6.1325,6.0787,6.0787,6.0787,6.0787,6.0787,6.0787,6.0787,6.0787,6.0787,6.0787,6.0787,6.0787,6.1512,6.3045,6.3237,6.4083,6.5628,6.582,6.5904,6.5904,6.5904,6.5904,6.5904,6.5904,6.6288,6.6942,6.7968,6.8507,6.8814,7.0321,7.0898,7.0898,7.0898,7.0898,7.0898,4.6932,4.7201,4.7889,4.9163,4.9745,5.0476,5.1741,5.1933,5.2087,5.2554,5.4054,5.5439,5.6247,5.5978,5.5555,5.5131,5.4318,5.3664,5.3236,5.3197,5.3197,5.3197,5.3197,5.339,5.3857,5.3857,5.3857,5.3857,5.4241,5.4472,5.4511,5.4895,5.5324,5.5708,5.5708,5.5939,5.6439,5.7709,5.9011,6.0281,6.155,6.3589,6.5859,6.5859,6.6898,6.8398,6.8398,6.7827,6.6635,6.3705,6.2397,6.155,5.8588,5.8209,5.8632,5.7357,5.728,5.7511,5.7126,5.7319,5.7467,5.6626,5.6049,0.0,0.0,5.3159,5.2813,5.3664,5.2856,5.2587,5.4708,5.5088,5.5395,5.6242,5.7126,5.8242,5.9973,5.9819,5.9704,6.0165,5.9819,5.9704,6.0127,6.0165,6.0319,6.0787,6.0787,6.0787,6.0787,6.0787,6.0787,6.0787,6.0787,6.1402,6.2704,6.3083,6.3968,6.5243,6.5705,6.5904,6.5904,6.5904,6.5904,6.5904,6.6327,6.675,6.7212,6.8513,6.9045,6.9161,7.0437,7.0898,7.0898,7.0898,7.0898,7.0898,4.8159,4.8235,4.8856,5.0438,5.0976,5.1707,5.3203,5.4049,5.4626,5.4939,5.6439,5.7555,5.7709,5.744,5.7247,5.7165,5.5665,5.4703,5.4664,5.4049,5.3664,5.3664,5.3664,5.401,5.4703,5.4741,5.4741,5.4741,5.5401,5.5362,5.4741,5.5401,5.5785,5.5939,5.5785,5.6478,5.7709,5.7555,5.9286,6.2249,6.3935,6.4705,6.5013,6.6519,6.809,6.9436,6.9436,6.8436,6.6635,6.3595,6.3012,6.2891,5.9171,5.9748,6.1441,5.9396,5.9127,5.9396,5.8896,5.8896,5.8896,5.8429,5.7473,5.6285,0.0,0.0,0.0,5.3121,5.1972,5.1438,5.3126,5.3159,5.3236,5.4126,5.5516,5.6709,5.7236,5.7467,5.7813,5.8434,5.8242,5.8434,5.9396,5.9358,5.9627,6.0473,6.055,6.0633,6.0787,6.0787,6.0787,6.0787,6.0787,6.121,6.2095,6.2897,6.3737,6.4628,6.5474,6.5904,6.5904,6.5904,6.5904,6.5936,6.6596,6.7058,6.7475,6.8859,6.9629,7.0014,7.0667,7.0898,7.0898,7.0898,7.0898,7.0898,4.8394,4.8702,4.9553,5.0515,5.1933,5.3241,5.4203,5.4434,5.5016,5.6516,5.8171,5.9511,6.0287,5.905,5.9313,6.2198,5.8204,5.6824,5.9742,5.7093,5.5439,5.5439,5.5439,5.5478,5.5555,5.5555,5.5555,5.5555,5.567,5.567,5.5555,5.567,5.6093,5.6824,5.6055,5.744,6.0325,5.955,6.0325,6.2249,6.3935,6.5051,6.5865,6.675,6.7705,6.8545,6.8545,6.7936,6.6827,6.4936,6.4397,6.4128,6.2133,6.1248,6.0902,6.0589,6.0012,5.9665,6.0319,6.1095,6.1133,5.8858,5.9281,5.9209,5.5357,0.0,5.4857,5.351,0.0,5.2274,5.4049,0.0,0.0,5.3197,5.4164,5.4549,5.3851,5.4434,5.6011,5.9011,5.8055,5.7786,5.9358,5.8858,5.8775,5.9588,5.9665,5.9973,6.0748,6.0787,6.0787,6.0787,6.0787,6.121,6.2095,6.2897,6.3737,6.4628,6.5474,6.5904,6.5904,6.5904,6.5904,6.5904,6.6013,6.6898,6.8276,6.8468,6.9436,7.0783,7.086,7.0898,7.0898,7.0898,7.0898,7.0898,4.9745,4.9899,5.0592,5.1933,5.2741,5.3818,5.567,5.7632,5.9171,5.9863,6.0973,6.2243,6.3589,6.2243,6.1968,6.3891,6.1204,5.9594,6.0012,5.8242,5.7203,5.7203,5.7203,5.6973,5.6478,5.6439,5.6209,5.5708,5.5708,5.5708,5.5708,5.5708,5.617,5.6983,5.6632,5.7786,6.005,6.0204,6.0979,6.221,6.3358,6.4359,6.5359,6.7167,6.8398,6.9007,6.8013,6.7398,6.6789,6.4589,6.4512,6.4897,6.221,6.1743,6.205,6.1089,6.0902,6.0979,6.0825,6.1441,6.1595,5.9511,5.9165,5.8627,5.5818,5.5093,5.4934,5.4703,0.0,0.0,0.0,0.0,0.0,0.0,5.3933,5.4203,5.3313,5.3082,5.4044,5.6934,5.6247,5.6209,5.7901,5.8204,5.8434,5.8781,5.8819,5.9165,6.0012,6.005,6.0281,6.0787,6.0787,6.0979,6.1325,6.2666,6.3468,6.3852,6.5243,6.5904,6.5904,6.5904,6.5904,6.5942,6.6404,6.7282,6.843,6.893,6.986,7.0898,7.0898,7.0898,7.0898,7.0898,7.0898,7.0898,5.1399,0.0,5.1471,5.2933,5.3395,5.4434,5.6978,5.9479,6.1325,6.2018,6.2589,6.3705,6.5711,6.4782,6.4814,6.6853,6.4634,6.2787,6.2006,6.0089,5.8781,5.8313,5.8506,5.8242,5.7363,5.7363,5.694,5.6055,5.5824,5.5824,5.6055,5.6055,5.6632,5.7709,5.794,5.8979,6.0589,6.1473,6.2326,6.3211,6.4012,6.5013,6.6167,6.7513,6.859,6.9167,6.7628,6.6981,6.6481,6.4628,6.4859,6.5436,6.2704,6.2512,6.3006,6.1595,6.1441,6.1595,6.0979,6.1441,6.1672,5.9935,5.905,5.8165,5.6439,5.578,5.5626,5.5978,5.528,0.0,0.0,0.0,5.4549,5.3703,0.0,5.4203,5.3313,5.2467,5.2774,5.5088,5.5247,5.567,5.6868,5.7555,5.805,5.8275,5.8088,5.8396,5.9435,5.9511,5.9896,6.0781,6.0787,6.0787,6.0787,6.2243,6.2974,6.2974,6.4705,6.5551,6.5551,6.5788,6.5904,6.5936,6.675,6.759,6.8468,6.936,7.0167,7.0898,7.0898,7.0898,7.0898,7.0898,7.1052,7.1245,5.3121,5.2428,5.2159,5.3044,5.3895,5.5318,5.7857,5.8352,5.9319,6.1787,6.2133,6.3095,6.5634,6.5865,6.7821,7.2776,6.8667,6.6436,6.8007,6.3474,6.0012,5.8352,5.905,5.9088,5.828,5.8275,5.7819,5.6945,5.6093,5.6132,5.6945,5.6945,5.7824,5.9473,6.0281,6.1627,6.3237,6.4128,6.4974,6.5865,6.6635,6.8013,6.936,6.7744,6.7667,6.8314,6.7398,6.6596,6.5942,6.5827,6.5865,6.575,6.4782,6.3929,6.3121,6.2287,6.1479,6.0825,6.0825,6.1441,6.1672,5.9935,5.9473,5.9011,5.7324,5.7588,5.7934,5.7132,5.7588,5.8159,5.8204,5.6819,0.0,0.0,5.4472,0.0,0.0,5.2467,5.2544,5.4318,5.5939,5.6945,5.6983,5.7016,5.7401,5.8236,5.7517,5.7747,5.9396,5.9511,5.9896,6.0781,6.0787,6.0787,6.0787,6.1672,6.2133,6.2172,6.382,6.4628,6.4666,6.5513,6.5904,6.5936,6.675,6.759,6.8468,6.936,7.0167,7.0898,7.0898,7.0898,7.0898,7.0898,7.1437,7.2175,5.4741,5.4626,5.4357,5.4087,5.4318,5.5549,5.8627,6.0544,6.2737,6.5859,6.6282,6.7898,7.2129,7.2052,7.2668,7.4938,7.3053,7.1245,7.0129,6.7398,6.5089,6.3397,6.3589,6.282,6.0864,6.0825,6.0094,5.8665,5.7819,5.7588,5.7857,5.7857,5.8434,5.955,6.0396,6.1089,6.182,6.4359,6.4974,6.4397,6.6936,6.9321,7.1168,6.9475,6.9013,6.909,6.7635,6.6942,6.6596,6.6096,6.5904,6.5743,6.4859,6.4397,6.3897,6.2518,6.2672,6.3051,6.1941,6.271,6.3205,6.0935,5.9935,5.9204,5.8127,5.8088,5.8204,5.7934,5.8511,5.8929,5.839,5.7819,0.0,0.0,0.0,0.0,0.0,5.2077,5.2313,5.351,5.5126,5.6132,5.6132,5.567,5.5708,5.6511,5.5824,5.6093,5.7747,5.8396,5.9088,5.9896,6.0517,6.0787,6.0787,6.1672,6.2364,6.2897,6.4051,6.4897,6.5474,6.5782,6.5904,6.5936,6.675,6.759,6.8468,6.936,7.0167,7.0898,7.0898,7.0898,7.0975,7.1552,7.1944,7.2367,5.6626,5.6626,5.6357,5.5516,5.5665,5.6896,5.9973,6.2589,6.5429,6.8853,6.9814,7.193,7.6399,7.6669,7.6861,7.7746,7.7015,7.5161,7.2014,7.0815,6.9045,6.6442,6.6628,6.559,6.3057,6.3288,6.2172,5.9511,5.9588,5.9319,5.8742,5.8742,5.9165,6.005,6.182,6.1941,6.1095,6.5705,6.6359,6.4551,6.8244,7.0552,7.1629,7.086,7.0591,7.0321,6.8282,6.7552,6.7475,6.6974,6.659,6.6282,6.6013,6.532,6.4436,6.3672,6.3782,6.3897,6.282,6.332,6.3666,6.1749,6.0594,5.9742,5.8934,5.8973,5.9088,5.8781,5.9627,6.0165,5.9358,5.8934,0.0,0.0,0.0,0.0,0.0,5.2236,5.2813,5.2736,5.4472,5.5708,5.5708,5.5247,5.5011,5.5247,5.478,5.5093,5.6478,5.7665,5.8665,5.9473,6.0358,6.0787,6.0787,6.1364,6.2056,6.2897,6.3743,6.4589,6.5436,6.5743,6.5904,6.5981,6.709,6.7898,6.8507,6.9667,7.0437,7.0898,7.0898,7.0898,7.1014,7.1867,7.2591,7.3283,5.8742,5.8506,5.828,5.744,5.7896,5.9242,6.1826,6.4365,6.7205,7.0629,7.2622,7.5053,7.8446,7.9515,8.0354,8.1208,8.0477,7.8238,7.4123,7.3853,7.1937,6.7712,6.8282,6.7507,6.4974,6.5628,6.4012,5.9896,6.1364,6.1287,5.9704,5.9665,6.005,6.0935,6.4365,6.4019,6.1248,6.7936,6.8975,6.6513,7.052,7.1706,7.1168,7.1867,7.2175,7.1944,6.9391,6.8468,6.8468,6.8391,6.7859,6.7282,6.8084,6.666,6.4859,6.5628,6.4705,6.3429,6.3391,6.3391,6.3237,6.2441,6.1556,6.0704,5.9896,6.0281,6.0633,5.9819,6.0941,6.1826,6.0902,6.0089,5.9281,0.0,0.0,0.0,5.1169,5.2938,5.3895,5.2274,5.4241,5.567,5.5593,5.5555,5.5247,5.4549,5.4472,5.4818,5.567,5.7357,5.866,5.9435,6.0319,6.0825,6.0864,6.0864,6.1325,6.221,6.3012,6.3814,6.4705,6.5513,6.5904,6.5974,6.7667,6.8391,6.8545,7.0206,7.0898,7.0898,7.0898,7.0937,7.1129,7.1975,7.3322,7.4892,6.0358,6.1166,6.1968,6.1704,6.0314,6.0281,6.3474,6.5557,6.8481,7.3129,7.5745,7.8746,8.2824,8.2862,8.2978,8.3862,8.3131,8.1631,7.9285,7.8554,7.6861,7.386,7.3322,7.1892,6.936,6.8276,6.6898,6.5128,6.3095,6.2172,6.2314,6.1704,6.121,6.0935,6.4365,6.4019,6.1166,6.6699,6.9244,6.9706,7.0783,7.2245,7.3546,7.186,7.2052,7.2822,7.0283,6.936,6.9283,6.8622,6.8237,6.7968,6.7552,6.6981,6.625,6.5243,6.5089,6.5089,6.4436,6.4743,6.5013,6.4166,6.332,6.2583,6.2391,6.2012,6.171,6.1479,6.1787,6.1633,6.0127,6.0165,5.9787,0.0,0.0,0.0,5.2741,5.3664,5.4549,5.4703,5.528,5.5203,5.3972,5.3274,5.3313,5.4434,5.3895,5.4164,5.5631,5.7357,5.839,5.8583,6.0012,6.1095,6.1749,6.1787,6.2518,6.3974,6.4166,6.4705,6.5551,6.5788,6.5904,6.5974,6.7667,6.8391,6.8545,7.0206,7.0898,7.0898,7.0898,7.1706,7.2853,7.3084,7.4245,7.5707,6.3211,6.4705,6.6199,6.6545,6.6083,6.6128,6.7705,6.8706,7.1021,7.5745,7.8592,8.1362,8.4555,8.544,8.6025,8.6517,8.5401,8.367,8.1246,8.0977,7.9592,7.6669,7.6092,7.4476,7.1514,7.0167,6.8513,6.6596,6.4288,6.3243,6.3275,6.2095,6.1287,6.0935,6.4365,6.4397,6.2166,6.6545,6.9814,7.2014,7.1629,7.2322,0.0,7.2014,7.1822,7.2161,7.0744,7.0206,7.0167,6.9667,6.9276,6.893,6.8783,6.8244,6.7552,6.6974,6.6628,6.6327,6.582,6.5782,6.5705,6.482,6.4243,6.366,6.2935,6.2441,6.1979,6.1595,6.1518,6.1133,5.9742,5.9896,5.9396,5.6863,5.5631,5.4587,5.3351,5.3933,5.4511,5.4587,5.5241,5.5049,5.3351,5.3082,5.3121,5.3351,5.3626,5.4164,5.5131,5.7165,5.8313,5.8313,6.0627,6.1973,6.2095,6.2826,6.3666,6.4589,6.4589,6.5243,6.6404,6.6404,6.6628,6.7051,6.8391,6.8968,6.9084,7.036,7.0898,7.0898,7.0898,7.1975,7.3507,7.3507,7.4546,7.6015,6.6558,6.8436,7.0398,7.0975,7.2783,7.4053,7.3752,7.3598,7.4868,7.8677,8.1601,8.3862,8.5393,8.7517,8.8795,8.8718,8.7209,8.4939,8.1785,8.2131,8.1139,7.8099,7.7753,7.6137,7.2944,7.1591,6.9475,6.6551,6.5013,6.4012,6.3429,6.1743,6.0902,6.0935,6.4365,6.5128,6.4006,6.7083,7.0238,7.3084,7.2322,7.2175,7.2367,7.2136,7.1552,7.0898,7.0898,7.0898,7.0898,7.0898,7.0437,6.9975,7.0552,6.9744,6.8699,6.936,6.8475,6.725,6.7135,6.6596,6.5865,6.4974,6.4782,6.4397,6.2941,6.2518,6.2172,6.1325,6.1056,6.0671,5.9665,5.9319,5.8511,5.6511,5.5939,5.5241,5.3895,5.4241,5.4434,5.378,5.4972,0.0,5.3664,5.4126,5.3857,5.2351,5.3626,5.4549,5.4664,5.6973,5.8313,5.8313,6.1429,6.2974,6.2595,6.3935,6.4782,6.5089,6.4974,6.5705,6.7096,6.7212,6.7667,6.8468,6.9321,6.9706,6.9744,7.0552,7.0975,7.1091,7.1206,7.2245,7.3661,7.3661,7.4668,7.6015,6.9052,7.1084,7.2668,7.2052,7.5099,7.8523,8.1216,8.0977,8.1054,8.2524,8.6132,8.8701,8.9009,8.9432,8.944,8.8756,8.7748,8.6324,8.4354,8.367,8.2793,8.1477,8.0092,7.8438,7.6445,7.2783,7.0591,7.0014,6.5019,6.3172,6.4359,6.2672,6.1479,6.0935,6.4365,6.609,6.6519,6.7859,6.9545,7.1321,7.1206,7.1975,7.3122,7.1668,7.1014,7.0898,7.0898,7.0898,7.0898,7.0898,7.0821,7.0591,7.009,6.9706,6.9353,6.8776,6.8391,6.8013,6.7282,6.7019,6.6673,6.5859,6.5673,6.559,6.5288,6.4666,6.3897,6.3045,6.232,6.1402,5.9781,5.8363,5.7747,5.8665,5.7049,5.5862,5.6285,5.5862,5.5708,5.6285,5.6593,5.6362,5.5362,5.478,5.4357,5.4087,5.4318,5.478,5.5439,5.728,5.8313,5.8313,6.0902,6.3249,6.5211,6.482,6.5667,6.7737,6.7013,6.6827,6.7135,6.7859,6.8276,6.8468,6.9321,6.9706,6.9744,7.0552,7.1321,7.2059,7.2745,7.3623,7.4469,7.4469,7.513,7.6092,7.3553,7.4976,7.6361,7.7284,8.0208,8.3439,8.6401,8.7632,8.7594,8.5794,8.7709,8.9094,8.8671,9.021,9.1095,9.071,8.9103,8.7363,8.5632,8.4324,8.3024,8.1747,8.09,7.9477,7.7369,7.3976,7.2014,7.1552,6.6096,6.4051,6.5243,6.3095,6.1633,6.0902,6.3435,6.6013,6.8475,6.8898,7.0314,7.2238,7.2238,7.3007,7.4007,7.2738,7.2238,7.2238,7.2238,7.2238,7.2129,7.1206,7.0898,7.0821,7.0437,7.0321,7.0244,6.9821,6.9391,6.8975,6.8552,6.7789,6.7019,6.6635,6.6211,6.5788,6.532,6.4897,6.4243,6.2935,6.2364,6.171,6.0396,5.9165,5.855,5.9358,5.8473,5.7665,5.7665,5.694,5.6516,5.6945,5.6983,5.667,5.5785,5.5832,5.5509,5.4559,5.4895,5.5285,5.567,5.7357,5.8313,5.8313,6.1627,6.3782,6.4551,6.5436,6.6282,6.709,6.7096,6.7327,6.7782,6.866,6.9314,6.9706,7.0129,7.0321,7.0398,7.1245,7.1828,7.229,7.3168,7.4007,7.47,7.47,7.5553,7.6746,7.8169,7.9023,8.0331,8.2708,8.5363,8.7855,8.9855,9.2518,9.2941,8.921,8.9487,8.9641,8.8594,9.1056,9.2556,9.1979,8.994,8.8017,8.6478,8.4824,8.3208,8.1708,8.1439,8.0246,7.7861,7.5168,7.3161,7.1905,6.7359,6.5128,6.5057,6.3403,6.2172,6.1396,6.3281,6.5897,6.8936,6.9667,7.1206,7.3238,7.343,7.3969,7.4584,7.3584,7.3353,7.3469,7.3276,7.3353,7.3276,7.1937,7.1321,7.1129,7.0975,7.0898,7.0898,7.0898,7.0437,6.9937,6.9744,6.8706,6.7596,6.7398,6.675,6.5981,6.5282,6.5013,6.4436,6.2941,6.2364,6.1941,6.1435,6.0319,5.9627,5.9973,5.9588,5.9088,5.8627,5.7973,5.7401,5.7055,5.7324,5.7055,5.5824,5.6598,5.654,5.492,5.5368,5.5728,5.5708,5.7357,5.8313,5.8313,6.2198,6.4166,6.3852,6.582,6.6789,6.6705,6.7167,6.7821,6.8699,6.9552,7.0283,7.0898,7.0898,7.0898,7.0975,7.2052,7.2476,7.2591,7.363,7.443,7.5007,7.5168,7.613,7.7369,8.1516,8.2524,8.3678,8.544,8.8517,9.0787,9.1056,9.3903,9.5365,9.3364,9.3873,9.3796,9.221,9.2941,9.2672,9.0355,8.9248,8.8295,8.7325,8.5709,8.4362,8.3409,8.2593,8.1362,7.9585,7.6315,7.3437,7.1014,6.825,6.5365,6.248,6.3782,6.3897,6.316,6.5628,6.6558,6.6436,6.9513,7.136,7.2406,7.3161,7.3969,7.4546,7.2937,7.2822,7.3392,7.2591,7.2822,7.3469,7.3315,7.2745,7.1944,7.1168,7.0898,7.0898,7.0898,7.086,7.0629,6.9898,6.959,6.9283,6.8468,6.7628,6.6981,6.6865,6.6288,6.5513,6.4551,6.3172,6.2287,6.2929,6.1121,6.0012,6.1595,5.9935,5.8621,5.9319,5.9319,5.8704,5.717,5.8325,5.8319,5.5939,5.6598,5.6798,5.5852,5.5848,5.5839,5.5719,5.7357,5.8313,5.8313,6.1621,6.4122,6.5628,6.5897,6.7128,6.936,6.8622,6.8737,6.9629,7.0437,7.0821,7.0898,7.0898,7.0898,7.1014,7.2699,7.3392,7.3546,7.513,7.5822,7.5976,7.6784,7.7176,7.7522,8.5247,8.5632,8.6748,8.9479,9.0633,9.1902,9.3941,9.5441,9.6057,9.5365,9.5557,9.4941,9.2749,9.321,9.2864,9.0855,8.9902,8.8863,8.7478,8.5824,8.4286,8.287,8.2016,8.1016,7.9815,7.7938,7.5745,7.3168,7.1668,6.9475,6.6628,6.5782,6.4628,6.3352,6.4352,6.5782,6.7545,6.9898,7.1706,7.3091,7.4476,7.5207,7.5399,7.4745,7.4707,7.4938,7.4591,7.4707,7.4938,7.4392,7.3322,7.2136,7.1783,7.1321,7.0898,7.0898,7.0898,7.0821,7.0514,6.9706,6.8968,6.9129,6.8129,6.7096,6.7096,6.6865,6.625,6.4897,6.3742,6.3047,6.3273,6.2133,6.1392,6.2015,6.0825,5.9896,6.0242,5.9819,5.9088,5.7934,5.7901,5.7401,5.5862,5.6134,5.6935,5.8164,5.6784,5.6111,5.6559,5.7674,5.8506,5.9006,6.1814,6.3622,6.432,6.5859,6.7135,6.8129,6.8859,6.9353,6.9744,7.0514,7.0898,7.0898,7.0898,7.1206,7.1783,7.3014,7.3776,7.4353,7.5515,7.6322,7.6823,7.7176,7.7938,7.89,8.8748,8.8902,8.9902,9.3056,9.3095,9.3518,9.5942,9.6288,9.6288,9.6288,9.6288,9.5518,9.3441,9.3518,9.3133,9.171,9.0325,8.9056,8.7863,8.6209,8.4593,8.3131,8.2285,8.1439,8.0554,7.9438,7.763,7.5084,7.4507,7.2545,6.9283,6.7744,6.6205,6.4814,6.5583,6.7122,6.9237,7.0937,7.2507,7.3969,7.5438,7.6015,7.5976,7.5707,7.5784,7.5976,7.5707,7.5784,7.5899,7.5284,7.413,7.2899,7.2668,7.1975,7.1283,7.1283,7.1091,7.0898,7.0898,7.0052,6.9276,6.9898,6.8936,6.7859,6.7859,6.7667,6.7167,6.5974,6.496,6.4309,6.4401,6.3459,6.2742,6.2888,6.1968,6.1235,6.1235,6.069,5.9892,5.8862,5.8415,5.7756,5.668,5.6691,5.7544,5.939,5.782,5.7243,5.8358,5.8558,5.8935,5.9561,6.2015,6.3429,6.366,6.5974,6.7366,6.7859,6.9129,6.9821,7.0052,7.0629,7.0898,7.0898,7.0898,7.1398,7.229,7.3122,7.3969,7.4815,7.5938,7.6746,7.7369,7.7861,7.8784,7.9854,9.1941,9.2441,9.3249,9.5826,9.6249,9.6249,9.6288,9.6288,9.6288,9.6288,9.6288,9.5942,9.5066,9.422,9.3364,9.2556,9.018,8.8718,8.8679,8.7055,8.5701,8.4893,8.4016,8.3178,8.2285,8.0631,7.8554,7.5976,7.5976,7.3399,6.843,6.9283,6.9161,6.8468,7.0975,7.1636,7.0975,7.2738,7.393,7.4776,7.5668,7.6015,7.5899,7.5053,7.5245,7.5899,7.5007,7.5284,7.6015,7.5976,7.5399,7.4546,7.3738,7.2899,7.2175,7.2175,7.1552,7.0898,7.0898,7.0898,7.086,7.0898,7.0283,6.9667,6.9667,6.9007,6.8391,6.8353,6.7013,6.6096,6.6904,6.5153,6.3833,6.4637,6.3373,6.2297,6.2297,6.2143,6.1516,5.9968,6.0455,6.0352,5.8799,5.8763,5.8889,5.8928,5.8889,5.956,6.1175,6.0146,5.9572,5.9792,6.2089,6.3698,6.4589,6.6244,6.7975,6.9667,6.9706,7.0129,7.0898,7.0898,7.0898,7.0898,7.0898,7.1398,7.229,7.3122,7.3969,7.4853,7.6592,7.7292,7.7484,7.9169,7.9777,7.9931,9.4066,9.4672,9.5365,9.6172,9.6288,9.6288,9.6288,9.6288,9.6288,9.6288,9.6288,9.6211,9.5903,9.4595,9.3364,9.2556,9.121,9.0133,8.9556,8.794,8.6594,8.5747,8.3785,8.2593,8.2324,8.1246,7.9708,7.7715,7.8284,7.6592,7.2699,7.243,7.1507,7.0129,7.0937,7.1822,7.2738,7.3853,7.4822,7.563,7.5899,7.6015,7.5976,7.5707,7.5745,7.5976,7.5707,7.5745,7.6015,7.6015,7.5822,7.5553,7.5284,7.4245,7.2976,7.2367,7.2437,7.2552,7.1937,7.1783,7.1783,7.1783,7.1168,7.036,6.9821,6.9045,6.8237,6.7628,6.7191,6.6835,6.6481,6.542,6.4521,6.416,6.3196,6.2305,6.1719,6.1585,6.1139,6.0087,6.0171,5.9882,5.8813,5.8739,5.9503,6.1298,6.0317,5.9904,6.0527,6.0092,6.0352,6.1457,6.2805,6.4139,6.548,6.7167,6.8552,6.9706,7.0244,7.0667,7.0937,7.1521,7.1783,7.1828,7.2399,7.3122,7.3937,7.4199,7.4815,7.563,7.6207,7.7092,7.8176,7.8707,7.9769,8.0944,9.5489,9.5942,9.6288,9.6288,9.6288,9.6288,9.6288,9.6288,9.6288,9.6288,9.6288,9.6288,9.6288,9.5057,9.3835,9.3018,9.1595,9.047,8.9932,8.8325,8.7171,8.6594,8.4478,8.3285,8.3285,8.2131,8.1016,7.9946,7.9515,7.8054,7.5668,7.5168,7.4361,7.3322,7.363,7.4361,7.5399,7.5899,7.6438,7.6938,7.6938,7.6938,7.6938,7.6938,7.6746,7.6476,7.6476,7.6284,7.6015,7.6015,7.6015,7.6015,7.6015,7.5284,7.4276,7.3399,7.3322,7.3392,7.2822,7.2437,7.229,7.2591,7.2014,7.1245,7.0744,7.0206,6.959,6.8706,6.8408,6.8,6.7112,6.6475,6.5648,6.4477,6.3676,6.2854,6.1992,6.1557,6.1115,6.0628,6.0557,6.0382,5.9879,6.0118,6.0859,6.2145,6.1872,6.1384,6.0796,6.0889,6.1433,6.2468,6.383,6.517,6.647,6.8078,6.9321,7.0167,7.0975,7.1552,7.1898,7.2437,7.2706,7.2706,7.3276,7.3969,7.47,7.47,7.5247,7.6133,7.638,7.7386,7.8759,7.9017,8.0117,8.1499,9.6288,9.6288,9.6288,9.6288,9.6288,9.6288,9.6288,9.6288,9.6288,9.6288,9.6288,9.6288,9.6288,9.5518,9.4681,9.3873,9.1518,9.0047,8.997,8.844,8.7478,8.7478,8.5824,8.4893,8.4893,8.3247,8.2362,8.2285,7.9869,7.8292,7.7561,7.7484,7.7484,7.7484,7.8176,7.8484,7.8484,7.8484,7.8484,7.8484,7.8484,7.8484,7.8484,7.8446,7.7946,7.7292,7.7215,7.6669,7.6015,7.6015,7.6015,7.6015,7.6053,7.6053,7.5822,7.4969,7.4199,7.3661,7.3584,7.3053,7.2629,7.3392,7.2937,7.229,7.2213,7.2252,7.2059,7.1168,7.036,6.9527,6.8687,6.8016,6.7048,6.5396,6.4577,6.3779,6.2841,6.1905,6.1366,6.1502,6.1589,6.1652,6.1796,6.2539,6.2695,6.1914,6.332,6.3515,6.1953,6.2531,6.2937,6.2987,6.5083,6.6655,6.7605,6.9001,7.015,7.1016,7.1874,7.2706,7.3507,7.3574,7.3612,7.3584,7.3679,7.4109,7.4819,7.4847,7.5401,7.6405,7.7079,7.8075,7.9166,7.9877,8.0811,8.1707,9.6288,9.6288,9.6288,9.6288,9.6288,9.6288,9.6288,9.6288,9.6288,9.6288,9.6288,9.6288,9.6288,9.5518,9.4912,9.472,9.2979,9.1595,9.0941,8.9325,8.841,8.841,8.617,8.4893,8.4893,8.3824,8.2986,8.2285,8.1093,8.04,8.0169,7.9515,7.9208,7.9208,7.8715,7.8484,7.8484,7.8484,7.8484,7.8484,7.8484,7.8484,7.8446,7.783,7.7484,7.7215,7.6553,7.6169,7.6015,7.6015,7.6015,7.613,7.6784,7.6553,7.5822,7.4969,7.5053,7.5245,7.4584,7.4745,7.4976,7.4546,7.3815,7.3014,7.236,7.2706,7.2937,7.2052,7.1206,7.0439,6.9864,6.8574,6.7158,6.5716,6.4798,6.3708,6.2184,6.1749,6.1631,6.1636,6.2223,6.2654,6.2695,6.289,6.3161,6.3525,6.3393,6.3357,6.3524,6.502,6.5523,6.4743,6.6494,6.8132,6.9526,6.99,7.079,7.212,7.2835,7.3315,7.3521,7.43,7.4545,7.4466,7.5441,7.5895,7.5939,7.608,7.6307,7.6621,7.7429,7.8328,7.9186,8.0037,8.1003,8.1912,9.6288,9.6288,9.6288,9.6288,9.6288,9.6288,9.6288,9.6288,9.6288,9.6288,9.6288,9.6288,9.6288,9.5865,9.5451,9.5027,9.3489,9.2287,9.1825,9.021,8.9248,8.9248,8.7209,8.6055,8.6055,8.4824,8.3555,8.2285,8.1862,8.1477,8.1093,8.0631,8.04,8.0362,7.99,7.9669,7.9669,7.9669,7.9669,7.9669,7.9669,7.9669,7.9638,7.9208,7.8784,7.8361,7.79,7.7476,7.7138,7.7138,7.7138,7.7246,7.7715,7.7522,7.7053,7.6592,7.6515,7.6553,7.6476,7.6207,7.5784,7.4938,7.4661,7.4399,7.3553,7.3707,7.3815,7.2976,7.2091,7.1332,7.0761,6.9309,6.7581,6.5755,6.4802,6.3672,6.1953,6.1719,6.1836,6.2265,6.3047,6.375,6.414,6.4922,6.5194,6.4829,6.5154,6.5194,6.4828,6.7224,6.785,6.6075,6.8392,7.0029,7.0863,7.1575,7.257,7.3764,7.4168,7.4519,7.4951,7.5489,7.5673,7.562,7.6289,7.656,7.6452,7.6537,7.6635,7.6813,7.7598,7.8519,7.9476,8.0243,8.1236,8.2125,9.6288,9.6288,9.6288,9.6288,9.6288,9.6288,9.6288,9.6288,9.6288,9.6288,9.6288,9.6288,9.6288,9.6288,9.6019,9.5258,9.3749,9.2749,9.2518,9.0855,8.9855,8.9701,8.8248,8.7325,8.7209,8.5555,8.3901,8.2285,8.217,8.1785,8.1093,8.1093,8.1093,8.1093,8.1093,8.1093,8.1093,8.1093,8.1093,8.1093,8.1093,8.1093,8.1093,8.0939,8.0439,7.9777,7.9662,7.9131,7.8484,7.8484,7.8484,7.8523,7.8638,7.86,7.8561,7.883,7.833,7.7792,7.8369,7.7445,7.6169,7.5322,7.5745,7.613,7.5123,7.5091,7.5007,7.4084,7.3294,7.2553,7.1769,7.0172,6.8288,6.6268,6.4913,6.3633,6.2265,6.1992,6.2226,6.3086,6.4219,6.5234,6.6094,6.7617,6.8008,6.668,6.7812,6.8008,6.664,6.9453,7.0117,6.793,7.0644,7.2139,7.2139,7.3556,7.461,7.5346,7.5436,7.5885,7.6582,7.6611,7.665,7.6586,7.6641,7.669,7.6667,7.6693,7.6858,7.7208,7.7891,7.8874,7.996,8.0675,8.1508,8.2304,9.6288,9.6288,9.6288,9.6288,9.6288,9.6288,9.6288,9.6288,9.6288,9.6288,9.6288,9.6288,9.6288,9.6288,9.6249,9.6095,9.5172,9.4027,9.2595,9.0855,8.9594,8.891,8.794,8.7055,8.6324,8.467,8.3324,8.2285,8.1631,8.1208,8.1093,8.1093,8.1093,8.1093,8.1093,8.1093,8.1093,8.1093,8.1093,8.1093,8.1093,8.1093,8.1016,8.0285,7.9931,7.97,7.8977,7.86,7.8484,7.8484,7.8484,7.8638,7.9361,7.9092,7.8792,8.0246,8.0092,7.9285,7.8677,7.8292,7.7907,7.7099,7.7522,7.7715,7.6169,7.6899,7.7476,7.5938,7.5652,7.5232,7.3837,7.114,6.9079,6.8863,6.5664,6.3359,6.3828,6.3242,6.3125,6.3984,6.6172,6.789,6.8711,6.9726,7.0508,7.0976,7.0586,7.0508,7.0976,7.2226,7.2734,7.2305,7.3515,7.4139,7.4139,7.4953,7.5413,7.5567,7.6112,7.6466,7.6628,7.6765,7.6755,7.66,7.6945,7.7001,7.686,7.7048,7.7573,7.8318,7.9096,7.9997,8.0898,8.1757,8.2148,8.2304,9.6288,9.6288,9.6288,9.6288,9.6288,9.6288,9.6288,9.6288,9.6288,9.6288,9.6288,9.6288,9.6288,9.6288,9.6288,9.6288,9.548,9.4489,9.321,9.1979,9.071,8.9402,8.8556,8.7478,8.6132,8.5324,8.4324,8.2986,8.2631,8.1977,8.1093,8.1093,8.1093,8.1093,8.1093,8.1093,8.1093,8.1093,8.1093,8.1093,8.1093,8.1093,8.1054,8.0669,8.0516,8.0439,8.0054,7.99,7.99,7.99,7.99,7.9977,8.0362,8.0208,8.0054,8.0862,8.0823,8.0323,7.9438,7.9208,7.9015,7.8176,7.8215,7.8292,7.7522,7.7946,7.8292,7.7522,7.7081,7.6534,7.5572,7.3049,7.1025,7.0857,6.7226,6.4687,6.5586,6.4961,6.4883,6.625,6.8672,7.0586,7.1406,7.2305,7.2773,7.2695,7.2344,7.2265,7.2695,7.3515,7.4219,7.4687,7.5078,7.5742,7.668,7.7024,7.7368,7.7797,7.8121,7.826,7.826,7.8371,7.8369,7.8263,7.8471,7.824,7.7798,7.8319,7.8515,7.8633,7.9883,8.0664,8.1094,8.1992,8.2304,8.2304,9.6288,9.6288,9.6288,9.6288,9.6288,9.6288,9.6288,9.6288,9.6288,9.6288,9.6288,9.6288,9.6288,9.6288,9.6288,9.6288,9.548,9.4643,9.3749,9.2941,9.1633,8.971,8.8632,8.7363,8.5863,8.5824,8.5093,8.3601,8.3601,8.2947,8.167,8.1477,8.1362,8.1362,8.117,8.1093,8.1093,8.1093,8.1093,8.1093,8.1093,8.1093,8.1093,8.1093,8.1093,8.1093,8.1093,8.1093,8.1093,8.1093,8.1093,8.1093,8.1093,8.1093,8.1093,8.1093,8.1093,8.0939,8.0285,8.0085,7.9939,7.9254,7.91,7.9061,7.8869,7.8946,7.8984,7.86,7.8245,7.7778,7.7014,7.4843,7.3014,7.2654,6.8984,6.6562,6.7617,6.7031,6.7148,6.8867,7.1172,7.3047,7.4101,7.5,7.5312,7.4805,7.4805,7.4805,7.4805,7.543,7.6094,7.6758,7.6601,7.7226,7.875,7.8789,7.9101,7.9687,7.9687,7.9687,7.9687,7.9687,7.9687,7.9687,7.9687,7.9336,7.8828,7.9453,7.9453,7.9219,8.0508,8.1133,8.1367,8.2031,8.2304,8.2304,9.6288,9.6288,9.6288,9.6288,9.6288,9.6288,9.6288,9.6288,9.6288,9.6288,9.6288,9.6288,9.6288,9.6288,9.6288,9.6288,9.548,9.4643,9.3749,9.2941,9.1402,8.891,8.7171,8.5901,8.5008,8.497,8.4516,8.3601,8.3601,8.3524,8.3409,8.2593,8.2208,8.217,8.1439,8.1093,8.1093,8.1093,8.1093,8.1093,8.1093,8.1093,8.1093,8.1093,8.1093,8.1093,8.1093,8.1093,8.1093,8.1093,8.1093,8.1093,8.1093,8.1093,8.1093,8.1093,8.1093,8.1093,8.1016,8.1016,8.0977,8.0939,8.09,8.0708,7.9892,8.0323,8.0439,7.883,7.9387,7.9652,7.8007,7.5939,7.4452,7.4414,7.082,6.8555,7.0195,6.9687,6.9765,7.1523,7.332,7.5078,7.6758,7.7695,7.8515,7.918,7.9219,7.9219,7.9219,7.9297,7.9336,7.9414,7.8711,7.8711,7.9609,7.9609,7.9648,7.9687,7.9687,7.9687,7.9687,7.9687,7.9687,7.9687,7.9687,7.9687,7.9609,7.9687,8.0156,8.082,8.0937,8.1484,8.2226,8.2265,8.2304,8.2304,9.6288,9.6288,9.6288,9.6288,9.6288,9.6288,9.6288,9.6288,9.6288,9.6288,9.6288,9.6288,9.6288,9.6288,9.6288,9.6288,9.548,9.4643,9.3749,9.2441,9.0787,8.8795,8.7017,8.5978,8.5662,8.5632,8.5247,8.4401,8.4401,8.4132,8.3563,8.2716,8.2593,8.3062,8.1708,8.1362,8.1823,8.1323,8.1093,8.1093,8.1093,8.1093,8.1093,8.1093,8.1093,8.1093,8.1093,8.1093,8.1093,8.1093,8.1093,8.1093,8.1093,8.1093,8.1093,8.1093,8.1093,8.1093,8.1093,8.1093,8.1093,8.1093,8.1093,8.1016,8.0669,8.0862,8.09,8.0246,8.0583,8.0684,7.9625,7.8392,7.7637,7.7734,7.414,7.2148,7.4414,7.3515,7.3281,7.5039,7.6719,7.8008,7.8672,7.9062,7.9375,7.9687,7.9687,7.9687,7.9687,7.9687,7.9961,8.0508,8.0195,8.0195,8.0508,8.0508,8.0781,8.1328,8.1328,8.1328,8.1328,8.1328,8.1328,8.1328,8.1328,8.1015,8.0547,8.1094,8.1172,8.1054,8.1601,8.1992,8.2304,8.2304,8.2304,8.2304,9.6288,9.6288,9.6288,9.6288,9.6288,9.6288,9.6288,9.6288,9.6288,9.6288,9.6288,9.6288,9.6288,9.6288,9.6288,9.6288,9.5249,9.4335,9.3749,9.1864,9.0056,8.8372,8.6863,8.6094,8.6094,8.6094,8.5824,8.5286,8.5286,8.4978,8.4371,8.3208,8.3024,8.3524,8.1862,8.14,8.19,8.1323,8.1093,8.1093,8.1093,8.1093,8.1093,8.1093,8.1093,8.1093,8.1093,8.1093,8.1093,8.1093,8.1093,8.1093,8.1093,8.1093,8.1093,8.1093,8.1093,8.1124,8.1174,8.1203,8.1174,8.1124,8.1093,8.1093,8.1093,8.1093,8.1131,8.1181,8.1335,8.1359,8.0992,8.0365,7.986,7.9726,7.7031,7.5547,7.7344,7.6562,7.6367,7.7812,7.8984,7.9805,8.0078,8.0117,8.0234,8.0508,8.0508,8.0508,8.0508,8.0508,8.0781,8.1406,8.1406,8.1406,8.1406,8.1406,8.1719,8.2304,8.2304,8.2304,8.2304,8.2304,8.2304,8.2304,8.2304,8.1953,8.1445,8.2031,8.1953,8.1484,8.207,8.2304,8.2304,8.2304,8.2304,8.2304,9.6288,9.6288,9.6288,9.6288,9.6288,9.6288,9.6288,9.6288,9.6288,9.6288,9.6288,9.6288,9.6288,9.6288,9.6288,9.6288,9.4711,9.371,9.3672,9.1325,8.9162,8.7478,8.6594,8.6132,8.6094,8.6094,8.6094,8.6094,8.6094,8.6094,8.6055,8.4401,8.3601,8.3563,8.1862,8.1131,8.1131,8.1131,8.1093,8.1093,8.1093,8.1093,8.1093,8.1093,8.1093,8.1093,8.1093,8.1093,8.1093,8.1093,8.1093,8.1093,8.1093,8.1093,8.1093,8.1093,8.1093,8.1146,8.1361,8.1407,8.1335,8.1161,8.11,8.11,8.11,8.11,8.1137,8.1347,8.1563,8.1746,8.1971,8.1468,8.0742,7.9844,7.9023,7.8515,7.8515,7.8515,7.8828,7.9609,7.9726,8.0078,8.0937,8.1015,8.1367,8.2226,8.2304,8.2304,8.2304,8.2304,8.2304,8.2304,8.2304,8.2304,8.2304,8.2304,8.2304,8.2304,8.2304,8.2304,8.2304,8.2304,8.2304,8.2304,8.2304,8.2304,8.2304,8.2304,8.2304,8.2304,8.2304,8.2304,8.2304,8.2304,8.2304,8.2304,9.6288,9.6288,9.6288,9.6288,9.6288,9.6288,9.6288,9.6288,9.6288,9.6288,9.6288,9.6288,9.6288,9.6288,9.6288,9.6288,9.5249,9.3835,9.2056,9.0663,8.944,8.8372,8.8064,8.7632,8.7017,8.7017,8.6709,8.6094,8.6094,8.6094,8.6094,8.5016,8.4824,8.5286,8.3593,8.287,8.287,8.287,8.217,8.1131,8.1708,8.1593,8.1093,8.1093,8.1093,8.1093,8.1093,8.1093,8.1093,8.1093,8.1093,8.1093,8.1093,8.1093,8.1093,8.1093,8.1093,8.1146,8.1361,8.1407,8.1441,8.1478,8.1509,8.1509,8.1509,8.1509,8.1529,8.1609,8.175,8.1912,8.1986,8.1937,8.1836,8.1562,8.082,8.0469,8.1094,8.0625,8.0586,8.1406,8.1523,8.164,8.1875,8.1914,8.2031,8.2265,8.2304,8.2304,8.2304,8.2304,8.2304,8.2304,8.2304,8.2304,8.2304,8.2304,8.2304,8.2304,8.2304,8.2304,8.2304,8.2304,8.2304,8.2304,8.2304,8.2304,8.2304,8.2304,8.2304,8.2304,8.2304,8.2304,8.2304,8.2304,8.2304,8.2304,9.6365,9.6557,9.6673,9.6365,9.6288,9.6288,9.6288,9.6288,9.6288,9.6288,9.6288,9.6288,9.6288,9.6288,9.6288,9.6288,9.548,9.422,9.2326,9.1402,9.071,9.0218,8.9863,8.9133,8.7948,8.7902,8.7478,8.6594,8.6594,8.644,8.6094,8.5286,8.5162,8.5555,8.4209,8.3601,8.3601,8.3601,8.2832,8.1631,8.2477,8.2131,8.1131,8.1439,8.1362,8.1093,8.1093,8.1093,8.1093,8.1093,8.1093,8.1093,8.1093,8.1093,8.1093,8.1093,8.1168,8.1251,8.1469,8.1577,8.1703,8.1886,8.1831,8.1684,8.1684,8.1684,8.1707,8.1819,8.1902,8.2003,8.2114,8.222,8.2304,8.2304,8.1875,8.1719,8.2226,8.1836,8.1719,8.2226,8.2304,8.2304,8.2304,8.2304,8.2304,8.2304,8.2304,8.2304,8.2304,8.2304,8.2304,8.2304,8.2304,8.2304,8.2304,8.2304,8.2304,8.2304,8.2304,8.2304,8.2304,8.2304,8.2304,8.2304,8.2304,8.2304,8.2304,8.2304,8.2304,8.2304,8.2304,8.2304,8.2304,8.2304,8.2304,8.2304,9.6557,9.6942,9.7173,9.6519,9.6365,9.6326,9.6403,9.6365,9.6288,9.6288,9.6288,9.6288,9.6288,9.6288,9.6288,9.6288,9.548,9.4643,9.3749,9.3018,9.2556,9.2402,9.171,9.0556,8.8949,8.8833,8.8363,8.7517,8.7517,8.7094,8.6324,8.5593,8.5201,8.5085,8.4286,8.387,8.3717,8.3793,8.3293,8.2477,8.3293,8.2631,8.1285,8.1939,8.1747,8.1093,8.1093,8.1093,8.1093,8.1093,8.1093,8.1093,8.1093,8.1093,8.1093,8.1093,8.1256,8.1436,8.1662,8.1855,8.2054,8.2263,8.2005,8.1736,8.1736,8.1736,8.1822,8.1986,8.2044,8.2068,8.2264,8.2304,8.2304,8.2304,8.2304,8.2304,8.2304,8.2304,8.2304,8.2304,8.2304,8.2304,8.2304,8.2304,8.2304,8.2304,8.2304,8.2304,8.2304,8.2304,8.2304,8.2304,8.2304,8.2304,8.2304,8.2304,8.2304,8.2304,8.2304,8.2304,8.2304,8.2304,8.2304,8.2304,8.2304,8.2304,8.2304,8.2304,8.2304,8.2304,8.2304,8.2304,8.2304,8.2304,8.2304,8.2304,9.7288,9.6865,9.6711,9.7173,9.6711,9.6519,9.7134,9.6711,9.6288,9.6288,9.6288,9.6288,9.6288,9.6288,9.6288,9.6288,9.548,9.4643,9.3749,9.3518,9.2864,9.1556,9.1941,9.171,9.0671,8.9979,8.9248,8.841,8.841,8.8333,8.8141,8.7948,8.7517,8.6863,8.6671,8.5863,8.467,8.5286,8.467,8.3332,8.3524,8.2986,8.1977,8.1516,8.1246,8.1093,8.1093,8.1093,8.1093,8.1093,8.1093,8.1093,8.1093,8.1093,8.1093,8.1093,8.1256,8.1436,8.1662,8.1855,8.2054,8.2263,8.2223,8.2173,8.2173,8.2173,8.2176,8.2221,8.2223,8.2263,8.2304,8.2304,8.2304,8.2304,8.2304,8.2304,8.2304,8.2304,8.2304,8.2304,8.2304,8.2304,8.2304,8.2304,8.2304,8.2304,8.2304,8.2304,8.2304,8.2304,8.2304,8.2304,8.2304,8.2304,8.2304,8.2304,8.2304,8.2304,8.2304,8.2304,8.2304,8.2304,8.2304,8.2304,8.2304,8.2304,8.2304,8.2304,8.2304,8.2304,8.2304,8.2304,8.2304,8.2304,8.2304,8.2304,9.7596,9.7519,9.7365,9.698,9.6596,9.6442,9.6865,9.6557,9.6288,9.6288,9.6288,9.6288,9.6288,9.6288,9.6288,9.6288,9.5865,9.5441,9.498,9.4557,9.3758,9.2441,9.2441,9.2095,9.121,9.074,9.0094,8.9286,8.9286,8.9094,8.8679,8.8256,8.7825,8.7363,8.6978,8.6286,8.5508,8.594,8.5363,8.4247,8.4632,8.4055,8.2901,8.2901,8.2631,8.2247,8.1823,8.1439,8.1093,8.1093,8.1093,8.1093,8.1093,8.1191,8.1256,8.1256,8.1447,8.1727,8.1828,8.1986,8.2172,8.2265,8.2617,8.2812,8.2383,8.2304,8.2304,8.2304,8.2304,8.2304,8.2304,8.2304,8.2304,8.2304,8.2304,8.2304,8.2304,8.2304,8.2304,8.2304,8.2304,8.2304,8.2304,8.2304,8.2304,8.2304,8.2304,8.2304,8.2304,8.2304,8.2304,8.2304,8.2304,8.2304,8.2304,8.2304,8.2304,8.2304,8.2304,8.2304,8.2304,8.2304,8.2304,8.2304,8.2304,8.2304,8.2304,8.2304,8.2304,8.2304,8.2304,8.2304,8.2304,8.2304,8.2304,8.2304,9.7904,9.8173,9.8173,9.6942,9.648,9.6365,9.648,9.6403,9.6288,9.6288,9.6288,9.6288,9.6288,9.6288,9.6288,9.6288,9.6288,9.6249,9.6095,9.5518,9.4758,9.3749,9.321,9.2441,9.1441,9.1441,9.1018,9.0124,9.0124,8.9787,8.9103,8.8402,8.7979,8.7786,8.694,8.6478,8.6324,8.617,8.5701,8.5162,8.567,8.5055,8.3862,8.4478,8.4247,8.3524,8.2793,8.2016,8.1323,8.1323,8.1208,8.1108,8.1138,8.1258,8.1418,8.1431,8.1692,8.1992,8.1992,8.2245,8.2539,8.2539,8.3164,8.3633,8.289,8.2617,8.2578,8.2695,8.2617,8.2539,8.2539,8.2539,8.2461,8.2304,8.2304,8.2304,8.2304,8.2304,8.2304,8.2304,8.2304,8.2304,8.2304,8.2304,8.2304,8.2304,8.2304,8.2304,8.2304,8.2304,8.2304,8.2304,8.2304,8.2304,8.2304,8.2304,8.2304,8.2304,8.2304,8.2304,8.2304,8.2304,8.2304,8.2304,8.2304,8.2304,8.2304,8.2304,8.2304,8.2304,8.2304,8.2304,8.2304,8.2304,8.2304,8.2304,9.8788,9.8096,9.7827,9.8365,9.725,9.6519,9.725,9.6749,9.6288,9.6288,9.6288,9.6288,9.6288,9.6288,9.6288,9.6288,9.6288,9.598,9.522,9.5788,9.5403,9.3749,9.4335,9.395,9.2364,9.2326,9.1902,9.1018,9.1018,9.0979,9.0864,9.0748,9.0287,8.9509,8.8709,8.794,8.7171,8.644,8.6055,8.5901,8.5277,8.4931,8.467,8.4016,8.3717,8.3563,8.3486,8.2862,8.2131,8.2131,8.167,8.1116,8.1292,8.1377,8.1425,8.1618,8.1834,8.1992,8.1992,8.2714,8.3437,8.3437,8.4062,8.4687,8.457,8.3984,8.3633,8.4375,8.3945,8.3437,8.3437,8.3437,8.3164,8.2422,8.2304,8.2304,8.2304,8.2304,8.2304,8.2304,8.2304,8.2304,8.2304,8.2304,8.2304,8.2304,8.2304,8.2304,8.2304,8.2304,8.2304,8.2304,8.2304,8.2304,8.2304,8.2304,8.2304,8.2304,8.2304,8.2304,8.2304,8.2304,8.2304,8.2304,8.2304,8.2304,8.2304,8.2304,8.2304,8.2304,8.2304,8.2304,8.2304,8.2304,8.2304,8.2304,9.825,9.8173,9.8057,9.748,9.6788,9.6442,9.6788,9.6519,9.6288,9.6288,9.6288,9.6288,9.6288,9.6288,9.6288,9.6288,9.6288,9.6134,9.5749,9.6095,9.5749,9.4489,9.4797,9.445,9.321,9.3172,9.2979,9.2595,9.1672,9.121,9.121,9.0701,9.0278,8.9855,8.9056,8.8487,8.8064,8.7209,8.6824,8.6748,8.5901,8.5555,8.5517,8.5132,8.5016,8.4939,8.4478,8.3785,8.3024,8.3024,8.2793,8.2517,8.2613,8.2467,8.232,8.2387,8.2294,8.2172,8.2172,8.2496,8.3008,8.3476,8.3906,8.4414,8.539,8.4961,8.4297,8.4179,8.3867,8.3594,8.3594,8.3203,8.289,8.3008,8.2617,8.2304,8.2304,8.2304,8.2304,8.2304,8.2304,8.2304,8.2304,8.2304,8.2304,8.2304,8.2304,8.2304,8.2304,8.2304,8.2304,8.2304,8.2304,8.2304,8.2304,8.2304,8.2304,8.2304,8.2304,8.2304,8.2304,8.2304,8.2304,8.2304,8.2304,8.2304,8.2304,8.2304,8.2304,8.2304,8.2304,8.2304,8.2304,8.2304,8.2304,8.2304]}]]